Date StartTime U_cm/s V_cm/s W_cm/s Ustd_cm/s Vstd_cm/s Wstd_cm/s Uvar_(cm/s)^2 Vvar_(cm/s)^2 Wvar_(cm/s)^2 KE_(m/s)^2 TurbulentKE_(m/s)^2 HorizWindSpeed_cm/s FrictionSpeec_cm/s DragCoef SpeedOfSound_m/s SonicTemperature_C Pressure_mb 
03/08/2014  00:00:00       25.321       26.709        2.177       17.279       19.784       11.226      298.573      391.422      126.026        0.109        0.041       36.804       10.775        0.086      335.324        5.880      867.220
03/08/2014  00:01:00       38.821       32.542        4.533       15.735       16.912       15.075      247.585      286.026      227.246        0.167        0.038       50.656       11.639        0.053      335.350        5.925      867.230
03/08/2014  00:02:00       25.156       49.069       -6.832       30.388       27.568       17.304      923.449      759.974      299.414        0.253        0.099       55.142       15.402        0.078      335.386        5.985      867.234
03/08/2014  00:03:00       80.144       58.242       13.637       37.977       23.994       22.731     1442.262      575.717      516.694        0.627        0.127       99.072       18.362        0.034      335.431        6.060      867.241
03/08/2014  00:04:00       75.931       53.512       13.471       26.624       17.674       19.367      708.860      312.371      375.079        0.510        0.070       92.892       14.667        0.025      335.430        6.058      867.252
03/08/2014  00:05:00       56.050       43.172        5.401       19.948       20.731       16.455      397.924      429.780      270.760        0.307        0.055       70.749       11.621        0.027      335.359        5.939      867.264
03/08/2014  00:06:00       48.912       46.352       10.417       25.701       20.959       17.771      660.552      439.269      315.812        0.303        0.071       67.386       12.611        0.035      335.368        5.955      867.268
03/08/2014  00:07:00       37.748       51.841        0.367       27.467       23.381       14.276      754.422      546.660      203.792        0.281        0.075       64.127        9.661        0.023      335.366        5.952      867.273
03/08/2014  00:08:00       22.950       49.895       -3.985       17.359       21.929       14.923      301.345      480.898      222.694        0.202        0.050       54.920       13.241        0.058      335.286        5.817      867.273
03/08/2014  00:09:00       18.750       65.975       -9.180       14.659       19.063        7.448      214.898      363.413       55.472        0.271        0.032       68.587        4.171        0.004      335.322        5.878      867.277
03/08/2014  00:10:00       25.400       86.384      -11.361       17.613       13.568        9.857      310.224      184.083       97.170        0.441        0.030       90.041        4.366        0.002      335.433        6.064      867.280
03/08/2014  00:11:00       29.066       37.182        0.406       21.563       23.270       10.126      464.979      541.512      102.543        0.167        0.055       47.195        5.165        0.012      335.281        5.811      867.305
03/08/2014  00:12:00       14.777       19.141        1.900       16.979       13.282       12.000      288.274      176.409      143.999        0.060        0.030       24.182        9.844        0.166      335.197        5.670      867.331
03/08/2014  00:13:00        6.237       37.327       -2.672       10.845        8.062        6.670      117.621       64.992       44.487        0.083        0.011       37.845        1.847        0.002      335.317        5.868      867.347
03/08/2014  00:14:00        9.320       30.839       -4.329       13.509       19.468        8.252      182.490      379.015       68.100        0.084        0.031       32.217        7.797        0.059      335.310        5.858      867.367
03/08/2014  00:15:00        5.184       17.252        1.750       17.771       22.232       10.902      315.812      494.265      118.862        0.063        0.046       18.014       10.384        0.332      335.300        5.840      867.385
03/08/2014  00:16:00       -0.728       61.550      -11.868       15.251       17.952        8.246      232.607      322.275       67.997        0.228        0.031       61.554        6.282        0.010      335.426        6.050      867.399
03/08/2014  00:17:00       -3.513       64.836       -7.404       18.733       21.991        8.484      350.942      483.584       71.977        0.259        0.045       64.931        5.080        0.006      335.532        6.227      867.430
03/08/2014  00:18:00        7.168       68.750      -11.043       22.310       22.038       10.061      497.730      485.655      101.228        0.299        0.054       69.123       13.210        0.037      335.562        6.280      867.457
03/08/2014  00:19:00      -25.586       18.427       -3.225       19.804       22.395       13.783      392.210      501.519      189.960        0.104        0.054       31.531       12.410        0.155      334.952        5.266      867.493
03/08/2014  00:20:00      -66.749       -3.995      -13.658       10.908       10.972       10.637      118.976      120.384      113.142        0.251        0.018       66.868        5.512        0.007      334.390        4.332      867.530
03/08/2014  00:21:00      -67.296      -18.878      -12.163       10.824       14.774       10.370      117.150      218.264      107.541        0.274        0.022       69.894        5.777        0.007      334.350        4.264      867.569
03/08/2014  00:22:00      -83.118      -26.220      -16.619       17.469       18.198       13.562      305.152      331.180      183.937        0.435        0.041       87.155        7.056        0.007      334.314        4.207      867.598
03/08/2014  00:23:00      -85.766      -15.709      -11.265       27.903       15.695       16.811      778.599      246.348      282.594        0.452        0.065       87.192       16.931        0.038      334.172        3.970      867.623
03/08/2014  00:24:00     -123.616       -8.247      -19.531       31.235       24.404       17.256      975.643      595.565      297.784        0.880        0.093      123.890       14.016        0.013      334.190        3.999      867.654
03/08/2014  00:25:00     -115.802      -10.234      -16.004       37.310       34.834       26.670     1392.008     1213.436      711.263        0.854        0.166      116.253       23.394        0.040      334.167        3.962      867.682
03/08/2014  00:26:00      -90.350      -18.335       -9.857       53.081       24.262       22.667     2817.561      588.642      513.786        0.626        0.196       92.192       21.259        0.053      334.109        3.865      867.706
03/08/2014  00:27:00      -45.707        1.295       -8.728       35.389       38.623       25.431     1252.359     1491.728      646.715        0.278        0.170       45.726       15.951        0.122      334.128        3.896      867.737
03/08/2014  00:28:00      -68.597       11.156      -17.177       45.622       46.526       30.867     2081.377     2164.697      952.773        0.516        0.260       69.498       21.221        0.093      334.197        4.009      867.755
03/08/2014  00:29:00      -36.032        6.204        4.980       50.522       38.384       29.289     2552.474     1473.324      857.873        0.312        0.244       36.562       20.544        0.316      334.354        4.271      867.762
03/08/2014  00:30:00      -63.223       18.916      -13.838       48.683       38.548       27.726     2370.023     1485.969      768.735        0.458        0.231       65.992       22.463        0.116      334.324        4.222      867.764
03/08/2014  00:31:00      -64.058        8.968       -0.014       50.736       39.120       27.511     2574.144     1530.359      756.857        0.452        0.243       64.683       28.879        0.199      334.285        4.157      867.760
03/08/2014  00:32:00      -87.252      -14.385       -7.546       35.756       25.124       19.419     1278.486      631.229      377.085        0.508        0.114       88.430       17.292        0.038      334.247        4.093      867.739
03/08/2014  00:33:00      -51.649      -30.170       -9.413       33.717       30.076       17.754     1136.807      904.589      315.197        0.301        0.118       59.815       11.369        0.036      334.261        4.117      867.715
03/08/2014  00:34:00      -45.200      -33.601      -16.866       28.049       17.166       13.822      786.722      294.656      191.040        0.236        0.064       56.321        6.744        0.014      334.360        4.283      867.666
03/08/2014  00:35:00      -51.659      -21.010      -10.651       17.339       11.254       13.068      300.626      126.656      170.785        0.191        0.030       55.768        7.360        0.017      334.455        4.438      867.618
03/08/2014  00:36:00      -66.721      -23.320      -12.491       14.278       10.056       11.077      203.857      101.115      122.706        0.279        0.021       70.679        3.252        0.002      334.368        4.295      867.585
03/08/2014  00:37:00      -54.939      -27.487      -10.672       12.228       14.639        8.937      149.515      214.296       79.863        0.217        0.022       61.432        6.423        0.011      334.414        4.372      867.564
03/08/2014  00:38:00      -48.928      -28.551      -13.738       13.444       14.165        9.828      180.744      200.661       96.588        0.194        0.024       56.649        6.176        0.012      334.466        4.458      867.550
03/08/2014  00:39:00      -53.318      -31.652      -10.062       13.238       19.853       10.555      175.242      394.149      111.402        0.231        0.034       62.005        7.588        0.015      334.399        4.346      867.549
03/08/2014  00:40:00      -51.212      -18.123       -7.851       13.963       12.713       10.371      194.958      161.622      107.563        0.174        0.023       54.325        7.309        0.018      334.367        4.293      867.569
03/08/2014  00:41:00      -66.901      -12.941      -11.023       15.588       11.820        9.598      242.973      139.701       92.130        0.262        0.024       68.141        6.735        0.010      334.330        4.232      867.588
03/08/2014  00:42:00      -73.016      -14.874      -14.588       13.651       18.128        9.753      186.347      328.640       95.125        0.319        0.031       74.516        7.639        0.011      334.339        4.246      867.604
03/08/2014  00:43:00      -68.530      -13.106      -12.441       12.805       12.462       10.423      163.976      155.312      108.629        0.273        0.021       69.772        7.617        0.012      334.311        4.200      867.614
03/08/2014  00:44:00      -74.564      -19.767      -12.106       15.370       15.855       12.830      236.228      251.390      164.606        0.337        0.033       77.140        9.819        0.016      334.340        4.250      867.616
03/08/2014  00:45:00      -73.902      -23.822      -15.059       10.954       14.177        9.279      119.994      200.999       86.108        0.333        0.020       77.647        7.897        0.010      334.375        4.306      867.624
03/08/2014  00:46:00      -76.625      -17.127      -11.417       11.946       17.060       13.667      142.695      291.051      186.796        0.346        0.031       78.516       10.922        0.019      334.344        4.255      867.622
03/08/2014  00:47:00      -59.925      -21.302       -9.100       29.631       15.648       11.985      877.983      244.863      143.649        0.270        0.063       63.598        9.053        0.020      334.357        4.276      867.619
03/08/2014  00:48:00      -36.826      -13.627      -10.187       26.640       12.324       14.749      709.682      151.870      217.532        0.136        0.054       39.266        8.975        0.052      334.340        4.250      867.616
03/08/2014  00:49:00      -76.001      -22.755      -10.217       12.365       17.046        9.472      152.889      290.550       89.717        0.347        0.027       79.334        7.072        0.008      334.327        4.227      867.606
03/08/2014  00:50:00      -91.874      -41.390      -11.943       14.875       18.686       13.458      221.257      349.181      181.120        0.552        0.038      100.767        6.651        0.004      334.287        4.160      867.607
03/08/2014  00:51:00     -117.238      -52.725      -17.716       16.541       16.025       11.361      273.590      256.791      129.066        0.875        0.033      128.548        7.041        0.003      334.153        3.938      867.610
03/08/2014  00:52:00     -133.302      -34.459      -18.998       10.873       16.804       10.773      118.223      282.377      116.061        0.992        0.026      137.684        4.859        0.001      334.129        3.897      867.612
03/08/2014  00:53:00     -121.665      -55.831       -9.100       18.297       12.720        8.706      334.767      161.792       75.792        0.929        0.029      133.864        7.453        0.003      334.274        4.139      867.614
03/08/2014  00:54:00     -113.317      -31.659       -8.882       17.885       13.855       10.365      319.864      191.972      107.443        0.727        0.031      117.657       10.085        0.007      334.247        4.096      867.629
03/08/2014  00:55:00      -98.767       -6.903      -12.318       20.511       15.877       13.082      420.691      252.092      171.151        0.540        0.042       99.007       12.012        0.015      334.177        3.978      867.635
03/08/2014  00:56:00     -111.830       -3.131      -10.430       22.045       13.400       16.138      485.982      179.572      260.449        0.678        0.046      111.874       13.667        0.015      334.053        3.773      867.630
03/08/2014  00:57:00     -102.147       -2.548       -5.938       26.311       14.779       15.554      692.263      218.414      241.934        0.581        0.058      102.179       12.105        0.014      333.976        3.644      867.620
03/08/2014  00:58:00      -94.165       -6.998      -10.436       23.116       11.907       11.413      534.342      141.775      130.252        0.492        0.040       94.424        6.144        0.004      333.965        3.627      867.612
03/08/2014  00:59:00      -81.540      -25.049       -8.114       17.817       15.134       13.694      317.449      229.036      187.539        0.404        0.037       85.301        9.274        0.012      334.003        3.690      867.598
03/08/2014  01:00:00      -94.447      -33.885      -14.054       14.767        9.759        8.519      218.078       95.245       72.576        0.533        0.019      100.341        5.748        0.003      333.956        3.610      867.585
03/08/2014  01:01:00     -104.493      -29.818       -9.578       15.088       11.768       11.323      227.641      138.486      128.218        0.620        0.025      108.664        9.551        0.008      333.993        3.672      867.588
03/08/2014  01:02:00     -101.169      -27.498      -10.647       13.424       15.465       10.325      180.214      239.159      106.604        0.582        0.026      104.839        5.679        0.003      334.083        3.821      867.603
03/08/2014  01:03:00      -97.795      -27.560       -8.665       21.007       19.411       15.997      441.301      376.771      255.897        0.574        0.054      101.604       11.865        0.014      334.116        3.876      867.619
03/08/2014  01:04:00     -112.571      -30.222       -9.908       18.104       15.245       14.185      327.760      232.411      201.201        0.722        0.038      116.557       11.026        0.009      334.083        3.822      867.651
03/08/2014  01:05:00     -109.995      -25.973       -9.888       21.797       18.593       13.621      475.126      345.709      185.544        0.694        0.050      113.020       12.337        0.012      334.058        3.780      867.675
03/08/2014  01:06:00     -116.883      -25.637      -12.847       16.461       14.991       11.790      270.949      224.740      139.012        0.756        0.032      119.662        8.372        0.005      334.031        3.734      867.694
03/08/2014  01:07:00     -110.608      -17.840      -15.232       17.158       13.909       10.854      294.402      193.448      117.810        0.669        0.030      112.038        6.531        0.003      334.015        3.708      867.726
03/08/2014  01:08:00     -119.943       -7.214      -14.778       21.460       18.091       17.162      460.530      327.294      294.531        0.787        0.054      120.160       14.065        0.014      333.898        3.516      867.751
03/08/2014  01:09:00     -117.587      -22.630      -11.001       15.496       12.394       13.013      240.111      153.611      169.348        0.751        0.028      119.745       10.191        0.007      333.846        3.428      867.765
03/08/2014  01:10:00     -125.334      -40.693      -17.051       16.275       11.230       10.875      264.883      126.110      118.274        0.908        0.025      131.775        7.310        0.003      333.897        3.512      867.770
03/08/2014  01:11:00     -118.752      -35.936        0.004       29.021       18.402       14.979      842.238      338.623      224.363        0.840        0.070      124.071       16.330        0.017      333.928        3.565      867.768
03/08/2014  01:12:00     -120.340      -47.155      -10.076       11.965       14.623        8.651      143.170      213.839       74.835        0.862        0.022      129.249        4.758        0.001      333.894        3.508      867.761
03/08/2014  01:13:00     -106.739      -33.496       -3.507       19.798       14.393       11.130      391.954      207.154      123.866        0.663        0.036      111.872       10.197        0.008      333.925        3.561      867.760
03/08/2014  01:14:00     -109.740      -46.818       -9.948       15.918       18.155       14.382      253.394      329.597      206.835        0.756        0.039      119.309       10.589        0.008      333.860        3.453      867.739
03/08/2014  01:15:00     -112.648      -40.617      -11.054       12.269       12.951       12.459      150.541      167.732      155.236        0.747        0.024      119.747        5.995        0.003      333.879        3.485      867.709
03/08/2014  01:16:00     -101.723      -52.249       -9.019       13.200       16.115       11.246      174.236      259.688      126.466        0.686        0.028      114.357        7.633        0.004      333.853        3.439      867.680
03/08/2014  01:17:00      -98.567      -28.779       -7.756       15.601       17.321       11.376      243.385      300.028      129.411        0.564        0.034      102.682        8.305        0.007      333.862        3.456      867.667
03/08/2014  01:18:00     -116.372      -23.536      -10.426       19.222       15.504       10.251      369.500      240.379      105.086        0.746        0.036      118.728        9.181        0.006      333.786        3.328      867.654
03/08/2014  01:19:00     -113.438      -34.280       -7.151       13.532       18.308       11.319      183.104      335.189      128.117        0.737        0.032      118.505        9.924        0.007      333.815        3.376      867.628
03/08/2014  01:20:00      -98.966      -24.691      -14.620        9.883       11.825       10.914       97.681      139.832      119.106        0.549        0.018      101.999        7.539        0.005      333.774        3.310      867.610
03/08/2014  01:21:00      -88.002      -24.987      -12.899       21.450       15.174       10.312      460.116      230.264      106.339        0.467        0.040       91.481       10.240        0.013      333.760        3.286      867.592
03/08/2014  01:22:00      -83.339      -23.074      -13.408       14.590       12.635       10.229      212.867      159.652      104.637        0.407        0.024       86.475        9.293        0.012      333.754        3.276      867.588
03/08/2014  01:23:00      -79.963      -27.513      -10.032       19.985       23.285       11.933      399.393      542.179      142.386        0.417        0.054       84.564       12.277        0.021      333.730        3.236      867.571
03/08/2014  01:24:00      -87.769       -7.498      -12.610       18.619       24.505       14.748      346.683      600.511      217.500        0.454        0.058       88.088       10.429        0.014      333.750        3.269      867.533
03/08/2014  01:25:00      -43.726      -10.792       -4.505       18.555       17.507       11.609      344.289      306.495      134.769        0.142        0.039       45.038       10.424        0.054      333.718        3.217      867.519
03/08/2014  01:26:00      -57.315       -2.279      -10.818       14.204        9.581       10.085      201.740       91.799      101.705        0.190        0.020       57.360        8.771        0.023      333.824        3.393      867.517
03/08/2014  01:27:00      -65.465      -13.742      -10.855       15.129       15.993       11.023      228.891      255.762      121.506        0.260        0.030       66.892       10.278        0.024      333.858        3.448      867.506
03/08/2014  01:28:00      -73.959       -5.489       -9.275       19.916       21.667       12.944      396.661      469.460      167.549        0.331        0.052       74.163       11.347        0.023      333.771        3.305      867.501
03/08/2014  01:29:00      -74.574      -12.582       -8.938       17.348       15.506       14.701      300.959      240.447      216.124        0.328        0.038       75.628        8.659        0.013      333.753        3.275      867.496
03/08/2014  01:30:00      -85.152      -19.446      -11.040       16.278       22.494       15.540      264.961      505.960      241.495        0.438        0.051       87.345        9.707        0.012      333.706        3.197      867.502
03/08/2014  01:31:00      -95.913      -16.753      -14.535       19.993       18.602       14.463      399.725      346.029      209.186        0.532        0.048       97.365        9.258        0.009      333.652        3.107      867.505
03/08/2014  01:32:00      -61.388      -17.588       -7.297       19.756       20.415       13.545      390.296      416.758      183.475        0.256        0.050       63.858        9.586        0.023      333.614        3.044      867.519
03/08/2014  01:33:00      -74.197      -37.634      -13.161       17.297       16.702       10.378      299.175      278.962      107.695        0.389        0.034       83.196        8.752        0.011      333.648        3.101      867.531
03/08/2014  01:34:00      -70.190      -22.965      -19.206       13.619       12.839       11.568      185.475      164.846      133.807        0.315        0.024       73.851        2.136        0.001      333.601        3.023      867.525
03/08/2014  01:35:00      -86.268      -17.539      -15.872       18.525       16.588       14.506      343.185      275.155      210.412        0.442        0.041       88.033        8.244        0.009      333.588        3.001      867.518
03/08/2014  01:36:00      -98.252       -3.744      -20.661       12.704       12.846       13.812      161.388      165.018      190.770        0.531        0.026       98.323        4.940        0.003      333.596        3.013      867.520
03/08/2014  01:37:00      -88.403      -19.177      -20.956       13.366        9.912        8.609      178.645       98.252       74.123        0.449        0.018       90.459        4.418        0.002      333.560        2.954      867.502
03/08/2014  01:38:00      -86.205      -18.143      -14.768       15.422       16.674       13.732      237.847      278.010      188.557        0.434        0.035       88.094        8.819        0.010      333.575        2.979      867.497
03/08/2014  01:39:00      -78.291      -22.647      -15.476       21.364       15.554       13.910      456.439      241.937      193.489        0.389        0.045       81.501       13.739        0.028      333.614        3.043      867.495
03/08/2014  01:40:00      -81.382      -21.901      -12.020       19.655       18.345       18.723      386.335      336.528      350.536        0.416        0.054       84.278       12.259        0.021      333.615        3.045      867.500
03/08/2014  01:41:00      -86.441      -20.420      -16.113       17.410       18.416       13.919      303.118      339.136      193.750        0.449        0.042       88.820       13.110        0.022      333.638        3.083      867.497
03/08/2014  01:42:00      -70.215      -12.335       -6.945       26.773       19.535       15.303      716.820      381.624      234.184        0.323        0.067       71.290       14.876        0.044      333.601        3.023      867.486
03/08/2014  01:43:00      -79.572       -0.417      -14.335       21.984       17.285       11.210      483.300      298.761      125.660        0.372        0.045       79.573        9.191        0.013      333.719        3.218      867.468
03/08/2014  01:44:00      -91.995      -11.048      -12.585       15.661       10.805       10.318      245.265      116.754      106.468        0.461        0.023       92.656        5.667        0.004      333.640        3.087      867.458
03/08/2014  01:45:00      -94.248      -23.314      -14.359       19.585       15.510       11.405      383.572      240.557      130.063        0.519        0.038       97.089       11.200        0.013      333.533        2.910      867.466
03/08/2014  01:46:00     -106.695      -31.570      -19.763       18.064       13.616       12.260      326.315      185.387      150.296        0.672        0.033      111.268        6.711        0.004      333.577        2.982      867.467
03/08/2014  01:47:00      -96.697      -36.327      -22.996       29.723       17.473       14.158      883.431      305.317      200.463        0.629        0.069      103.295        7.549        0.005      333.604        3.027      867.464
03/08/2014  01:48:00      -30.192      -24.505       15.161       33.119       19.183       21.195     1096.838      367.977      449.233        0.183        0.096       38.885       22.539        0.336      333.635        3.078      867.471
03/08/2014  01:49:00      -81.704      -34.822       -3.750       26.657       21.615       13.952      710.585      467.222      194.656        0.464        0.069       88.815       12.410        0.020      333.640        3.086      867.468
03/08/2014  01:50:00     -101.017      -20.905       -7.386       23.607       18.943       14.933      557.305      358.837      223.004        0.592        0.057      103.158        8.987        0.008      333.696        3.178      867.441
03/08/2014  01:51:00     -107.782      -42.068       -7.803       21.553       20.151       17.285      464.521      406.080      298.766        0.731        0.058      115.701       13.516        0.014      333.671        3.137      867.433
03/08/2014  01:52:00     -119.477      -32.080      -15.534       15.674       17.358       14.615      245.681      301.295      213.608        0.815        0.038      123.709        8.190        0.004      333.639        3.085      867.434
03/08/2014  01:53:00     -112.267      -41.779       -4.135       28.187       19.774       11.597      794.506      391.009      134.495        0.784        0.066      119.789        6.813        0.003      333.618        3.050      867.431
03/08/2014  01:54:00     -112.961      -39.445       -9.031       15.989       17.060       10.591      255.643      291.052      112.173        0.753        0.033      119.650        9.754        0.007      333.637        3.083      867.417
03/08/2014  01:55:00     -110.458      -33.644      -13.380       14.670       13.300       11.769      215.219      176.889      138.514        0.702        0.027      115.469        5.949        0.003      333.578        2.984      867.391
03/08/2014  01:56:00      -93.263      -47.330       -3.610       22.435       20.954       16.478      503.313      439.088      271.532        0.608        0.061      104.586        9.596        0.008      333.576        2.981      867.373
03/08/2014  01:57:00      -96.809      -49.611      -15.093       10.987       13.690        8.717      120.723      187.417       75.987        0.622        0.019      108.781        5.444        0.003      333.554        2.944      867.357
03/08/2014  01:58:00     -105.483      -55.776      -11.941       19.667       28.040       15.085      386.782      786.258      227.570        0.789        0.070      119.321       14.207        0.014      333.566        2.965      867.339
03/08/2014  01:59:00     -131.341      -66.119      -10.093       12.502       15.585       10.774      156.292      242.902      116.083        1.112        0.026      147.045        6.448        0.002      333.496        2.847      867.326
03/08/2014  02:00:00      -94.063      -52.293       -0.768       39.390       23.385       18.634     1551.586      546.868      347.221        0.701        0.122      107.622       15.823        0.022      333.479        2.819      867.327
03/08/2014  02:01:00     -108.129      -63.573       -6.172       27.941       28.216       18.642      780.681      796.135      347.535        0.885        0.096      125.433       15.947        0.016      333.549        2.936      867.343
03/08/2014  02:02:00     -144.004      -59.599      -12.314       32.257       19.767       13.466     1040.499      390.747      181.326        1.303        0.081      155.850        4.115        0.001      333.540        2.920      867.355
03/08/2014  02:03:00     -124.748      -71.685       -8.430       26.847       28.045       17.118      720.735      786.539      293.026        1.129        0.090      143.877       12.202        0.007      333.493        2.842      867.366
03/08/2014  02:04:00     -146.574      -42.784      -14.616       14.874       18.931       10.978      221.227      358.384      120.525        1.211        0.035      152.691        5.228        0.001      333.507        2.867      867.375
03/08/2014  02:05:00     -132.975      -60.703      -15.301       12.198       17.186       12.730      148.791      295.352      162.055        1.110        0.030      146.176        9.245        0.004      333.462        2.789      867.379
03/08/2014  02:06:00      -84.631      -69.345      -17.947       25.991       21.772       13.190      675.525      474.010      173.973        0.681        0.066      109.412       12.115        0.012      333.500        2.853      867.372
03/08/2014  02:07:00      -43.698      -42.215       -2.972       34.979       22.523       23.050     1223.500      507.274      531.287        0.298        0.113       60.758       18.702        0.095      333.533        2.909      867.358
03/08/2014  02:08:00      -70.688      -57.924      -22.939       18.488       24.585       17.487      341.789      604.437      305.779        0.506        0.063       91.389       11.096        0.015      333.532        2.908      867.331
03/08/2014  02:09:00      -61.666      -34.195       -7.894       26.323       20.880       13.816      692.889      435.975      190.884        0.318        0.066       70.512       10.142        0.021      333.635        3.080      867.310
03/08/2014  02:10:00      -96.252      -16.273      -16.889       12.166       21.395       14.678      148.000      457.753      215.434        0.532        0.041       97.617        9.095        0.009      333.581        2.988      867.291
03/08/2014  02:11:00      -98.699      -19.086      -22.304       14.924       27.775       15.599      222.715      771.456      243.323        0.592        0.062      100.528        4.085        0.002      333.496        2.847      867.265
03/08/2014  02:12:00     -106.690      -37.609      -14.831       33.503       27.850       19.637     1122.436      775.624      385.613        0.765        0.114      113.125       14.807        0.017      333.471        2.808      867.238
03/08/2014  02:13:00      -85.472      -17.349      -10.524       16.896       17.163       14.488      285.463      294.558      209.905        0.425        0.039       87.215       11.315        0.017      333.578        2.985      867.222
03/08/2014  02:14:00      -73.901      -38.573       -7.265       27.783       24.749       26.697      771.899      612.505      712.754        0.455        0.105       83.362       10.342        0.015      333.460        2.789      867.210
03/08/2014  02:15:00      -84.847      -32.370      -11.122       19.987       21.415       14.968      399.465      458.583      224.031        0.473        0.054       90.812        9.237        0.010      333.473        2.809      867.191
03/08/2014  02:16:00      -88.793      -43.435      -16.376       14.160       19.652       11.699      200.515      386.214      136.865        0.538        0.036       98.848        9.352        0.009      333.461        2.791      867.176
03/08/2014  02:17:00     -106.796      -54.966      -11.187       17.704       23.005       12.185      313.447      529.221      148.478        0.777        0.050      120.110        6.234        0.003      333.407        2.702      867.162
03/08/2014  02:18:00     -124.001      -56.513      -10.898       17.271       21.735       16.579      298.296      472.405      274.851        0.987        0.052      136.272        6.882        0.003      333.398        2.686      867.173
03/08/2014  02:19:00     -106.237      -77.890       -6.644       40.278       29.734       23.020     1622.293      884.081      529.917        1.022        0.152      131.731        9.485        0.005      333.397        2.685      867.175
03/08/2014  02:20:00     -135.470      -87.800       -2.925       30.202       27.258       21.089      912.137      743.007      444.763        1.408        0.105      161.434       17.225        0.011      333.426        2.731      867.183
03/08/2014  02:21:00     -105.895      -58.599        1.374       58.648       37.356       25.249     3439.630     1395.472      637.513        1.006        0.274      121.028       27.595        0.052      333.400        2.690      867.187
03/08/2014  02:22:00     -119.868      -59.782        9.303       47.039       39.128       28.173     2212.652     1531.018      793.699        1.128        0.227      133.948       25.089        0.035      333.382        2.660      867.209
03/08/2014  02:23:00     -114.625      -76.632        1.394       60.415       40.443       30.836     3649.963     1635.675      950.839        1.262        0.312      137.882       32.019        0.054      333.414        2.712      867.222
03/08/2014  02:24:00     -104.427      -72.264       -0.948       42.983       33.738       24.696     1847.561     1138.246      609.902        0.986        0.180      126.992       18.265        0.021      333.381        2.658      867.210
03/08/2014  02:25:00     -114.614      -76.083        1.180       35.923       43.203       26.032     1290.488     1866.517      677.677        1.138        0.192      137.569       21.003        0.023      333.341        2.593      867.199
03/08/2014  02:26:00     -110.781      -45.713        0.917       49.364       29.711       26.841     2436.755      882.766      720.446        0.920        0.202      119.842       28.809        0.058      333.356        2.618      867.192
03/08/2014  02:27:00      -91.112      -56.853        3.009       41.928       37.627       23.771     1757.942     1415.791      565.043        0.764        0.187      107.395       17.902        0.028      333.332        2.576      867.188
03/08/2014  02:28:00      -66.353      -54.549        8.945       56.904       41.275       29.718     3238.067     1703.598      883.138        0.664        0.291       85.897       32.101        0.140      333.388        2.669      867.183
03/08/2014  02:29:00      -96.412      -61.403        2.778       44.854       39.972       28.258     2011.840     1597.792      798.512        0.874        0.220      114.304       19.555        0.029      333.372        2.643      867.183
03/08/2014  02:30:00     -100.951      -61.992        0.007       35.728       30.170       22.322     1276.457      910.203      498.272        0.836        0.134      118.466       23.556        0.040      333.363        2.629      867.184
03/08/2014  02:31:00     -107.011      -49.132        5.018       33.170       28.919       16.660     1100.257      836.296      277.571        0.805        0.111      117.751       16.806        0.020      333.344        2.599      867.185
03/08/2014  02:32:00     -139.250      -45.311       -3.373       20.731       18.669       10.611      429.776      348.516      112.586        1.117        0.045      146.437        6.008        0.002      333.340        2.591      867.189
03/08/2014  02:33:00     -129.175      -50.502       -6.518       15.336       15.288        9.700      235.190      233.719       94.099        0.992        0.028      138.696        4.073        0.001      333.300        2.524      867.203
03/08/2014  02:34:00     -112.875      -40.065       -5.063       23.029       24.712       16.429      530.327      610.673      269.908        0.789        0.071      119.775       11.229        0.009      333.325        2.566      867.216
03/08/2014  02:35:00     -107.781      -40.658       -8.903       29.193       32.034       16.759      852.206     1026.195      280.856        0.775        0.108      115.195       11.739        0.010      333.368        2.638      867.210
03/08/2014  02:36:00     -101.120      -72.302       -8.250       32.363       24.238       16.331     1047.332      587.475      266.699        0.871        0.095      124.310        8.646        0.005      333.389        2.671      867.197
03/08/2014  02:37:00     -112.250      -60.450       -6.939       25.385       18.599       15.515      644.418      345.913      240.704        0.877        0.062      127.492       12.089        0.009      333.309        2.538      867.193
03/08/2014  02:38:00     -104.002      -50.098       -7.193       15.136       21.724       13.186      229.091      471.940      173.870        0.713        0.044      115.439        6.539        0.003      333.320        2.557      867.185
03/08/2014  02:39:00     -106.895      -34.671      -15.336       13.865       20.064       11.916      192.230      402.569      141.995        0.680        0.037      112.377        5.349        0.002      333.261        2.459      867.178
03/08/2014  02:40:00     -107.367      -32.038      -11.333       16.007       15.554        8.715      256.230      241.934       75.956        0.663        0.029      112.045        3.471        0.001      333.319        2.555      867.178
03/08/2014  02:41:00     -108.397      -53.216       -7.288       23.029       17.597       13.898      530.334      309.647      193.168        0.783        0.052      120.756        6.500        0.003      333.345        2.598      867.186
03/08/2014  02:42:00     -112.634      -40.516      -24.650       22.340       18.537       10.809      499.055      343.636      116.843        0.795        0.048      119.699        6.126        0.003      333.203        2.362      867.179
03/08/2014  02:43:00      -74.051      -52.561      -18.137       33.820       25.969       19.074     1143.822      674.388      363.832        0.538        0.109       90.808       20.398        0.050      333.205        2.367      867.190
03/08/2014  02:44:00      -70.510      -46.275       -5.857       35.127       20.002       18.177     1233.903      400.087      330.396        0.456        0.098       84.339        9.628        0.013      333.170        2.310      867.203
03/08/2014  02:45:00      -92.785      -63.255       -8.357       35.666       22.054       17.845     1272.038      486.366      318.441        0.738        0.104      112.296       13.324        0.014      333.126        2.238      867.223
03/08/2014  02:46:00     -138.291      -45.595      -16.603       18.416       17.730        9.601      339.140      314.342       92.187        1.111        0.037      145.613        5.058        0.001      333.083        2.167      867.241
03/08/2014  02:47:00     -124.964      -65.109       -6.097       20.979       19.062       15.772      440.135      363.366      248.768        1.047        0.053      140.909       13.348        0.009      333.098        2.190      867.251
03/08/2014  02:48:00     -118.829      -43.346      -11.092       21.531       14.533       13.322      463.585      211.218      177.467        0.849        0.043      126.488        7.486        0.004      333.122        2.231      867.251
03/08/2014  02:49:00     -117.126      -24.307      -15.509       10.303       16.295        8.437      106.158      265.542       71.186        0.750        0.022      119.621        5.007        0.002      333.049        2.108      867.252
03/08/2014  02:50:00      -93.475      -27.834      -16.193       15.124       17.190       12.797      228.738      295.489      163.756        0.523        0.034       97.531        5.204        0.003      333.089        2.177      867.254
03/08/2014  02:51:00     -111.267      -31.721      -22.545       21.146       13.687       12.695      447.140      187.341      161.166        0.735        0.040      115.700       10.382        0.008      333.013        2.050      867.234
03/08/2014  02:52:00      -89.216      -34.200      -14.541       21.464       19.559       11.018      460.723      382.572      121.387        0.515        0.048       95.546        5.684        0.004      333.064        2.134      867.219
03/08/2014  02:53:00      -57.316      -49.206      -17.149       22.465       24.420       18.298      504.684      596.349      334.828        0.372        0.072       75.540       14.159        0.035      333.084        2.169      867.209
03/08/2014  02:54:00      -38.185      -31.484       -6.001       32.051       22.666       21.332     1027.298      513.761      455.064        0.224        0.100       49.491       16.851        0.116      333.105        2.202      867.201
03/08/2014  02:55:00       -3.334      -16.198       24.659       26.434       18.388       16.074      698.741      338.116      258.382        0.109        0.065       16.538       14.463        0.765      333.058        2.126      867.188
03/08/2014  02:56:00      -50.656      -31.999       -0.605       49.508       31.615       28.051     2451.078      999.518      786.848        0.391        0.212       59.916       33.474        0.312      332.995        2.021      867.176
03/08/2014  02:57:00      -75.036      -42.806      -17.219       24.836       24.333       17.927      616.843      592.072      321.363        0.464        0.077       86.387        8.223        0.009      332.994        2.018      867.175
03/08/2014  02:58:00      -85.190      -28.264      -17.300       18.967       16.867       15.710      359.742      284.482      246.810        0.462        0.045       89.756        7.417        0.007      332.968        1.976      867.176
03/08/2014  02:59:00      -79.562      -38.270      -14.722       23.018       18.468       11.267      529.838      341.084      126.951        0.450        0.050       88.288       10.541        0.014      332.911        1.882      867.172
03/08/2014  03:00:00      -83.671      -37.542      -12.244       18.516       18.901       10.840      342.851      357.233      117.499        0.469        0.041       91.707        9.265        0.010      332.960        1.963      867.154
03/08/2014  03:01:00      -83.916      -25.557      -13.362       12.348       17.634       14.718      152.481      310.956      216.633        0.428        0.034       87.721        5.729        0.004      333.014        2.051      867.147
03/08/2014  03:02:00      -79.635      -18.398      -13.987       13.186       14.101       15.561      173.876      198.848      242.151        0.375        0.031       81.733        7.760        0.009      332.969        1.977      867.145
03/08/2014  03:03:00      -73.255      -31.909      -10.919       13.054       16.823       12.349      170.411      283.006      152.506        0.355        0.030       79.903        7.244        0.008      333.092        2.180      867.140
03/08/2014  03:04:00      -85.101      -39.607      -12.291       17.790       15.173       12.302      316.497      230.220      151.345        0.483        0.035       93.866        7.125        0.006      333.070        2.144      867.129
03/08/2014  03:05:00     -106.729      -30.864      -16.040       13.402       11.035        9.008      179.605      121.763       81.151        0.649        0.019      111.102        6.203        0.003      333.006        2.037      867.125
03/08/2014  03:06:00     -111.925      -37.659      -17.826       11.874       10.606        9.128      140.987      112.489       83.328        0.730        0.017      118.091        4.472        0.001      332.972        1.982      867.128
03/08/2014  03:07:00     -105.108      -30.303      -13.832       13.578       12.163        8.574      184.358      147.948       73.507        0.628        0.020      109.389        4.828        0.002      333.057        2.121      867.133
03/08/2014  03:08:00     -113.888      -40.032       -6.133       25.582       16.893       11.425      654.433      285.382      130.525        0.784        0.054      120.718       12.012        0.010      333.096        2.186      867.128
03/08/2014  03:09:00     -107.211      -34.083       -7.902       18.085       17.974       14.562      327.062      323.071      212.054        0.679        0.043      112.498       10.695        0.009      333.081        2.163      867.119
03/08/2014  03:10:00     -114.517      -36.314       -8.077       16.049       17.821       11.544      257.578      317.588      133.270        0.760        0.035      120.137        7.616        0.004      333.054        2.119      867.102
03/08/2014  03:11:00      -95.246      -32.773       -1.696       25.603       17.358       16.090      655.489      301.293      258.873        0.568        0.061      100.727       14.794        0.022      333.010        2.046      867.093
03/08/2014  03:12:00      -94.881      -40.219       -4.793       18.729       16.062        9.807      350.779      257.981       96.170        0.567        0.035      103.053        8.005        0.006      333.041        2.096      867.073
03/08/2014  03:13:00      -94.191      -22.410       -9.373       16.534       18.959       11.044      273.374      359.431      121.974        0.511        0.038       96.821        9.258        0.009      332.973        1.983      867.056
03/08/2014  03:14:00     -100.202      -24.355      -11.425       12.067       13.297       11.132      145.622      176.800      123.911        0.561        0.022      103.119        7.660        0.006      332.995        2.019      867.038
03/08/2014  03:15:00      -92.098      -29.751      -11.341       16.571       12.789       11.370      274.595      163.567      129.270        0.503        0.028       96.784       10.024        0.011      333.067        2.139      867.018
03/08/2014  03:16:00      -94.321      -31.841       -6.645       12.220       12.979       10.923      149.321      168.442      119.315        0.520        0.022       99.551        9.018        0.008      333.012        2.049      866.996
03/08/2014  03:17:00      -84.838      -33.083      -16.252       12.530       12.951       10.162      156.994      167.722      103.273        0.449        0.021       91.060        4.735        0.003      332.996        2.023      866.987
03/08/2014  03:18:00     -107.190      -20.784      -16.459       12.842       11.117        9.657      164.910      123.597       93.258        0.629        0.019      109.186        7.051        0.004      332.939        1.929      866.991
03/08/2014  03:19:00      -91.095      -31.714      -12.056       13.153       12.797       10.714      172.991      163.767      114.783        0.495        0.023       96.458        7.615        0.006      332.938        1.926      866.986
03/08/2014  03:20:00      -86.698      -33.350      -11.612       13.745       12.312        9.887      188.927      151.589       97.750        0.460        0.022       92.891        4.388        0.002      332.942        1.934      866.986
03/08/2014  03:21:00      -82.115      -34.418      -12.612        9.717       10.808       10.238       94.412      116.816      104.822        0.420        0.016       89.037        4.414        0.002      332.940        1.931      866.992
03/08/2014  03:22:00      -84.286      -39.671      -17.468        9.254        7.012        6.189       85.631       49.172       38.303        0.458        0.009       93.155        3.773        0.002      332.900        1.867      867.000
03/08/2014  03:23:00      -82.456      -32.867      -14.299        9.302        8.263        5.696       86.525       68.280       32.441        0.414        0.009       88.765        3.884        0.002      332.899        1.863      867.008
03/08/2014  03:24:00      -78.193      -29.205      -12.789       10.742       10.047        8.451      115.400      100.933       71.415        0.371        0.014       83.469        4.016        0.002      332.967        1.974      867.015
03/08/2014  03:25:00      -83.583      -39.495      -15.713        8.424        8.811        7.886       70.969       77.627       62.189        0.450        0.011       92.445        3.979        0.002      332.960        1.963      867.023
03/08/2014  03:26:00     -107.183      -35.698      -15.036       11.634       15.342       11.317      135.350      235.375      128.076        0.674        0.025      112.971        5.565        0.002      332.927        1.909      867.033
03/08/2014  03:27:00     -110.738      -40.703      -16.758        8.526       15.512       10.251       72.700      240.615      105.092        0.731        0.021      117.981        5.078        0.002      332.907        1.878      867.042
03/08/2014  03:28:00     -100.818      -29.080      -10.859       17.857       13.362       10.023      318.889      178.556      100.457        0.586        0.030      104.929        7.940        0.006      332.953        1.951      867.054
03/08/2014  03:29:00      -94.542      -18.690       -9.923       16.668       12.112       11.575      277.832      146.712      133.989        0.497        0.028       96.372        7.066        0.005      332.898        1.861      867.062
03/08/2014  03:30:00     -100.908      -23.452      -12.882       11.943       10.869        8.863      142.631      118.142       78.554        0.562        0.017      103.597        5.291        0.003      333.006        2.038      867.062
03/08/2014  03:31:00      -88.960      -23.413       -7.100       13.216       10.987       10.185      174.673      120.710      103.741        0.446        0.020       91.989        5.123        0.003      333.041        2.096      867.064
03/08/2014  03:32:00      -84.249      -34.613       -6.630       20.671       14.032       13.461      427.300      196.893      181.185        0.457        0.040       91.083       11.580        0.016      332.996        2.022      867.073
03/08/2014  03:33:00      -71.633      -31.047       -3.205       28.176       14.396       14.042      793.876      207.239      197.171        0.365        0.060       78.071       14.244        0.033      332.918        1.894      867.094
03/08/2014  03:34:00      -85.196      -17.141      -10.892       16.431       17.268       14.791      269.968      298.173      218.784        0.423        0.039       86.903       11.622        0.018      332.929        1.912      867.102
03/08/2014  03:35:00      -89.370        0.191      -14.085       12.431       10.317        7.791      154.542      106.449       60.700        0.425        0.016       89.371        4.591        0.003      332.900        1.865      867.089
03/08/2014  03:36:00      -61.926      -35.680      -10.267       17.516        9.769        8.538      306.793       95.430       72.906        0.284        0.024       71.469        7.073        0.010      332.894        1.853      867.111
03/08/2014  03:37:00     -103.978      -40.767       -8.050       30.804       12.643       14.110      948.891      159.848      199.087        0.692        0.065      111.684       16.016        0.021      332.943        1.935      867.133
03/08/2014  03:38:00     -120.447      -40.732      -16.071       12.454       14.498        9.702      155.092      210.186       94.128        0.844        0.023      127.148        7.725        0.004      332.927        1.908      867.136
03/08/2014  03:39:00      -75.720      -23.114      -10.917       14.055       12.249       11.115      197.536      150.036      123.551        0.343        0.024       79.170        5.526        0.005      332.869        1.814      867.155
03/08/2014  03:40:00      -73.514      -35.615      -14.344       17.296       10.742       13.166      299.157      115.391      173.352        0.373        0.029       81.687        5.208        0.004      332.891        1.848      867.169
03/08/2014  03:41:00       -2.511      -30.583       12.539       39.019       28.635       22.287     1522.488      819.936      496.709        0.197        0.142       30.686       27.170        0.784      332.912        1.884      867.188
03/08/2014  03:42:00     -106.206      -36.615       -9.423       24.868       21.823       13.603      618.423      476.224      185.044        0.699        0.064      112.340        6.302        0.003      332.950        1.946      867.176
03/08/2014  03:43:00     -113.336       -7.731      -12.807       24.402       16.411       15.303      595.463      269.312      234.175        0.708        0.055      113.599       14.128        0.015      332.848        1.780      867.181
03/08/2014  03:44:00      -70.988        4.834      -13.349       17.805       13.113       12.170      317.003      171.941      148.104        0.294        0.032       71.153        7.176        0.010      332.889        1.847      867.199
03/08/2014  03:45:00      -66.099      -17.983       -7.782       22.531       13.539       11.558      507.626      183.296      133.591        0.279        0.041       68.502       11.406        0.028      332.940        1.929      867.216
03/08/2014  03:46:00      -96.658      -51.016      -10.949       26.392       15.443        9.506      696.524      238.474       90.363        0.655        0.051      109.296        6.763        0.004      332.923        1.902      867.239
03/08/2014  03:47:00     -109.434      -41.223      -13.053        9.713       11.962        9.105       94.341      143.086       82.894        0.708        0.016      116.941        5.631        0.002      332.975        1.987      867.255
03/08/2014  03:48:00      -94.338      -37.506       -6.215       16.868       20.699       13.030      284.532      428.429      169.769        0.561        0.044      101.520       10.909        0.012      332.971        1.981      867.262
03/08/2014  03:49:00      -98.714       -9.949      -14.732       29.038       19.182       16.200      843.220      367.964      262.431        0.577        0.074       99.214       14.144        0.020      332.915        1.888      867.261
03/08/2014  03:50:00     -113.309      -15.019      -12.942       19.731       12.101       10.889      389.310      146.431      118.579        0.694        0.033      114.300       10.840        0.009      332.808        1.712      867.258
03/08/2014  03:51:00     -107.200      -31.055      -10.281       18.699       13.146       11.009      349.663      172.821      121.191        0.660        0.032      111.608        9.961        0.008      332.840        1.765      867.273
03/08/2014  03:52:00     -128.950      -45.963       -9.828       17.433       13.715       10.133      303.926      188.100      102.673        0.972        0.030      136.897       11.368        0.007      332.866        1.810      867.282
03/08/2014  03:53:00     -115.191      -87.946       -6.820       63.656       41.504       33.479     4052.074     1722.552     1120.876        1.397        0.345      144.926       34.201        0.056      332.820        1.732      867.291
03/08/2014  03:54:00     -126.587      -61.957       -6.009       65.791       38.267       27.929     4328.472     1464.336      780.020        1.323        0.329      140.936       26.146        0.034      332.766        1.641      867.289
03/08/2014  03:55:00      -79.531      -10.308        2.766       27.262       22.949       20.007      743.199      526.650      400.269        0.405        0.084       80.196       14.810        0.034      332.744        1.606      867.284
03/08/2014  03:56:00      -54.729      -19.812       -4.787       22.078       13.387        9.021      487.417      179.215       81.375        0.208        0.037       58.205        4.754        0.007      332.812        1.717      867.288
03/08/2014  03:57:00     -109.769      -42.720      -11.092       18.600       22.042       12.558      345.964      485.865      157.700        0.749        0.049      117.789        5.351        0.002      332.822        1.736      867.288
03/08/2014  03:58:00     -106.922      -70.323      -10.904       40.836       23.541       22.151     1667.589      554.188      490.666        0.960        0.136      127.975       21.586        0.028      332.746        1.610      867.286
03/08/2014  03:59:00      -64.975      -47.823        0.346       32.854       25.330       19.852     1079.368      641.624      394.120        0.431        0.106       80.677       19.898        0.061      332.764        1.639      867.294
03/08/2014  04:00:00      -47.045      -29.479        4.493       31.241       16.173       19.784      975.996      261.576      391.389        0.237        0.081       55.518       11.851        0.046      332.764        1.641      867.314
03/08/2014  04:01:00      -70.906      -47.565       -0.717       36.041       20.348       13.829     1298.940      414.026      191.231        0.460        0.095       85.382       11.420        0.018      332.877        1.826      867.323
03/08/2014  04:02:00     -102.607      -41.572       -6.755       16.216       13.112        8.509      262.946      171.931       72.410        0.640        0.025      110.709        8.614        0.006      332.872        1.816      867.325
03/08/2014  04:03:00      -63.434      -31.008       -3.823       20.046       15.753       12.064      401.859      248.142      145.529        0.290        0.040       70.607        8.035        0.013      332.841        1.768      867.336
03/08/2014  04:04:00      -61.554      -37.878        2.189       28.884       16.810       16.918      834.259      282.569      286.206        0.332        0.070       72.275       17.416        0.058      332.725        1.575      867.333
03/08/2014  04:05:00      -34.789      -21.418        9.010       39.174       19.456       22.160     1534.634      378.535      491.079        0.208        0.120       40.854       21.658        0.281      332.714        1.557      867.341
03/08/2014  04:06:00      -51.524      -30.306        3.854       31.591       22.429       14.169      998.019      503.057      200.767        0.264        0.085       59.776       14.488        0.059      332.709        1.548      867.348
03/08/2014  04:07:00      -59.700      -39.891        1.699       24.737       23.848       15.470      611.903      568.725      239.322        0.329        0.071       71.801       12.884        0.032      332.730        1.582      867.342
03/08/2014  04:08:00      -57.706      -28.306        2.098       42.159       22.112       19.601     1777.403      488.953      384.210        0.339        0.133       64.274       14.978        0.054      332.743        1.605      867.333
03/08/2014  04:09:00      -85.809      -54.024       -1.685       27.268       24.276       20.078      743.563      589.345      403.142        0.601        0.087      101.399       14.502        0.020      332.755        1.625      867.334
03/08/2014  04:10:00      -73.569      -54.924        0.593       24.351       21.197       14.509      592.969      449.326      210.523        0.484        0.063       91.810       15.341        0.028      332.763        1.638      867.342
03/08/2014  04:11:00      -86.329      -38.928       -6.068       16.671       10.440       10.349      277.921      108.994      107.092        0.475        0.025       94.700        6.839        0.005      332.728        1.582      867.348
03/08/2014  04:12:00      -84.382      -40.666      -10.237       25.733       16.404       12.857      662.173      269.105      165.315        0.499        0.055       93.670        7.162        0.006      332.814        1.724      867.354
03/08/2014  04:13:00      -58.551      -44.211       -4.457       35.849       22.971       16.232     1285.157      527.685      263.487        0.374        0.104       73.368        9.619        0.017      332.806        1.708      867.366
03/08/2014  04:14:00     -111.900      -31.100       -9.832       17.175       16.468        9.442      294.973      271.203       89.155        0.712        0.033      116.142        8.014        0.005      332.724        1.573      867.376
03/08/2014  04:15:00      -97.085      -26.271      -11.287       17.041       16.842       12.535      290.412      283.665      157.115        0.549        0.037      100.576        9.660        0.009      332.779        1.664      867.380
03/08/2014  04:16:00      -97.345      -40.050      -12.497        7.286       10.913        6.708       53.081      119.083       44.998        0.573        0.011      105.262        2.964        0.001      332.769        1.649      867.378
03/08/2014  04:17:00      -92.776      -45.098       -3.404       17.180       14.819       11.656      295.163      219.591      135.851        0.565        0.033      103.157       11.841        0.013      332.830        1.747      867.377
03/08/2014  04:18:00     -103.190      -35.634       -8.227       15.202       16.340       12.084      231.102      266.990      146.021        0.631        0.032      109.169       10.136        0.009      332.782        1.669      867.371
03/08/2014  04:19:00     -108.301      -35.436       -7.175       17.979       14.631       12.767      323.234      214.060      162.997        0.687        0.035      113.951        6.167        0.003      332.800        1.699      867.380
03/08/2014  04:20:00     -114.053      -40.037      -10.961       14.401       15.136       12.182      207.402      229.109      148.392        0.766        0.029      120.877        6.553        0.003      332.604        1.374      867.386
03/08/2014  04:21:00     -108.274      -60.093      -13.357       15.503       14.650       10.393      240.348      214.613      108.022        0.804        0.028      123.832        3.202        0.001      332.677        1.494      867.405
03/08/2014  04:22:00     -101.002      -61.810      -12.262       31.227       24.759       16.241      975.103      613.001      263.773        0.801        0.093      118.414       12.082        0.010      332.667        1.479      867.412
03/08/2014  04:23:00     -112.108      -61.480       -0.762       27.249       24.373       15.868      742.491      594.045      251.801        0.897        0.079      127.859       15.849        0.015      332.614        1.392      867.426
03/08/2014  04:24:00      -95.919      -56.109       -0.852       34.098       24.128       21.488     1162.691      582.148      461.745        0.728        0.110      111.125       18.377        0.027      332.596        1.361      867.440
03/08/2014  04:25:00     -108.769      -57.522      -11.107       39.089       20.367       15.900     1527.976      414.794      252.823        0.873        0.110      123.042       15.019        0.015      332.567        1.313      867.454
03/08/2014  04:26:00      -99.491      -23.440       -5.238       27.569       20.080       12.956      760.025      403.200      167.865        0.590        0.067      102.215       12.771        0.016      332.582        1.338      867.468
03/08/2014  04:27:00     -106.949      -29.200      -11.948       26.164       18.261       16.171      684.557      333.479      261.494        0.686        0.064      110.864       14.066        0.016      332.592        1.354      867.466
03/08/2014  04:28:00     -104.405      -30.761       -2.052       26.580       23.565       15.737      706.482      555.328      247.644        0.668        0.075      108.842       13.334        0.015      332.517        1.229      867.463
03/08/2014  04:29:00     -119.308      -25.073       -7.174       30.935       20.656       16.793      957.001      426.665      281.993        0.829        0.083      121.914       18.214        0.022      332.547        1.280      867.465
03/08/2014  04:30:00     -105.946      -47.546       -2.349       19.649       19.991       14.126      386.102      399.642      199.542        0.724        0.049      116.126       12.198        0.011      332.568        1.314      867.482
03/08/2014  04:31:00     -110.706      -50.524      -13.423       11.854       18.017       10.809      140.519      324.602      116.832        0.779        0.029      121.690        6.437        0.003      332.593        1.356      867.493
03/08/2014  04:32:00     -100.393      -28.949      -15.036        8.436        9.278        7.824       71.160       86.080       61.208        0.568        0.011      104.483        4.219        0.002      332.532        1.254      867.502
03/08/2014  04:33:00      -93.642      -24.383      -21.657        8.501        7.700        7.656       72.264       59.289       58.608        0.501        0.010       96.765        3.781        0.002      332.509        1.218      867.508
03/08/2014  04:34:00      -74.829      -36.869      -15.515       13.383       12.479        9.144      179.100      155.736       83.604        0.381        0.021       83.419        6.123        0.005      332.483        1.175      867.517
03/08/2014  04:35:00      -55.886      -41.789       -7.300       20.337       13.943       13.938      413.578      194.418      194.269        0.286        0.040       69.782        5.287        0.006      332.588        1.349      867.515
03/08/2014  04:36:00      -74.451      -37.150      -14.426       16.984       19.150       10.832      288.454      366.732      117.335        0.395        0.039       83.205        9.247        0.012      332.488        1.182      867.515
03/08/2014  04:37:00      -85.555      -35.677      -20.263       20.240       22.803       15.339      409.668      519.962      235.289        0.508        0.058       92.696        7.541        0.007      332.454        1.126      867.505
03/08/2014  04:38:00     -101.344      -34.288      -14.739       16.652       23.634       13.707      277.289      558.588      187.884        0.634        0.051      106.987       11.753        0.012      332.422        1.074      867.496
03/08/2014  04:39:00      -79.123      -35.123      -12.781       22.567       29.454       13.348      509.258      867.553      178.173        0.461        0.078       86.569       10.203        0.014      332.455        1.129      867.494
03/08/2014  04:40:00      -63.371      -37.137       -8.230       19.344       16.095       13.006      374.187      259.056      169.165        0.313        0.040       73.451        6.317        0.007      332.476        1.164      867.502
03/08/2014  04:41:00      -48.137      -37.129      -12.358       32.079       19.978       14.742     1029.059      399.104      217.335        0.275        0.082       60.793        7.020        0.013      332.513        1.224      867.502
03/08/2014  04:42:00      -81.136      -47.385      -15.681       17.979       14.996       12.979      323.238      224.878      168.457        0.490        0.036       93.959        2.239        0.001      332.464        1.143      867.505
03/08/2014  04:43:00      -86.269      -30.194      -12.113       16.280       19.093       12.412      265.049      364.560      154.052        0.464        0.039       91.401        9.027        0.010      332.466        1.148      867.512
03/08/2014  04:44:00      -94.482      -44.539      -16.053       18.517       16.466       11.458      342.870      271.131      131.277        0.596        0.037      104.454        9.151        0.008      332.366        0.980      867.512
03/08/2014  04:45:00      -90.933      -44.054       -9.402       15.845       18.622       14.357      251.070      346.794      206.135        0.555        0.040      101.042       10.596        0.011      332.373        0.993      867.507
03/08/2014  04:46:00      -80.248      -45.527      -15.250       15.618       11.511        9.056      243.917      132.509       82.013        0.460        0.023       92.263        3.424        0.001      332.388        1.017      867.516
03/08/2014  04:47:00      -99.687      -59.151      -14.864       18.934       16.929       13.621      358.485      286.598      185.543        0.724        0.042      115.915        7.006        0.004      332.408        1.051      867.517
03/08/2014  04:48:00     -133.505      -49.762       -4.787       20.713       19.562       16.707      429.028      382.668      279.122        1.071        0.055      142.477       11.206        0.006      332.370        0.989      867.510
03/08/2014  04:49:00     -102.102      -67.149       -2.004       36.939       21.029       22.485     1364.470      442.206      505.584        0.862        0.116      122.204       21.986        0.032      332.446        1.113      867.501
03/08/2014  04:50:00      -79.552      -53.459        1.334       37.709       32.819       25.498     1421.996     1077.068      650.136        0.617        0.157       95.846       18.951        0.039      332.428        1.084      867.498
03/08/2014  04:51:00      -93.178      -62.289        4.149       43.783       32.328       25.203     1916.968     1045.081      635.199        0.809        0.180      112.080       16.100        0.021      332.406        1.048      867.498
03/08/2014  04:52:00     -118.136      -58.665       -3.598       41.604       26.143       20.226     1730.925      683.462      409.081        1.012        0.141      131.900       13.113        0.010      332.458        1.134      867.490
03/08/2014  04:53:00      -82.858      -46.833       -6.803       40.968       35.776       25.347     1678.358     1279.893      642.454        0.635        0.180       95.177       23.863        0.063      332.489        1.184      867.483
03/08/2014  04:54:00     -116.892      -51.946       -2.326       37.493       30.279       21.488     1405.715      916.820      461.723        0.958        0.139      127.915       18.285        0.020      332.423        1.075      867.484
03/08/2014  04:55:00     -109.269      -73.780       -5.431       40.900       40.806       19.697     1672.800     1665.121      387.988        1.057        0.186      131.845       17.738        0.018      332.449        1.119      867.488
03/08/2014  04:56:00     -124.869      -49.444       -2.652       25.759       33.392       18.059      663.538     1115.042      326.126        1.007        0.105      134.301       13.786        0.011      332.409        1.052      867.494
03/08/2014  04:57:00     -136.048      -48.416       -4.800       30.294       27.421       17.509      917.753      751.887      306.569        1.143        0.099      144.406       15.013        0.011      332.403        1.044      867.493
03/08/2014  04:58:00     -139.444      -49.479       -6.129       26.439       28.517       15.657      699.036      813.235      245.142        1.184        0.088      147.963       12.054        0.007      332.401        1.040      867.492
03/08/2014  04:59:00     -126.733      -44.625       -1.957       50.127       35.038       22.178     2512.748     1227.643      491.855        1.114        0.212      134.360       24.302        0.033      332.452        1.124      867.492
03/08/2014  05:00:00     -140.460      -40.054        1.017       52.327       31.274       23.220     2738.162      978.044      539.154        1.279        0.213      146.060       28.485        0.038      332.419        1.070      867.493
03/08/2014  05:01:00     -142.891      -53.998        1.183       39.045       41.556       16.324     1524.498     1726.889      266.464        1.343        0.176      152.754       16.277        0.011      332.405        1.046      867.499
03/08/2014  05:02:00     -153.625      -47.317        0.456       38.519       35.793       28.328     1483.708     1281.148      802.452        1.470        0.178      160.747       27.244        0.029      332.422        1.074      867.507
03/08/2014  05:03:00     -121.739      -60.462        5.216       36.199       27.286       21.816     1310.394      744.539      475.955        1.052        0.127      135.927       21.501        0.025      332.430        1.086      867.510
03/08/2014  05:04:00     -121.845      -62.366        0.259       39.431       32.265       21.228     1554.820     1041.023      450.616        1.089        0.152      136.879       19.656        0.021      332.463        1.141      867.505
03/08/2014  05:05:00     -143.112      -56.342       -6.179       28.938       25.451       18.338      837.412      647.740      336.271        1.276        0.091      153.803       16.943        0.012      332.434        1.093      867.492
03/08/2014  05:06:00      -97.568      -62.714        1.327       50.269       25.448       20.131     2527.017      647.617      405.250        0.852        0.179      115.985       24.789        0.046      332.433        1.091      867.487
03/08/2014  05:07:00     -134.636      -50.316       -4.103       27.439       28.182       16.332      752.905      794.248      266.749        1.124        0.091      143.731       14.730        0.011      332.406        1.048      867.487
03/08/2014  05:08:00     -121.397      -48.999      -12.792       14.388       17.100       12.216      207.003      292.411      149.239        0.898        0.032      130.913        4.438        0.001      332.445        1.112      867.497
03/08/2014  05:09:00     -128.834      -56.607       -8.199       26.728       23.319       20.882      714.394      543.775      436.058        1.078        0.085      140.722       16.742        0.014      332.410        1.054      867.508
03/08/2014  05:10:00     -128.528      -58.962       -7.702       24.848       25.654       14.584      617.411      658.120      212.690        1.077        0.074      141.407        9.255        0.004      332.374        0.996      867.515
03/08/2014  05:11:00     -138.476      -48.258       -2.407       30.672       17.368       15.058      940.786      301.644      226.757        1.149        0.073      146.644       11.983        0.007      332.369        0.987      867.505
03/08/2014  05:12:00     -134.457      -60.735       -5.546       25.104       23.871       15.294      630.221      569.810      233.918        1.162        0.072      147.538       11.372        0.006      332.384        1.012      867.501
03/08/2014  05:13:00     -149.813      -49.709       -5.864       18.686       22.985       16.669      349.174      528.324      277.855        1.305        0.058      157.844        7.939        0.003      332.337        0.934      867.510
03/08/2014  05:14:00     -136.095      -47.927       -2.255       28.955       26.505       17.582      838.397      702.539      309.114        1.134        0.093      144.288       13.997        0.009      332.321        0.909      867.512
03/08/2014  05:15:00     -114.003      -53.630       -3.749       23.137       22.712       18.605      535.344      515.850      346.151        0.864        0.070      125.988       12.618        0.010      332.345        0.946      867.520
03/08/2014  05:16:00     -115.963      -55.621      -12.293       23.489       24.288       16.853      551.735      589.899      284.020        0.906        0.071      128.613       14.343        0.012      332.284        0.846      867.534
03/08/2014  05:17:00     -108.551      -55.296       -1.657       42.784       23.969       22.249     1830.444      574.530      495.035        0.887        0.145      121.824       24.990        0.042      332.312        0.894      867.537
03/08/2014  05:18:00      -94.641      -60.062        0.694       37.709       22.443       22.706     1421.941      503.706      515.546        0.750        0.122      112.091       22.324        0.040      332.286        0.850      867.542
03/08/2014  05:19:00      -74.711      -50.010       -2.707       37.926       25.262       21.091     1438.358      638.158      444.838        0.531        0.126       89.904       19.676        0.048      332.319        0.904      867.541
03/08/2014  05:20:00      -90.513      -65.085        0.529       35.419       26.522       22.702     1254.480      703.403      515.380        0.745        0.124      111.484       19.791        0.032      332.287        0.853      867.547
03/08/2014  05:21:00     -103.786      -59.082      -10.810       33.205       21.006       14.782     1102.564      441.236      218.497        0.807        0.088      119.424       14.407        0.015      332.296        0.866      867.551
03/08/2014  05:22:00      -86.047      -62.977        2.213       28.675       22.545       20.754      822.265      508.256      430.721        0.657        0.088      106.631        8.890        0.007      332.324        0.912      867.560
03/08/2014  05:23:00     -106.472      -60.389       -4.839       25.961       28.002       16.589      673.972      784.119      275.183        0.837        0.087      122.406        9.117        0.006      332.336        0.933      867.568
03/08/2014  05:24:00     -119.985      -53.160       -3.958       27.698       19.926       16.636      767.184      397.053      276.749        0.934        0.072      131.234       13.481        0.011      332.300        0.873      867.583
03/08/2014  05:25:00     -103.104      -58.968        2.337       35.912       24.635       22.283     1289.703      606.879      496.512        0.825        0.120      118.776       17.891        0.023      332.305        0.882      867.599
03/08/2014  05:26:00      -96.151      -52.119        4.187       36.423       23.201       19.894     1326.635      538.282      395.768        0.712        0.113      109.369       21.106        0.037      332.329        0.921      867.609
03/08/2014  05:27:00      -98.877      -50.266       -3.950       14.626       18.403       13.940      213.922      338.664      194.312        0.653        0.037      110.920        8.665        0.006      332.439        1.102      867.603
03/08/2014  05:28:00      -92.167      -33.685       -6.532       22.592       24.608       14.941      510.398      605.577      223.247        0.551        0.067       98.130       12.381        0.016      332.356        0.965      867.597
03/08/2014  05:29:00     -105.192      -45.905       -3.956       23.748       18.559       12.936      563.952      344.419      167.351        0.713        0.054      114.773       11.426        0.010      332.324        0.913      867.591
03/08/2014  05:30:00     -109.244      -39.574       -4.288       32.756       28.962       15.854     1072.973      838.787      251.348        0.784        0.108      116.192       16.770        0.021      332.351        0.958      867.594
03/08/2014  05:31:00     -107.148      -34.575        3.688       23.859       18.315       12.614      569.267      335.452      159.106        0.688        0.053      112.588       11.428        0.010      332.369        0.988      867.607
03/08/2014  05:32:00      -98.293      -34.146      -13.323       17.027       16.882       11.684      289.930      285.005      136.517        0.586        0.036      104.055        5.191        0.002      332.341        0.940      867.607
03/08/2014  05:33:00     -115.878      -48.036      -12.591       17.946       14.875       10.182      322.048      221.265      103.665        0.827        0.032      125.440        8.262        0.004      332.325        0.915      867.612
03/08/2014  05:34:00     -122.244      -57.372       -6.809       17.564       18.543       13.164      308.481      343.827      173.278        0.955        0.041      135.038        6.011        0.002      332.245        0.784      867.627
03/08/2014  05:35:00     -101.207      -46.662        1.483       30.199       22.367       25.338      911.966      500.262      642.038        0.724        0.103      111.446       22.374        0.040      332.191        0.694      867.622
03/08/2014  05:36:00      -87.203      -54.270        1.887       36.568       21.323       23.519     1337.216      454.678      553.150        0.645        0.117      102.711       23.090        0.051      332.234        0.766      867.619
03/08/2014  05:37:00      -93.945      -62.366       -2.006       29.226       18.959       17.306      854.174      359.461      299.505        0.712        0.076      112.761       15.054        0.018      332.277        0.837      867.613
03/08/2014  05:38:00      -43.972      -38.271        4.306       42.517       19.052       14.855     1807.706      362.968      220.669        0.290        0.120       58.294       17.183        0.087      332.324        0.912      867.605
03/08/2014  05:39:00      -77.070      -52.062       -3.563       38.192       20.917       18.463     1458.596      437.525      340.881        0.545        0.112       93.006       16.833        0.033      332.252        0.793      867.592
03/08/2014  05:40:00     -100.249      -51.528      -10.204       28.797       16.829       17.546      829.287      283.219      307.854        0.711        0.071      112.716       18.943        0.028      332.252        0.794      867.578
03/08/2014  05:41:00      -75.301      -43.199        5.684       31.764       26.058       18.044     1008.968      679.032      325.590        0.479        0.101       86.812       15.710        0.033      332.206        0.718      867.566
03/08/2014  05:42:00      -94.300      -55.359        0.505       23.757       19.458       18.956      564.386      378.631      359.321        0.663        0.065      109.349       14.725        0.018      332.217        0.737      867.569
03/08/2014  05:43:00      -52.122      -41.032        3.490       32.837       26.383       21.122     1078.243      696.087      446.143        0.332        0.111       66.336       13.827        0.043      332.238        0.772      867.585
03/08/2014  05:44:00      -49.851      -37.591        9.971       37.092       27.549       17.292     1375.803      758.932      299.030        0.322        0.122       62.435       18.782        0.090      332.200        0.709      867.605
03/08/2014  05:45:00      -66.114      -44.409        5.441       42.812       25.917       23.694     1832.867      671.671      561.423        0.472        0.153       79.644       18.568        0.054      332.231        0.759      867.609
03/08/2014  05:46:00      -76.822      -49.203        2.391       39.467       31.367       23.623     1557.651      983.912      558.060        0.571        0.155       91.228       21.959        0.058      332.176        0.668      867.622
03/08/2014  05:47:00      -97.178      -53.888       -0.000       54.233       31.452       23.849     2941.236      989.236      568.754        0.842        0.225      111.120       27.617        0.062      332.221        0.743      867.630
03/08/2014  05:48:00      -83.703      -48.969        3.986       44.405       29.027       26.375     1971.784      842.550      695.649        0.646        0.175       96.975       27.743        0.082      332.209        0.723      867.634
03/08/2014  05:49:00      -57.285      -46.849        8.577       51.217       32.086       26.219     2623.158     1029.538      687.456        0.494        0.217       74.003       19.244        0.068      332.226        0.751      867.647
03/08/2014  05:50:00      -83.156      -63.578        9.133       53.388       34.494       31.428     2850.264     1189.869      987.745        0.803        0.251      104.677       28.051        0.072      332.218        0.739      867.660
03/08/2014  05:51:00      -91.180      -62.182        7.006       57.863       38.208       25.287     3348.155     1459.856      639.446        0.884        0.272      110.365       27.949        0.064      332.215        0.732      867.666
03/08/2014  05:52:00      -89.322      -53.108        8.266       49.286       34.506       25.466     2429.086     1190.675      648.497        0.757        0.213      103.918       24.846        0.057      332.254        0.798      867.667
03/08/2014  05:53:00      -58.314      -45.968       12.107       54.449       30.324       23.302     2964.703      919.563      542.990        0.504        0.221       74.253       23.347        0.099      332.260        0.807      867.675
03/08/2014  05:54:00      -88.914      -50.298        7.734       44.237       32.081       25.743     1956.904     1029.177      662.709        0.707        0.182      102.155       21.550        0.045      332.243        0.779      867.684
03/08/2014  05:55:00      -96.394      -61.010        8.410       47.539       37.305       23.722     2259.982     1391.629      562.733        0.865        0.211      114.079       20.533        0.032      332.169        0.657      867.702
03/08/2014  05:56:00      -81.412      -56.749        7.491       55.042       25.902       23.763     3029.602      670.893      564.682        0.708        0.213       99.239       28.191        0.081      332.163        0.647      867.717
03/08/2014  05:57:00     -112.438      -69.595        1.960       45.927       26.619       23.219     2109.268      708.560      539.125        1.042        0.168      132.234       26.027        0.039      332.120        0.577      867.720
03/08/2014  05:58:00     -125.737      -71.248       -7.746       32.911       29.364       22.360     1083.127      862.244      499.977        1.170        0.122      144.520       17.174        0.014      332.234        0.766      867.737
03/08/2014  05:59:00     -118.994      -68.247        3.611       38.116       29.892       25.075     1452.808      893.521      628.744        1.090        0.149      137.176       21.072        0.024      332.222        0.745      867.752
03/08/2014  06:00:00     -140.237      -52.367       -2.630       37.911       25.812       19.521     1437.253      666.259      381.076        1.245        0.124      149.695       19.821        0.018      332.192        0.695      867.763
03/08/2014  06:01:00     -134.204      -64.763       -3.554       39.078       26.589       18.822     1527.112      706.992      354.274        1.240        0.129      149.013       19.222        0.017      332.093        0.530      867.774
03/08/2014  06:02:00      -88.041      -27.580        8.116       51.903       35.555       21.167     2693.929     1264.157      448.028        0.649        0.220       92.259       22.721        0.061      332.136        0.602      867.777
03/08/2014  06:03:00     -118.414      -44.407       -5.057       42.887       30.819       20.572     1839.262      949.807      423.226        0.962        0.161      126.467       22.638        0.032      332.120        0.577      867.767
03/08/2014  06:04:00     -113.913      -61.707       -3.670       31.010       26.263       16.039      961.594      689.726      257.239        0.935        0.095      129.553       10.108        0.006      332.167        0.655      867.761
03/08/2014  06:05:00     -121.837      -57.072       -3.082       25.786       30.643       15.165      664.904      938.965      229.978        0.997        0.092      134.542       12.473        0.009      332.177        0.671      867.772
03/08/2014  06:06:00     -128.632      -34.236       -6.067       23.201       21.295       16.152      538.286      453.470      260.884        0.950        0.063      133.110       11.545        0.008      332.176        0.669      867.767
03/08/2014  06:07:00     -131.550      -45.330       -4.686       26.507       30.396       16.290      702.604      923.911      265.370        1.064        0.095      139.141       14.316        0.011      332.118        0.574      867.770
03/08/2014  06:08:00     -119.514      -54.799        1.721       40.787       27.700       24.018     1663.587      767.264      576.884        1.015        0.150      131.478       25.593        0.038      332.092        0.530      867.769
03/08/2014  06:09:00     -106.254      -52.353        1.150       40.640       35.858       24.489     1651.637     1285.811      599.691        0.878        0.177      118.451       23.016        0.038      332.067        0.489      867.765
03/08/2014  06:10:00     -118.410      -39.974       -5.988       33.532       37.144       19.544     1124.385     1379.699      381.987        0.927        0.144      124.976       18.966        0.023      332.150        0.626      867.753
03/08/2014  06:11:00     -113.221      -20.443       -8.805       21.582       21.134       16.000      465.770      446.651      256.001        0.724        0.058      115.052       11.555        0.010      332.079        0.507      867.745
03/08/2014  06:12:00     -113.905      -17.356       -7.743       46.532       27.631       17.201     2165.238      763.463      295.885        0.828        0.161      115.220       21.967        0.036      332.004        0.385      867.750
03/08/2014  06:13:00      -87.235      -34.088        4.738       43.613       41.889       22.389     1902.061     1754.721      501.279        0.648        0.208       93.659       16.950        0.033      331.999        0.377      867.766
03/08/2014  06:14:00      -45.933      -17.948       -1.585       51.631       39.248       18.883     2665.751     1540.373      356.554        0.350        0.228       49.315       23.412        0.225      331.984        0.352      867.769
03/08/2014  06:15:00      -51.321      -13.539       -2.024       57.094       49.337       28.565     3259.763     2434.124      815.961        0.466        0.325       53.077       24.903        0.220      332.016        0.405      867.784
03/08/2014  06:16:00     -130.205      -25.141       -2.955       30.638       50.979       22.970      938.714     2598.876      527.635        1.083        0.203      132.610       15.675        0.014      331.986        0.355      867.814
03/08/2014  06:17:00      -93.686      -24.326       -6.590       53.159       35.675       23.420     2825.834     1272.736      548.503        0.703        0.232       96.793       21.546        0.050      332.070        0.494      867.835
03/08/2014  06:18:00      -61.836      -54.181       -3.403       54.474       37.220       24.922     2967.457     1385.342      621.116        0.587        0.249       82.215       25.685        0.098      332.111        0.560      867.852
03/08/2014  06:19:00      -71.306      -67.480        4.380       55.691       36.723       22.414     3101.445     1348.573      502.381        0.730        0.248       98.174       25.534        0.068      332.058        0.474      867.865
03/08/2014  06:20:00     -142.684      -31.024       -7.372       22.308       21.980       16.218      497.635      483.139      263.012        1.131        0.062      146.018       12.587        0.007      332.013        0.400      867.874
03/08/2014  06:21:00      -87.990      -29.181        2.470       40.624       18.901       19.019     1650.336      357.248      361.719        0.548        0.118       92.703       17.904        0.037      332.088        0.524      867.856
03/08/2014  06:22:00     -117.043      -48.855       -6.422       25.485       25.899       17.970      649.486      670.748      322.924        0.888        0.082      126.830       12.345        0.009      332.094        0.533      867.846
03/08/2014  06:23:00     -110.825      -49.040      -11.583       27.818       18.680       18.658      773.842      348.946      348.110        0.815        0.074      121.191       11.692        0.009      332.134        0.599      867.848
03/08/2014  06:24:00      -75.023      -49.827       -1.991       38.603       18.927       17.803     1490.220      358.231      316.937        0.514        0.108       90.062       11.154        0.015      332.120        0.577      867.856
03/08/2014  06:25:00      -59.131      -50.286        4.913       42.843       22.709       20.939     1835.504      515.720      438.429        0.442        0.139       77.622       24.483        0.099      332.106        0.553      867.868
03/08/2014  06:26:00      -45.845      -46.001        9.838       45.366       32.508       24.271     2058.083     1056.784      589.103        0.401        0.185       64.945       21.328        0.108      332.103        0.548      867.895
03/08/2014  06:27:00      -74.516      -77.870        7.452       36.548       33.767       25.813     1335.740     1140.191      666.332        0.741        0.157      107.779       16.040        0.022      332.117        0.572      867.911
03/08/2014  06:28:00      -95.878      -64.625       -6.610       24.974       36.645       19.276      623.722     1342.881      371.545        0.787        0.117      115.624        9.008        0.006      332.127        0.588      867.920
03/08/2014  06:29:00      -74.044      -26.740        4.911       53.225       28.586       17.747     2832.873      817.145      314.943        0.509        0.198       78.725       24.342        0.096      332.190        0.693      867.922
03/08/2014  06:30:00      -40.564      -63.351       -0.302       33.661       37.162       17.726     1133.050     1380.995      314.227        0.424        0.141       75.225       17.645        0.055      332.176        0.668      867.913
03/08/2014  06:31:00      -55.353      -62.563        0.423       22.334       23.726       14.734      498.823      562.927      217.098        0.413        0.064       83.534       12.093        0.021      332.126        0.586      867.924
03/08/2014  06:32:00      -40.721      -29.911       12.038       31.754       19.026       17.559     1008.323      362.003      308.309        0.219        0.084       50.526       18.049        0.128      332.240        0.776      867.918
03/08/2014  06:33:00      -41.468      -78.474        9.476       45.484       47.035       27.358     2068.788     2212.311      748.449        0.650        0.251       88.757       23.672        0.071      332.214        0.730      867.901
03/08/2014  06:34:00     -116.637      -77.207      -12.793       19.342       31.393       17.656      374.114      985.497      311.729        1.070        0.084      139.875       11.306        0.007      332.109        0.559      867.882
03/08/2014  06:35:00      -70.152      -43.492       -3.366       28.943       19.660       14.529      837.671      386.531      211.086        0.413        0.072       82.540       12.715        0.024      332.216        0.736      867.880
03/08/2014  06:36:00       -7.126      -22.055       16.360       26.282       17.480       15.881      690.738      305.556      252.199        0.103        0.062       23.178       12.760        0.303      332.289        0.856      867.884
03/08/2014  06:37:00      -81.101      -70.424       -2.822       49.028       32.304       23.316     2403.743     1043.528      543.641        0.777        0.200      107.410       25.097        0.055      332.202        0.713      867.879
03/08/2014  06:38:00     -104.467      -43.297        2.391       32.739       23.063       19.672     1071.872      531.905      386.990        0.739        0.100      113.085       16.567        0.021      332.238        0.773      867.863
03/08/2014  06:39:00      -48.035      -36.695        2.409       28.339       18.325       18.601      803.084      335.801      346.009        0.257        0.074       60.448       16.113        0.071      332.319        0.903      867.859
03/08/2014  06:40:00      -57.015      -45.128       -7.340       44.947       24.776       17.882     2020.248      613.844      319.771        0.415        0.148       72.714       18.869        0.067      332.371        0.990      867.853
03/08/2014  06:41:00      -54.076      -41.789       -2.933       55.774       29.585       18.398     3110.788      875.257      338.477        0.450        0.216       68.341       22.916        0.112      332.364        0.977      867.847
03/08/2014  06:42:00      -35.025      -33.954        2.968       28.911       20.449       15.102      835.862      418.164      228.082        0.193        0.074       48.782       12.533        0.066      332.363        0.978      867.854
03/08/2014  06:43:00      -20.042      -16.362       -7.495       20.396       14.521        9.411      416.004      210.847       88.562        0.072        0.036       25.873        6.697        0.067      332.353        0.958      867.853
03/08/2014  06:44:00      -17.569        3.620       -6.499        9.661        9.716        5.487       93.332       94.409       30.106        0.029        0.011       17.938        3.782        0.044      332.383        1.011      867.853
03/08/2014  06:45:00      -36.128       -6.457       -0.998       25.930        6.918        7.920      672.343       47.861       62.730        0.107        0.039       36.700        9.196        0.063      332.432        1.090      867.861
03/08/2014  06:46:00      -38.583      -23.999        2.324       20.656       15.214       10.745      426.650      231.454      115.450        0.142        0.039       45.438        9.722        0.046      332.495        1.193      867.854
03/08/2014  06:47:00      -26.256      -21.461        8.455       22.812       12.890       12.782      520.374      166.140      163.389        0.104        0.042       33.911       11.346        0.112      332.484        1.176      867.849
03/08/2014  06:48:00      -36.296      -20.758       -4.556       16.137       10.941        8.708      260.418      119.705       75.836        0.111        0.023       41.813        6.749        0.026      332.467        1.147      867.852
03/08/2014  06:49:00      -66.525      -26.306       -1.009       19.046       20.456        9.190      362.760      418.448       84.461        0.299        0.043       71.538        6.636        0.009      332.419        1.067      867.848
03/08/2014  06:50:00      -48.851      -53.815        1.115       38.740       39.328       21.068     1500.768     1546.666      443.863        0.439        0.175       72.681       24.263        0.111      332.375        0.997      867.845
03/08/2014  06:51:00     -110.441      -71.363       -7.559       18.971       23.701       13.754      359.894      561.726      189.166        0.923        0.056      131.491       11.414        0.008      332.392        1.026      867.835
03/08/2014  06:52:00     -115.076      -34.261        2.312       27.650       27.996       16.034      764.517      783.764      257.104        0.811        0.090      120.068       13.142        0.012      332.414        1.061      867.832
03/08/2014  06:53:00      -71.244      -24.644        1.886       31.367       22.744       20.880      983.906      517.294      435.989        0.381        0.097       75.386       18.698        0.062      332.479        1.169      867.842
03/08/2014  06:54:00      -90.335      -37.414       -2.274       29.657       33.374       15.317      879.528     1113.830      234.618        0.590        0.111       97.776       14.854        0.023      332.461        1.139      867.840
03/08/2014  06:55:00      -84.764      -57.193       -1.915       33.702       23.245       15.879     1135.849      540.337      252.130        0.619        0.096      102.254       13.816        0.018      332.443        1.110      867.832
03/08/2014  06:56:00      -54.837      -34.805        5.961       37.339       28.578       20.284     1394.196      816.689      411.455        0.344        0.131       64.950       18.624        0.082      332.484        1.176      867.817
03/08/2014  06:57:00      -32.327      -32.954        7.126       40.628       30.467       23.577     1650.672      928.256      555.870        0.266        0.157       46.163       18.685        0.164      332.648        1.448      867.796
03/08/2014  06:58:00      -96.943      -46.490       -0.268       35.194       25.479       15.604     1238.629      649.165      243.472        0.684        0.107      107.514       14.796        0.019      332.478        1.167      867.780
03/08/2014  06:59:00      -67.582      -45.949        3.085       49.471       21.655       20.303     2447.340      468.945      412.213        0.501        0.166       81.722       21.991        0.072      332.495        1.194      867.764
03/08/2014  07:00:00      -42.652      -34.317        9.889       64.697       25.326       23.580     4185.731      641.387      556.020        0.424        0.269       54.744       30.794        0.316      332.572        1.321      867.767
03/08/2014  07:01:00      -75.495      -51.002        7.861       57.373       29.390       23.690     3291.710      863.783      561.202        0.654        0.236       91.108       30.171        0.110      332.508        1.217      867.769
03/08/2014  07:02:00      -71.473      -48.660        6.920       52.019       32.475       27.468     2706.007     1054.654      754.476        0.602        0.226       86.465       27.508        0.101      332.514        1.225      867.781
03/08/2014  07:03:00      -91.021      -64.208       11.377       49.209       36.614       26.909     2421.516     1340.573      724.110        0.851        0.224      111.389       27.982        0.063      332.450        1.120      867.791
03/08/2014  07:04:00     -118.117     -132.023       -3.000       37.523       38.218       26.713     1407.988     1460.643      713.585        1.749        0.179      177.149       23.725        0.018      332.290        0.856      867.800
03/08/2014  07:05:00      -65.792      -74.569        5.611       57.693       35.834       31.815     3328.450     1284.105     1012.210        0.777        0.281       99.444       34.898        0.123      332.392        1.025      867.814
03/08/2014  07:06:00      -81.652      -72.755        6.271       46.557       39.753       22.740     2167.546     1580.306      517.122        0.813        0.213      109.363       23.947        0.048      332.425        1.079      867.818
03/08/2014  07:07:00      -63.946      -49.054       -0.007       47.036       29.445       19.979     2212.405      866.999      399.163        0.499        0.174       80.594       19.272        0.057      332.461        1.138      867.831
03/08/2014  07:08:00      -77.525      -44.784       -1.253       67.395       33.884       25.126     4542.060     1148.144      631.298        0.717        0.316       89.531       31.896        0.127      332.486        1.179      867.839
03/08/2014  07:09:00     -133.618      -55.640       -4.353       39.823       31.276       22.559     1585.871      978.163      508.911        1.202        0.154      144.739       20.573        0.020      332.350        0.956      867.856
03/08/2014  07:10:00     -135.414      -32.059      -10.771       45.742       33.060       18.544     2092.307     1092.947      343.880        1.150        0.176      139.157       15.752        0.013      332.415        1.063      867.869
03/08/2014  07:11:00     -124.096      -22.544       -1.732       40.680       30.089       21.175     1654.861      905.324      448.373        0.946        0.150      126.127       16.212        0.017      332.520        1.237      867.869
03/08/2014  07:12:00     -144.807      -44.393       -2.040       45.445       34.880       24.152     2065.247     1216.631      583.314        1.340        0.193      151.459       21.109        0.019      332.495        1.195      867.867
03/08/2014  07:13:00     -149.378      -23.335       -2.097       46.286       39.114       24.465     2142.421     1529.941      598.528        1.357        0.214      151.189       19.425        0.017      332.502        1.205      867.863
03/08/2014  07:14:00     -167.350      -66.066       -6.833       45.712       25.855       24.809     2089.545      668.482      615.489        1.789        0.169      179.919       22.682        0.016      332.454        1.127      867.874
03/08/2014  07:15:00      -77.675      -50.045        6.038       59.441       34.323       29.674     3533.284     1178.085      880.567        0.708        0.280       92.401       31.591        0.117      332.569        1.316      867.885
03/08/2014  07:16:00      -55.601      -19.562       -1.338       52.272       38.944       30.778     2732.361     1516.658      947.299        0.434        0.260       58.941       34.415        0.341      332.676        1.493      867.889
03/08/2014  07:17:00      -95.884       -2.066       -4.340       40.488       28.940       19.215     1639.245      837.502      369.230        0.603        0.142       95.906       20.519        0.046      332.645        1.442      867.910
03/08/2014  07:18:00      -63.473      -35.926       11.193       52.318       29.449       24.753     2737.196      867.249      612.720        0.483        0.211       72.934       27.644        0.144      332.817        1.727      867.934
03/08/2014  07:19:00      -57.438        9.273       -2.558       39.395       16.363       15.515     1551.927      267.760      240.708        0.273        0.103       58.182       20.300        0.122      332.824        1.738      867.954
03/08/2014  07:20:00     -109.865       20.923       -7.159       44.327       21.986       18.011     1964.896      483.396      324.396        0.767        0.139      111.840       20.455        0.033      332.789        1.680      867.975
03/08/2014  07:21:00     -109.454       26.301       -8.339       27.016       20.987       16.505      729.852      440.451      272.409        0.709        0.072      112.570       13.416        0.014      332.833        1.755      867.979
03/08/2014  07:22:00     -116.521       11.145      -13.550       22.052       31.713       13.085      486.291     1005.731      171.209        0.777        0.083      117.053        9.068        0.006      332.947        1.941      867.969
03/08/2014  07:23:00      -43.469        6.451       -5.049       19.952       12.251        9.565      398.095      150.095       91.494        0.130        0.032       43.945        5.993        0.019      333.059        2.126      867.959
03/08/2014  07:24:00      -62.442       -5.180      -14.244       14.791       15.167       10.227      218.782      230.050      104.583        0.234        0.028       62.656        8.951        0.020      333.119        2.226      867.935
03/08/2014  07:25:00      -84.782      -17.174      -15.343       28.950       16.135       12.119      838.104      260.348      146.860        0.448        0.062       86.504       10.189        0.014      333.116        2.219      867.912
03/08/2014  07:26:00      -88.508      -32.375      -13.011       16.351       19.581       12.212      267.348      383.421      149.135        0.493        0.040       94.244        5.083        0.003      333.170        2.307      867.897
03/08/2014  07:27:00      -79.424      -21.853       -9.772       22.214       18.913       11.300      493.447      357.713      127.679        0.393        0.049       82.375        7.589        0.008      333.249        2.440      867.899
03/08/2014  07:28:00      -48.382        1.063        1.112       16.435       16.090       11.993      270.118      258.900      143.826        0.151        0.034       48.394        7.095        0.021      333.396        2.683      867.912
03/08/2014  07:29:00      -20.628       -0.165       -1.009       15.354       11.050        7.491      235.747      122.095       56.116        0.042        0.021       20.628        3.812        0.034      333.492        2.841      867.915
03/08/2014  07:30:00      -17.697        5.074       -5.997        6.486        7.690        4.329       42.069       59.139       18.738        0.025        0.006       18.410        1.677        0.008      333.583        2.994      867.912
03/08/2014  07:31:00      -12.162       19.666        2.947       13.162       22.113       12.172      173.234      488.986      148.159        0.068        0.041       23.123       12.940        0.313      333.935        3.576      867.912
03/08/2014  07:32:00       -6.549       60.425        0.137       13.378       25.326       13.474      178.975      641.409      181.550        0.235        0.050       60.779       11.896        0.038      334.041        3.754      867.906
03/08/2014  07:33:00      -12.192       10.651       17.796       10.096       16.068       10.636      101.920      258.166      113.118        0.053        0.024       16.189        8.981        0.308      334.499        4.513      867.890
03/08/2014  07:34:00      -34.160       -9.884       -9.174        7.331       11.575        7.124       53.747      133.979       50.748        0.079        0.012       35.561        6.101        0.029      333.790        3.335      867.876
03/08/2014  07:35:00      -23.429      -12.186       -6.715       13.394        8.368        5.539      179.403       70.027       30.677        0.051        0.014       26.409        4.932        0.035      333.910        3.535      867.860
03/08/2014  07:36:00      -36.570      -21.036       -5.946       11.435       10.073        7.848      130.760      101.466       61.586        0.105        0.015       42.188        6.194        0.022      333.893        3.507      867.855
03/08/2014  07:37:00      -20.160      -14.770       -7.906        8.072       14.774        6.454       65.150      218.279       41.649        0.051        0.016       24.992        4.386        0.031      333.962        3.621      867.851
03/08/2014  07:38:00      -36.814      -20.714       -2.689       10.525       12.693        7.530      110.774      161.111       56.701        0.106        0.016       42.241        5.538        0.017      333.979        3.651      867.846
03/08/2014  07:39:00      -30.985      -22.945       -2.047       12.549        9.351        7.958      157.477       87.433       63.326        0.090        0.015       38.556        1.997        0.003      333.983        3.656      867.852
03/08/2014  07:40:00      -14.879      -28.986       -1.751       12.984        8.216        9.825      168.590       67.497       96.536        0.070        0.017       32.582        8.196        0.063      334.024        3.725      867.854
03/08/2014  07:41:00      -29.568       -1.360       -4.710        8.865       10.846        8.302       78.582      117.645       68.921        0.058        0.013       29.599        8.126        0.075      334.065        3.793      867.858
03/08/2014  07:42:00      -28.420      -13.256       -4.785       12.056       11.627       10.838      145.345      135.190      117.466        0.070        0.020       31.360        9.810        0.098      334.183        3.988      867.866
03/08/2014  07:43:00      -44.798      -13.323       -1.713       10.618        8.026        6.128      112.736       64.417       37.547        0.120        0.011       46.737        4.420        0.009      334.102        3.853      867.875
03/08/2014  07:44:00      -41.286      -28.523       -2.334       24.516       14.749        9.418      601.023      217.530       88.691        0.172        0.045       50.181        8.576        0.029      334.158        3.945      867.882
03/08/2014  07:45:00      -31.280      -47.312       -5.831       25.064       27.341       14.550      628.198      747.552      211.696        0.242        0.079       56.717       10.802        0.036      334.136        3.910      867.881
03/08/2014  07:46:00      -44.880      -45.875       -4.961       17.637       12.436        9.878      311.051      154.651       97.567        0.235        0.028       64.177       11.224        0.031      334.131        3.902      867.883
03/08/2014  07:47:00      -38.072      -43.545       -0.996       14.351       19.915       11.203      205.953      396.624      125.499        0.204        0.036       57.842        8.063        0.019      334.182        3.985      867.879
03/08/2014  07:48:00      -23.083      -28.943        6.053       16.634       15.150       12.830      276.686      229.533      164.601        0.104        0.034       37.020       13.399        0.131      334.351        4.268      867.878
03/08/2014  07:49:00      -40.623      -38.780       -1.889       11.177       14.765        9.602      124.926      217.991       92.196        0.180        0.022       56.162        3.307        0.003      334.229        4.065      867.880
03/08/2014  07:50:00      -48.059      -31.423       -2.745       12.746       17.141        9.536      162.463      293.814       90.929        0.193        0.027       57.420        8.265        0.021      334.258        4.113      867.891
03/08/2014  07:51:00       -8.788       -3.752       19.220       17.259       21.362       21.350      297.885      456.341      455.823        0.084        0.061        9.555       16.358        2.931      334.714        4.868      867.909
03/08/2014  07:52:00      -20.374       18.968       32.135       18.822       18.252       17.512      354.267      333.132      306.665        0.140        0.050       27.837       13.178        0.224      334.941        5.246      867.919
03/08/2014  07:53:00      -48.061        4.554        5.382       22.811       31.231       15.326      520.353      975.377      234.883        0.204        0.087       48.276       11.196        0.054      334.218        4.046      867.934
03/08/2014  07:54:00      -67.574       -1.081       13.559       30.945       33.632       20.767      957.567     1131.106      431.271        0.364        0.126       67.582       20.246        0.090      334.354        4.272      867.933
03/08/2014  07:55:00      -55.475       -0.922       -3.699       36.907       38.643       29.703     1362.108     1493.312      882.250        0.341        0.187       55.483       25.977        0.219      334.378        4.311      867.926
03/08/2014  07:56:00      -18.558        9.659       50.156       29.819       58.815       22.848      889.198     3459.166      522.024        0.391        0.244       20.922       26.472        1.601      334.797        5.008      867.916
03/08/2014  07:57:00       -9.390       21.423       65.386       19.546       30.185       20.743      382.057      911.144      430.252        0.327        0.086       23.391       13.903        0.353      334.808        5.026      867.920
03/08/2014  07:58:00        0.814       25.986       41.611       15.439       28.424       28.367      238.372      807.912      804.710        0.213        0.093       25.998       25.887        0.991      334.707        4.858      867.921
03/08/2014  07:59:00        6.876       17.978       51.359       29.959       59.163       38.094      897.541     3500.301     1451.140        0.443        0.292       19.249       39.785        4.272      334.698        4.843      867.922
03/08/2014  08:00:00       -2.906       47.751       74.970       15.223       34.395       19.516      231.752     1182.988      380.878        0.485        0.090       47.840       17.232        0.130      334.853        5.099      867.913
03/08/2014  08:01:00       26.521      -27.868       32.558       33.542       59.405       37.103     1125.036     3529.005     1376.605        0.428        0.302       38.471       43.570        1.283      334.916        5.204      867.910
03/08/2014  08:02:00       59.446      -76.301       -9.442       46.628       50.170       26.879     2174.188     2517.049      722.463        0.743        0.271       96.725       27.891        0.083      334.565        4.622      867.896
03/08/2014  08:03:00       30.997       20.433       43.552       40.088       44.091       33.226     1607.088     1943.990     1103.949        0.396        0.233       37.126       25.684        0.479      335.006        5.354      867.889
03/08/2014  08:04:00       43.881       24.572       19.593       39.747       27.163       25.703     1579.857      737.803      660.627        0.295        0.149       50.292       18.550        0.136      334.945        5.254      867.876
03/08/2014  08:05:00       67.624       58.485       65.118       61.904       43.963       37.438     3832.109     1932.783     1401.629        0.970        0.358       89.406       35.280        0.156      334.858        5.108      867.865
03/08/2014  08:06:00       51.945       37.985       37.067       54.097       51.576       32.014     2926.456     2660.097     1024.905        0.606        0.331       64.352       26.693        0.172      334.869        5.127      867.849
03/08/2014  08:07:00      128.877       99.303       18.060       69.695       46.640       39.580     4857.458     2175.281     1566.586        1.770        0.430      162.697       27.815        0.029      334.497        4.508      867.824
03/08/2014  08:08:00      157.448       93.879        3.082       29.828       26.658       28.878      889.708      710.633      833.926        1.802        0.122      183.312       15.355        0.007      334.190        3.998      867.811
03/08/2014  08:09:00      149.147       89.701        1.807       35.763       28.393       27.279     1279.002      806.161      744.137        1.656        0.141      174.043       13.375        0.006      334.255        4.106      867.800
03/08/2014  08:10:00      120.790       75.177       22.923       51.359       37.108       42.515     2637.731     1376.979     1807.545        1.329        0.291      142.274       28.041        0.039      334.350        4.265      867.786
03/08/2014  08:11:00       20.739       33.022       45.898       38.411       34.970       25.535     1475.414     1222.932      652.017        0.349        0.168       38.994       19.553        0.251      335.026        5.387      867.784
03/08/2014  08:12:00       72.645       73.223       24.441       39.628       28.052       34.269     1570.362      786.894     1174.369        0.738        0.177      103.145       28.325        0.075      334.461        4.449      867.786
03/08/2014  08:13:00        6.792       16.307       53.678       24.619       28.721       22.034      606.074      824.892      485.481        0.255        0.096       17.665       16.037        0.824      335.053        5.432      867.789
03/08/2014  08:14:00        9.000      -20.567       37.818       22.313       50.859       31.229      497.860     2586.644      975.224        0.300        0.203       22.450       31.715        1.996      335.052        5.429      867.792
03/08/2014  08:15:00       40.333       18.568       50.136       28.453       34.231       20.302      809.546     1171.767      412.152        0.344        0.120       44.401       14.896        0.113      334.830        5.061      867.794
03/08/2014  08:16:00       38.434       28.369       35.700       35.172       34.827       21.040     1237.071     1212.910      442.670        0.322        0.145       47.770       19.549        0.167      334.885        5.154      867.787
03/08/2014  08:17:00       19.347       28.897       32.922       27.053       31.489       25.226      731.866      991.541      636.334        0.233        0.118       34.776       19.125        0.302      335.328        5.890      867.770
03/08/2014  08:18:00       97.778       69.093       16.077       52.603       40.866       27.691     2767.112     1670.044      766.792        0.990        0.260      119.726        8.776        0.005      334.802        5.016      867.747
03/08/2014  08:19:00       76.166       57.541       24.847       36.125       30.333       36.106     1305.008      920.078     1303.609        0.663        0.176       95.458       11.980        0.016      334.933        5.233      867.733
03/08/2014  08:20:00       74.907       48.498       38.249       46.062       38.373       39.228     2121.688     1472.504     1538.863        0.728        0.257       89.236       10.652        0.014      335.077        5.473      867.729
03/08/2014  08:21:00       79.374       58.205        6.309       25.958       23.506       29.170      673.837      552.515      850.865        0.590        0.104       98.428       12.146        0.015      334.682        4.815      867.736
03/08/2014  08:22:00       77.694       72.555       11.654       29.838       29.069       27.525      890.292      844.992      757.599        0.696        0.125      106.304       13.658        0.017      334.571        4.631      867.750
03/08/2014  08:23:00       19.844       20.458       32.831       37.759       43.562       30.212     1425.708     1897.688      912.755        0.306        0.212       28.500       24.655        0.748      335.094        5.500      867.750
03/08/2014  08:24:00       26.044       40.796       54.441       51.836       37.603       26.339     2686.926     1413.998      693.759        0.505        0.240       48.400       19.397        0.161      335.176        5.636      867.753
03/08/2014  08:25:00       71.748       70.349       43.175       23.446       22.621       26.817      549.697      511.716      719.175        0.687        0.089      100.483       16.558        0.027      334.727        4.890      867.766
03/08/2014  08:26:00       94.109       70.121       33.119       22.604       24.169       25.065      510.938      584.117      628.261        0.830        0.086      117.361        5.965        0.003      334.705        4.854      867.767
03/08/2014  08:27:00       39.006        3.122       14.100       25.909       28.885       23.844      671.276      834.345      568.518        0.190        0.104       39.130       16.555        0.179      334.815        5.037      867.765
03/08/2014  08:28:00       54.138       59.380       55.931       36.357       26.535       19.882     1321.845      704.083      395.295        0.600        0.121       80.355       15.351        0.036      335.030        5.395      867.761
03/08/2014  08:29:00       86.038       21.608       -0.527       36.824       48.021       24.959     1356.042     2305.993      622.966        0.608        0.214       88.710       26.768        0.091      334.727        4.891      867.750
03/08/2014  08:30:00       14.657       13.505       21.399       32.884       24.078       21.165     1081.331      579.766      447.978        0.148        0.105       19.931       22.993        1.331      335.049        5.426      867.733
03/08/2014  08:31:00       96.444       69.327       18.238       35.868       24.318       36.681     1286.490      591.362     1345.468        0.883        0.161      118.776       21.716        0.033      334.846        5.087      867.719
03/08/2014  08:32:00       61.789       50.531        5.821       27.656       24.312       23.223      764.858      591.096      539.307        0.415        0.095       79.820       13.074        0.027      334.828        5.058      867.699
03/08/2014  08:33:00       85.694       53.516        7.215       54.214       31.759       34.627     2939.211     1008.664     1199.023        0.770        0.257      101.032       29.313        0.084      335.200        5.677      867.678
03/08/2014  08:34:00       90.124       87.100       -3.251       27.290       24.205       22.578      744.745      585.887      509.788        0.878        0.092      125.335       18.054        0.021      335.006        5.354      867.678
03/08/2014  08:35:00       69.696       69.267      -24.270       21.865       24.121       14.530      478.088      581.803      211.111        0.576        0.064       98.263       10.911        0.012      334.951        5.263      867.686
03/08/2014  08:36:00       25.391       46.736       -7.036       14.603       17.355       17.996      213.242      301.187      323.861        0.186        0.042       53.188        9.566        0.032      335.158        5.606      867.669
03/08/2014  08:37:00       18.804       20.593        0.677       31.013       28.519       19.167      961.806      813.336      367.359        0.146        0.107       27.886       14.205        0.259      335.088        5.491      867.662
03/08/2014  08:38:00      -15.016       10.744       45.797       15.916       26.786       23.201      253.315      717.512      538.302        0.197        0.075       18.464       21.062        1.301      335.914        6.865      867.639
03/08/2014  08:39:00       16.012       20.218       55.516       40.025       32.637       29.560     1601.980     1065.158      873.781        0.364        0.177       25.791       25.824        1.003      335.767        6.622      867.636
03/08/2014  08:40:00        8.569        9.725       31.011       17.029       34.656       21.290      289.997     1201.009      453.260        0.154        0.097       12.962       24.917        3.695      335.593        6.329      867.642
03/08/2014  08:41:00        0.406      -25.023       14.481       19.517       44.150       34.593      380.915     1949.246     1196.678        0.218        0.176       25.026       35.363        1.997      335.606        6.350      867.638
03/08/2014  08:42:00       -6.874       30.435       52.169       11.859       22.554       15.767      140.646      508.694      248.603        0.230        0.045       31.201       14.509        0.216      335.852        6.762      867.650
03/08/2014  08:43:00        1.230       29.119       28.285       18.509       41.736       24.989      342.591     1741.930      624.426        0.218        0.135       29.145       22.392        0.590      335.903        6.846      867.669
03/08/2014  08:44:00      -12.291       90.346       -2.505       21.906       42.589       27.192      479.874     1813.821      739.396        0.568        0.152       91.178       26.838        0.087      335.629        6.392      867.695
03/08/2014  08:45:00        4.780       28.581       10.308       21.696       26.998       20.922      470.720      728.900      437.743        0.129        0.082       28.978       14.517        0.251      335.790        6.660      867.708
03/08/2014  08:46:00       14.309       11.552        1.492       23.878       17.633       20.198      570.138      310.905      407.956        0.081        0.064       18.390       17.906        0.948      335.650        6.426      867.713
03/08/2014  08:47:00      -13.606        3.543        8.186       13.277       13.071       11.844      176.280      170.862      140.270        0.038        0.024       14.060       10.113        0.517      335.566        6.284      867.721
03/08/2014  08:48:00       15.170       10.129       11.958       15.490       17.013       18.322      239.926      289.440      335.697        0.067        0.043       18.240        9.025        0.245      335.814        6.700      867.725
03/08/2014  08:49:00      -34.763       -0.327      -12.699       31.922       33.228       14.279     1019.041     1104.089      203.892        0.185        0.116       34.764       11.871        0.117      335.456        6.101      867.730
03/08/2014  08:50:00      -55.465        1.991       -7.799       25.343       18.495       16.457      642.264      342.064      270.840        0.220        0.063       55.501        5.740        0.011      335.327        5.887      867.730
03/08/2014  08:51:00      -44.111       21.993       -1.530       35.675       39.245       29.461     1272.727     1540.202      867.935        0.306        0.184       49.290       19.305        0.153      335.713        6.530      867.730
03/08/2014  08:52:00      -61.910      -31.340       -0.691       54.105       46.280       26.776     2927.345     2141.883      716.973        0.530        0.289       69.391       21.534        0.096      335.450        6.092      867.726
03/08/2014  08:53:00      -20.559      -40.390       15.819       51.651       30.520       28.308     2667.844      931.476      801.339        0.335        0.220       45.321       24.465        0.291      335.722        6.543      867.717
03/08/2014  08:54:00      -59.872      -36.402       -2.433       49.980       39.558       23.673     2497.981     1564.849      560.434        0.477        0.231       70.070       25.325        0.131      335.531        6.227      867.724
03/08/2014  08:55:00      -54.133      -16.955        2.241       50.256       31.139       24.826     2525.701      969.634      616.340        0.367        0.206       56.726       13.242        0.054      335.704        6.515      867.730
03/08/2014  08:56:00      -25.773      -53.428       14.775       43.755       38.330       31.403     1914.466     1469.215      986.153        0.405        0.218       59.319       28.026        0.223      335.592        6.328      867.758
03/08/2014  08:57:00      -14.091      -81.784       -3.048       24.508       46.608       20.692      600.657     2172.349      428.167        0.505        0.160       82.989       13.850        0.028      335.334        5.897      867.773
03/08/2014  08:58:00      -35.338       -1.896       -4.568       18.320       29.983       19.513      335.626      898.984      380.748        0.144        0.081       35.389       16.296        0.212      335.485        6.151      867.761
03/08/2014  08:59:00      -26.968      -37.668      -12.420       18.455       25.144       23.685      340.601      632.212      560.971        0.192        0.077       46.326       17.681        0.146      335.567        6.288      867.751
03/08/2014  09:00:00      -70.644      -75.034        5.792       27.844       36.100       24.592      775.306     1303.188      604.780        0.667        0.134      103.057       11.218        0.012      335.698        6.504      867.741
03/08/2014  09:01:00      -43.334      -92.519        2.036       33.537       40.284       29.721     1124.737     1622.783      883.348        0.704        0.182      102.165       15.140        0.022      335.815        6.701      867.741
03/08/2014  09:02:00      -40.729      -41.792       -0.734       34.564       41.157       25.489     1194.655     1693.891      649.695        0.347        0.177       58.356       17.335        0.088      335.766        6.619      867.737
03/08/2014  09:03:00      -25.089      -36.969      -15.291       23.399       38.991       21.448      547.512     1520.272      460.009        0.238        0.126       44.678       13.226        0.088      335.692        6.495      867.746
03/08/2014  09:04:00      -18.422      -20.227      -19.193       18.454       40.410       12.135      340.548     1632.939      147.253        0.162        0.106       27.359        5.825        0.045      335.835        6.733      867.742
03/08/2014  09:05:00       -1.595      -31.487      -15.370       15.985       14.785       13.705      255.505      218.602      187.816        0.095        0.033       31.527        5.671        0.032      335.753        6.597      867.733
03/08/2014  09:06:00        1.001      -55.764       -2.709       18.043       23.249       12.054      325.548      540.504      145.290        0.206        0.051       55.773        7.956        0.020      335.715        6.533      867.737
03/08/2014  09:07:00      -11.702       -9.315        1.648       11.287       10.482        7.824      127.388      109.874       61.217        0.026        0.015       14.957        2.930        0.038      336.195        7.333      867.741
03/08/2014  09:08:00      -63.022       33.247      -16.433       26.572       22.691       15.436      706.071      514.887      238.268        0.340        0.073       71.254       12.311        0.030      335.904        6.849      867.748
03/08/2014  09:09:00      -44.044        5.882       -7.259       23.084       15.930       12.496      532.884      253.766      156.161        0.148        0.047       44.435        8.950        0.041      335.980        6.975      867.756
03/08/2014  09:10:00      -38.781      -13.782       -5.915       10.354       17.513       13.510      107.199      306.694      182.520        0.116        0.030       41.158        4.973        0.015      335.986        6.985      867.752
03/08/2014  09:11:00        4.783      -51.649       14.606       20.501       20.953       22.903      420.281      439.026      524.561        0.214        0.069       51.870        3.937        0.006      335.952        6.927      867.748
03/08/2014  09:12:00      -55.566      -26.965        2.915       22.661       22.338       15.141      513.506      498.993      229.246        0.253        0.062       61.763       10.094        0.027      336.004        7.014      867.753
03/08/2014  09:13:00      -96.075      -10.372      -11.185       32.455       24.367       17.670     1053.307      593.773      312.235        0.571        0.098       96.633       17.935        0.034      335.944        6.913      867.753
03/08/2014  09:14:00      -24.763      -19.742       10.588       20.456       27.552       20.132      418.436      759.111      405.291        0.135        0.079       31.669       13.883        0.192      336.365        7.617      867.761
03/08/2014  09:15:00      -44.856      -59.047        6.362       40.778       45.744       23.837     1662.837     2092.550      568.216        0.493        0.216       74.153       22.029        0.088      336.239        7.407      867.757
03/08/2014  09:16:00      -59.525      -79.245       -7.691       35.269       35.056       21.703     1243.899     1228.955      471.002        0.641        0.147       99.111       18.968        0.037      335.979        6.972      867.761
03/08/2014  09:17:00      -29.008      -79.321       -7.507       31.001       20.254       20.460      961.052      410.232      418.596        0.449        0.089       84.459        9.231        0.012      335.954        6.931      867.764
03/08/2014  09:18:00      -29.171     -129.609       -1.143       20.745       46.123       19.027      430.366     2127.327      362.044        1.028        0.146      132.851        7.869        0.004      335.980        6.974      867.776
03/08/2014  09:19:00      -69.584      -87.890       -7.744       36.052       29.969       21.148     1299.770      898.120      447.243        0.764        0.132      112.101       13.336        0.014      336.121        7.210      867.779
03/08/2014  09:20:00      -19.150      -93.836       17.838       40.078       79.860       51.387     1606.252     6377.679     2640.632        1.006        0.531       95.770       55.106        0.331      336.588        7.990      867.767
03/08/2014  09:21:00       30.285       58.908       67.253       42.639       51.144       40.590     1818.068     2615.660     1647.587        0.749        0.304       66.237       25.673        0.150      336.516        7.870      867.767
03/08/2014  09:22:00       -1.145       23.528       57.715       21.555       49.017       22.873      464.627     2402.623      523.186        0.364        0.170       23.556       15.845        0.452      337.109        8.863      867.748
03/08/2014  09:23:00       -1.776      -33.288       40.175       38.249       67.258       28.104     1463.001     4523.615      789.810        0.475        0.339       33.335       28.481        0.730      336.981        8.648      867.740
03/08/2014  09:24:00       18.950       32.114       66.458       34.014       52.156       38.459     1156.927     2720.252     1479.086        0.558        0.268       37.288       41.190        1.220      336.751        8.263      867.738
03/08/2014  09:25:00       34.663       33.995       23.355       55.412       44.904       50.656     3070.512     2016.371     2566.011        0.528        0.383       48.551       35.466        0.534      336.630        8.061      867.728
03/08/2014  09:26:00       23.299      -21.414       35.493       41.880       73.186       45.128     1753.899     5356.154     2036.523        0.570        0.457       31.645       29.465        0.867      336.911        8.532      867.721
03/08/2014  09:27:00       21.958       11.550       48.044       51.620       55.533       40.727     2664.637     3083.928     1658.711        0.516        0.370       24.810       37.635        2.301      336.935        8.572      867.736
03/08/2014  09:28:00       55.419       58.766       36.124       32.521       28.839       33.342     1057.643      831.688     1111.719        0.541        0.150       80.776       22.095        0.075      336.435        7.734      867.764
03/08/2014  09:29:00       52.874       35.723       35.036       40.746       32.739       30.608     1660.276     1071.866      936.856        0.448        0.183       63.811       18.071        0.080      336.765        8.287      867.772
03/08/2014  09:30:00       55.788       39.470        6.829       29.012       26.251       24.941      841.716      689.124      622.033        0.343        0.108       68.339       14.798        0.047      336.540        7.910      867.785
03/08/2014  09:31:00       -6.430       18.077       18.882       27.033       22.095       21.986      730.766      488.183      483.364        0.121        0.085       19.187       12.770        0.443      337.261        9.116      867.797
03/08/2014  09:32:00        3.965       49.533       27.097       26.159       33.453       31.333      684.311     1119.083      981.734        0.299        0.139       49.691       18.838        0.144      337.313        9.203      867.799
03/08/2014  09:33:00      -27.750       11.819        7.486       24.199       20.334       20.487      585.590      413.479      419.717        0.119        0.071       30.162       16.789        0.310      337.050        8.763      867.803
03/08/2014  09:34:00      -99.647      -93.423       -2.198       60.679       44.824       26.434     3681.928     2009.225      698.775        1.252        0.319      136.592       20.948        0.024      336.386        7.653      867.812
03/08/2014  09:35:00      -48.551       -9.696       14.205       35.067       48.671       19.646     1229.699     2368.908      385.970        0.332        0.199       49.510       26.783        0.293      336.810        8.362      867.805
03/08/2014  09:36:00      -38.791      -29.974        8.586       32.320       45.227       26.023     1044.613     2045.521      677.210        0.312        0.188       49.022       25.736        0.276      336.554        7.934      867.796
03/08/2014  09:37:00      -93.510      -98.209       -1.933       77.465       57.605       43.230     6000.828     3318.334     1868.821        1.479        0.559      135.606       41.583        0.094      336.463        7.779      867.808
03/08/2014  09:38:00      -89.856      -70.532       -1.495       31.885       18.528       18.914     1016.653      343.303      357.738        0.738        0.086      114.232       17.762        0.024      336.424        7.716      867.814
03/08/2014  09:39:00      -41.132      -30.182        1.893       30.544       14.055       12.472      932.910      197.554      155.558        0.195        0.064       51.018       14.520        0.081      336.576        7.971      867.809
03/08/2014  09:40:00      -42.611        1.138       -8.164       17.483       37.670       22.944      305.639     1419.047      526.450        0.207        0.113       42.626       26.455        0.385      336.448        7.757      867.797
03/08/2014  09:41:00      -10.371       58.782       10.606       36.782       26.656       30.595     1352.894      710.516      936.034        0.334        0.150       59.690       25.935        0.189      337.091        8.832      867.790
03/08/2014  09:42:00      -14.518       17.424       20.839       46.494       29.817       32.952     2161.650      889.050     1085.855        0.254        0.207       22.680       27.691        1.491      337.196        9.008      867.786
03/08/2014  09:43:00      -42.441       10.970      -34.212       48.302       24.645       17.688     2333.115      607.398      312.862        0.317        0.163       43.836       11.869        0.073      336.541        7.912      867.798
03/08/2014  09:44:00        6.175       -1.925       11.702       31.009       15.969       26.118      961.544      255.017      682.171        0.104        0.095        6.468       11.996        3.440      337.242        9.084      867.780
03/08/2014  09:45:00      -68.174      -23.797       -6.378       26.626       35.639       13.941      708.920     1270.150      194.355        0.371        0.109       72.208        9.128        0.016      336.738        8.241      867.768
03/08/2014  09:46:00      -46.935      -52.871        2.789       40.619       28.332       25.180     1649.877      802.680      634.040        0.405        0.154       70.698       28.079        0.158      336.695        8.169      867.762
03/08/2014  09:47:00       -4.339      -60.209       18.500       25.504       39.782       20.791      650.456     1582.590      432.256        0.333        0.133       60.365       16.649        0.076      337.080        8.813      867.744
03/08/2014  09:48:00      -42.241      -55.378       15.116       55.132       41.057       31.398     3039.508     1685.647      985.828        0.539        0.286       69.650       33.057        0.225      337.064        8.787      867.727
03/08/2014  09:49:00      -79.291      -71.436       -0.921       54.072       60.858       30.531     2923.818     3703.691      932.118        0.947        0.378      106.725       21.407        0.040      336.811        8.362      867.726
03/08/2014  09:50:00      -66.605      -70.249        2.171       57.770       74.396       27.547     3337.420     5534.767      758.863        0.950        0.482       96.805       24.383        0.063      336.911        8.530      867.715
03/08/2014  09:51:00     -111.794     -132.403       -7.818       61.119       73.574       29.451     3735.580     5413.194      867.342        2.005        0.501      173.287       29.311        0.029      336.624        8.049      867.691
03/08/2014  09:52:00     -116.505      -80.113        8.078       56.005       37.207       29.862     3136.559     1384.383      891.748        1.273        0.271      141.391       29.741        0.044      336.730        8.227      867.676
03/08/2014  09:53:00      -98.215      -72.630       10.398       49.893       34.184       31.319     2489.264     1168.555      980.880        0.983        0.232      122.153       27.210        0.050      336.770        8.295      867.667
03/08/2014  09:54:00      -45.297      -87.864        0.258       46.491       28.307       24.577     2161.453      801.268      604.043        0.667        0.178       98.852       15.456        0.024      336.705        8.187      867.667
03/08/2014  09:55:00      -53.515     -120.207        3.682       72.248       57.383       32.224     5219.732     3292.859     1038.375        1.344        0.478      131.581       27.390        0.043      336.773        8.299      867.673
03/08/2014  09:56:00      -94.224      -72.714      -10.055       54.245       51.268       22.707     2942.531     2628.443      515.599        1.018        0.304      119.019       23.838        0.040      336.683        8.148      867.679
03/08/2014  09:57:00      -49.597      -59.572       14.723       63.324       52.791       35.374     4009.872     2786.911     1251.291        0.714        0.402       77.515       18.509        0.057      336.940        8.578      867.681
03/08/2014  09:58:00     -142.571      -50.998      -10.766       68.087       61.024       34.830     4635.805     3723.922     1213.104        1.631        0.479      151.417       31.569        0.043      336.914        8.535      867.684
03/08/2014  09:59:00      -94.030      -33.944       -0.621       56.831       69.125       32.799     3229.720     4778.270     1075.747        0.954        0.454       99.969       34.905        0.122      336.843        8.418      867.684
03/08/2014  10:00:00      -38.062      -16.696        1.200       39.977       25.014       21.609     1598.181      625.688      466.937        0.221        0.135       41.563       23.262        0.313      337.034        8.736      867.702
03/08/2014  10:01:00      -72.416       37.681       -6.793       19.964       33.992       18.102      398.542     1155.478      327.671        0.430        0.094       81.633       12.856        0.025      336.896        8.506      867.705
03/08/2014  10:02:00      -55.332      -99.388      -19.859       41.003       41.688       26.016     1681.239     1737.890      676.824        0.871        0.205      113.752       12.240        0.012      337.158        8.944      867.712
03/08/2014  10:03:00      -70.811     -103.814       -6.694       37.137       32.851       26.602     1379.164     1079.185      707.653        0.950        0.158      125.665       19.472        0.024      337.018        8.709      867.714
03/08/2014  10:04:00      -75.677      -52.827       -6.459       43.858       37.054       31.160     1923.545     1373.002      970.975        0.641        0.213       92.291       30.907        0.112      337.123        8.883      867.707
03/08/2014  10:05:00      -21.073       -8.547       32.300       32.242       52.262       32.765     1039.567     2731.328     1073.539        0.320        0.242       22.741       27.235        1.434      338.168       10.636      867.695
03/08/2014  10:06:00      -44.200      -15.322      -17.715       28.382       27.507       22.711      805.559      756.610      515.767        0.229        0.104       46.780       15.597        0.111      337.450        9.432      867.675
03/08/2014  10:07:00      -42.530        6.995        7.654       27.804       31.312       22.554      773.041      980.425      508.687        0.209        0.113       43.102       18.644        0.187      337.747        9.930      867.656
03/08/2014  10:08:00       -5.357       22.475       26.365       14.703       24.344       16.018      216.174      592.611      256.576        0.115        0.053       23.105       14.830        0.412      338.165       10.633      867.642
03/08/2014  10:09:00      -42.513       17.239        4.936       21.664       22.284       20.656      469.318      496.572      426.659        0.176        0.070       45.875       17.923        0.153      337.594        9.674      867.626
03/08/2014  10:10:00      -75.574      -28.366       -0.909       34.336       30.089       21.824     1178.950      905.341      476.286        0.454        0.128       80.723        9.990        0.015      337.297        9.177      867.618
03/08/2014  10:11:00      -57.539      -70.620      -11.841       23.185       33.255       20.287      537.529     1105.880      411.578        0.525        0.103       91.093       13.023        0.020      337.219        9.043      867.613
03/08/2014  10:12:00      -78.712      -48.815       -7.247       43.421       32.142       22.476     1885.380     1033.132      505.176        0.603        0.171       92.620       20.610        0.050      337.394        9.338      867.611
03/08/2014  10:13:00      -69.431      -52.146       -7.178       60.940       29.787       20.177     3713.724      887.245      407.124        0.630        0.250       86.833       14.701        0.029      337.358        9.278      867.622
03/08/2014  10:14:00      -63.092      -91.181       -6.377       45.360       62.086       23.521     2057.484     3854.715      553.242        0.940        0.323      110.881       22.545        0.041      337.186        8.990      867.634
03/08/2014  10:15:00      -72.786     -116.204       -7.094       56.491       32.173       26.749     3191.203     1035.078      715.505        1.190        0.247      137.118       13.775        0.010      337.364        9.288      867.649
03/08/2014  10:16:00        4.789      -21.713       22.441       22.653       47.628       36.038      513.156     2268.467     1298.722        0.254        0.204       22.235       33.585        2.282      338.474       11.150      867.657
03/08/2014  10:17:00      -67.836      -22.471       -9.664       35.717       55.530       31.547     1275.681     3083.537      995.205        0.528        0.268       71.460       26.857        0.141      337.645        9.759      867.672
03/08/2014  10:18:00      -67.352      -12.706       -4.544       37.587       38.973       20.765     1412.805     1518.924      431.190        0.404        0.168       68.541       15.452        0.051      337.301        9.182      867.686
03/08/2014  10:19:00     -160.437      -17.901      -15.463       37.252       35.968       23.146     1387.739     1293.680      535.731        1.476        0.161      161.432       22.166        0.019      337.294        9.172      867.692
03/08/2014  10:20:00     -131.486       -9.299      -13.890       39.741       38.233       20.940     1579.363     1461.730      438.494        1.052        0.174      131.814       17.225        0.017      337.360        9.282      867.694
03/08/2014  10:21:00      -92.356       10.608      -13.015       31.999       26.926       26.896     1023.919      725.011      723.421        0.564        0.124       92.963       20.393        0.048      337.489        9.497      867.701
03/08/2014  10:22:00      -58.515      -40.298        0.818       40.890       34.544       21.079     1671.981     1193.286      444.327        0.418        0.165       71.048       21.735        0.094      337.729        9.900      867.722
03/08/2014  10:23:00     -125.242       -8.380       -9.257       71.082       66.082       34.089     5052.721     4366.872     1162.091        1.321        0.529      125.522       30.235        0.058      337.669        9.800      867.728
03/08/2014  10:24:00     -176.917      -84.531       -3.914       59.281       49.677       32.654     3514.271     2467.819     1066.314        2.275        0.352      196.075       28.370        0.021      337.545        9.590      867.750
03/08/2014  10:25:00     -159.215      -21.376       -1.865       76.341       50.330       33.194     5828.011     2533.105     1101.837        1.763        0.473      160.644       33.505        0.043      337.646        9.758      867.752
03/08/2014  10:26:00      -95.462      -17.988       -5.571       28.452       35.458       19.493      809.517     1257.297      379.961        0.596        0.122       97.142       15.413        0.025      337.615        9.710      867.756
03/08/2014  10:27:00      -76.568       -8.744       -1.805       26.706       40.809       18.985      713.214     1665.411      360.440        0.434        0.137       77.066       13.881        0.032      337.740        9.918      867.744
03/08/2014  10:28:00     -150.046       16.053      -20.851       27.585       28.645       19.446      760.944      820.564      378.142        1.258        0.098      150.902        5.415        0.001      337.381        9.317      867.740
03/08/2014  10:29:00     -111.671       42.677      -26.719       32.089       25.923       19.306     1029.684      671.976      372.704        0.854        0.104      119.548       13.775        0.013      337.386        9.325      867.736
03/08/2014  10:30:00      -48.344       37.330      -21.974       29.956       39.980       22.529      897.370     1598.404      507.544        0.361        0.150       61.080       14.968        0.060      337.706        9.862      867.720
03/08/2014  10:31:00      -33.701      -81.959       -3.556       25.133       81.540       17.104      631.682     6648.843      292.550        0.772        0.379       88.617       22.821        0.066      337.701        9.853      867.737
03/08/2014  10:32:00      -38.121      -40.337       16.470       50.990       47.040       33.116     2599.933     2212.724     1096.678        0.463        0.295       55.500       37.593        0.459      338.009       10.371      867.727
03/08/2014  10:33:00      -71.238       11.319       -9.591       19.219       22.027       13.662      369.358      485.180      186.639        0.317        0.052       72.132        8.571        0.014      337.674        9.807      867.737
03/08/2014  10:34:00      -47.706      -22.921       -9.969       29.771       25.965       20.635      886.327      674.157      425.786        0.244        0.099       52.927       12.442        0.055      337.949       10.269      867.727
03/08/2014  10:35:00       -3.797        7.647       34.341       29.968       40.380       25.443      898.105     1630.546      647.330        0.221        0.159        8.538       19.073        4.991      338.899       11.865      867.730
03/08/2014  10:36:00       45.924       50.232       38.841       52.882       49.051       48.574     2796.516     2406.044     2359.477        0.685        0.378       68.060       36.572        0.289      338.190       10.674      867.722
03/08/2014  10:37:00      -27.012       11.580       19.975       31.411       35.402       26.244      986.625     1253.324      688.770        0.210        0.146       29.390       25.763        0.768      338.684       11.503      867.720
03/08/2014  10:38:00     -230.270      -62.448       -1.541      109.718       74.773       44.559    12038.071     5591.047     1985.544        3.827        0.981      238.587       43.704        0.034      337.919       10.216      867.723
03/08/2014  10:39:00     -207.963        4.385       -9.887       61.410       60.057       35.494     3771.139     3606.875     1259.834        2.600        0.432      208.009       31.578        0.023      338.016       10.378      867.721
03/08/2014  10:40:00     -147.459        3.964      -20.434       42.019       31.525       22.986     1765.618      993.822      528.362        1.273        0.164      147.512       20.608        0.020      337.768        9.966      867.731
03/08/2014  10:41:00      -43.148       43.988       -3.002       34.243       35.216       26.260     1172.580     1240.160      689.607        0.345        0.155       61.618       17.915        0.085      338.173       10.645      867.712
03/08/2014  10:42:00       -8.119      -17.148        3.572       17.959       42.049       19.771      322.532     1768.119      390.885        0.143        0.124       18.973       10.851        0.327      338.113       10.544      867.694
03/08/2014  10:43:00      -42.027      132.350       -6.027       25.497       50.332       31.270      650.118     2533.319      977.828        1.174        0.208      138.863       22.287        0.026      338.213       10.711      867.677
03/08/2014  10:44:00       43.695       39.526        5.224       30.522       30.313       33.072      931.566      918.897     1093.733        0.322        0.147       58.920       26.213        0.198      338.529       11.243      867.650
03/08/2014  10:45:00       69.806       69.266       25.945       30.150       23.144       34.538      909.007      535.642     1192.901        0.649        0.132       98.340       12.114        0.015      338.044       10.427      867.605
03/08/2014  10:46:00      -10.071       43.855       21.659       39.399       36.009       35.705     1552.265     1296.657     1274.813        0.331        0.206       44.997       31.376        0.486      338.688       11.509      867.583
03/08/2014  10:47:00      -59.354      -14.078        3.109       36.322       45.637       35.674     1319.261     2082.739     1272.602        0.420        0.234       61.000       32.051        0.276      338.445       11.102      867.585
03/08/2014  10:48:00      -31.122       18.561        4.768       29.352       21.016       25.472      861.558      441.667      648.798        0.164        0.098       36.236       22.150        0.374      339.032       12.089      867.571
03/08/2014  10:49:00      -78.094        3.472      -30.543       19.535       19.176       21.577      381.625      367.704      465.575        0.413        0.061       78.171        8.786        0.013      338.130       10.573      867.557
03/08/2014  10:50:00     -171.945      -64.334       -5.552       55.305       42.778       23.147     3058.631     1829.962      535.785        1.958        0.271      183.587       23.477        0.016      338.116       10.548      867.543
03/08/2014  10:51:00     -157.287      -88.008        5.775       63.979       82.936       40.878     4093.332     6878.450     1671.044        2.258        0.632      180.235       34.347        0.036      338.349       10.937      867.521
03/08/2014  10:52:00     -117.066      -26.929       -4.353       49.402       36.544       27.827     2440.539     1335.499      774.331        0.950        0.228      120.123       22.336        0.035      338.357       10.953      867.499
03/08/2014  10:53:00     -173.379      -30.211       -6.114       62.712       59.652       28.069     3932.760     3558.330      787.876        1.964        0.414      175.992       28.169        0.026      338.222       10.724      867.485
03/08/2014  10:54:00      -56.550       19.249       11.404       64.145       60.466       40.301     4114.552     3656.173     1624.138        0.654        0.470       59.736       19.732        0.109      339.165       12.313      867.454
03/08/2014  10:55:00       10.980       -1.428       15.232       36.426       54.191       26.275     1326.885     2936.669      690.378        0.265        0.248       11.073       10.901        0.969      339.218       12.401      867.438
03/08/2014  10:56:00      -25.442       27.696       -1.192       39.630       55.021       32.446     1570.552     3027.332     1052.742        0.353        0.283       37.608       30.829        0.672      338.751       11.617      867.441
03/08/2014  10:57:00      -24.316      -16.975       -2.633       18.734       26.071       15.577      350.961      679.719      242.645        0.108        0.064       29.655       12.682        0.183      338.564       11.302      867.436
03/08/2014  10:58:00      -55.062       -6.415        3.985       59.289       40.224       25.259     3515.126     1617.960      638.026        0.443        0.289       55.435       27.431        0.245      338.878       11.829      867.424
03/08/2014  10:59:00      -62.859      -67.288        2.610       39.619       80.558       26.003     1569.668     6489.668      676.172        0.861        0.437       92.081       26.168        0.081      338.829       11.746      867.418
03/08/2014  11:00:00      -91.568      -92.116       -0.725       90.176       56.614       36.323     8131.760     3205.180     1319.344        1.476        0.633      129.885       30.157        0.054      338.456       11.118      867.408
03/08/2014  11:01:00     -102.008       -6.500       -0.505       63.827       40.356       29.960     4073.873     1628.578      897.621        0.852        0.330      102.214       32.762        0.103      338.692       11.516      867.393
03/08/2014  11:02:00     -102.787     -126.865      -13.766       44.260       56.391       29.418     1958.981     3179.947      865.438        1.643        0.300      163.279       20.479        0.016      338.373       10.982      867.374
03/08/2014  11:03:00      -61.757      -96.183      -15.400       23.737       77.950       21.096      563.461     6076.200      445.062        1.019        0.354      114.303       20.508        0.032      338.243       10.763      867.355
03/08/2014  11:04:00      -97.306      -52.110        3.430       71.174       69.788       32.551     5065.716     4870.381     1059.538        1.159        0.550      110.381       31.614        0.082      338.635       11.420      867.334
03/08/2014  11:05:00      -52.928     -105.183       -3.693       89.598       81.728       45.127     8027.874     6679.486     2036.414        1.531        0.837      117.749       40.587        0.119      338.932       11.918      867.327
03/08/2014  11:06:00      -10.222     -142.463      -23.271       62.199       73.357       54.495     3868.713     5381.295     2969.656        1.658        0.611      142.830       39.920        0.078      338.998       12.029      867.317
03/08/2014  11:07:00      -35.570      -37.790        4.835       59.197       49.552       26.362     3504.256     2455.400      694.981        0.468        0.333       51.898       19.681        0.144      339.019       12.066      867.334
03/08/2014  11:08:00      -52.978      -10.924       17.199       44.559       37.932       26.905     1985.494     1438.850      723.895        0.368        0.207       54.092       22.839        0.178      339.258       12.469      867.321
03/08/2014  11:09:00       39.445      -82.142      -16.058       59.987       64.420       38.905     3598.405     4149.883     1513.594        0.891        0.463       91.122       40.719        0.200      339.194       12.362      867.319
03/08/2014  11:10:00      -71.025      -69.945       -6.376       56.620       67.520       32.678     3205.864     4558.960     1067.856        0.940        0.442       99.684       38.237        0.147      339.011       12.052      867.311
03/08/2014  11:11:00      -16.031       10.062       38.754       34.683       43.637       40.465     1202.920     1904.196     1637.382        0.330        0.237       18.928       35.092        3.437      339.553       12.965      867.310
03/08/2014  11:12:00        4.564       18.952       35.633       34.959       59.607       35.795     1222.143     3553.019     1281.267        0.385        0.303       19.494       29.678        2.318      339.337       12.600      867.302
03/08/2014  11:13:00       59.171       -3.104       33.743       52.996       56.360       39.798     2808.624     3176.433     1583.879        0.611        0.378       59.253       28.689        0.234      339.261       12.475      867.297
03/08/2014  11:14:00       98.942       97.014       76.215       49.012       58.594       51.422     2402.127     3433.289     2644.249        1.674        0.424      138.569       44.255        0.102      338.920       11.899      867.277
03/08/2014  11:15:00       44.713      110.208      112.043       92.479       44.196       50.990     8552.399     1953.262     2599.981        1.990        0.655      118.933       50.878        0.183      339.066       12.144      867.257
03/08/2014  11:16:00       26.939       85.403      115.680       64.877       97.947       63.604     4208.972     9593.653     4045.495        1.962        0.892       89.551       63.331        0.500      339.523       12.914      867.250
03/08/2014  11:17:00       64.716      130.547      140.229       88.377       77.522       47.735     7810.465     6009.588     2278.637        2.849        0.805      145.707       45.624        0.098      339.024       12.072      867.244
03/08/2014  11:18:00       34.687       21.101       54.341       57.834      140.408       78.689     3344.738    19714.454     6191.941        1.692        1.463       40.601       90.750        4.996      339.060       12.134      867.239
03/08/2014  11:19:00       55.780     -152.427      -27.690       42.594       74.397       33.309     1814.213     5534.890     1109.516        1.778        0.423      162.312       23.632        0.021      338.911       11.885      867.231
03/08/2014  11:20:00       24.342      -14.591       39.737       35.256       65.386       52.759     1242.995     4275.281     2783.538        0.534        0.415       28.381       51.360        3.275      339.218       12.402      867.234
03/08/2014  11:21:00       55.700       45.965       27.075       49.445       65.102       40.084     2444.783     4238.220     1606.719        0.712        0.414       72.217       30.349        0.177      338.922       11.903      867.228
03/08/2014  11:22:00       -2.135       25.095       44.583       30.561       63.803       45.352      933.961     4070.786     2056.819        0.484        0.353       25.186       33.819        1.803      339.318       12.569      867.203
03/08/2014  11:23:00       22.845       15.427       23.755       37.288       44.875       28.409     1390.425     2013.754      807.061        0.277        0.211       27.566       12.572        0.208      339.430       12.759      867.200
03/08/2014  11:24:00       63.646       28.292       21.283       45.852       61.451       32.060     2102.396     3776.242     1027.829        0.610        0.345       69.651       20.698        0.088      339.123       12.241      867.189
03/08/2014  11:25:00       49.240       15.664       35.495       59.880       66.249       39.315     3585.670     4388.883     1545.686        0.672        0.476       51.672       42.439        0.675      338.917       11.895      867.182
03/08/2014  11:26:00       40.098       53.935       19.894       77.499       58.764       42.888     6006.090     3453.166     1839.376        0.810        0.565       67.208       27.574        0.168      339.197       12.366      867.173
03/08/2014  11:27:00       43.967       13.948       48.735       72.738       95.408       54.198     5290.853     9102.702     2937.422        1.091        0.867       46.127       57.143        1.535      339.328       12.586      867.162
03/08/2014  11:28:00      216.772       91.065       17.970       63.778       54.552       45.233     4067.685     2975.920     2046.032        3.235        0.454      235.124       32.553        0.019      338.954       11.951      867.165
03/08/2014  11:29:00      129.908       78.935       18.755       59.821       37.095       47.800     3578.503     1376.060     2284.843        1.535        0.362      152.009       22.166        0.021      339.164       12.309      867.167
03/08/2014  11:30:00       73.940       56.888       23.928       64.125       42.155       31.222     4112.039     1777.004      974.842        0.807        0.343       93.292       11.834        0.016      339.502       12.879      867.170
03/08/2014  11:31:00        9.307       20.083       12.881       28.324       32.661       28.507      802.241     1066.747      812.659        0.167        0.134       22.135       21.383        0.933      339.403       12.714      867.175
03/08/2014  11:32:00       51.390       63.582       56.081       57.834       47.529       56.492     3344.775     2259.033     3191.365        0.931        0.440       81.753       36.788        0.202      339.588       13.024      867.182
03/08/2014  11:33:00       23.371       44.853       25.427       36.646       39.609       25.037     1342.893     1568.869      626.868        0.337        0.177       50.576        7.737        0.023      339.615       13.069      867.190
03/08/2014  11:34:00       44.249       40.537        6.443       26.057       29.407       24.858      678.989      864.762      617.908        0.290        0.108       60.010       14.074        0.055      339.110       12.219      867.192
03/08/2014  11:35:00       -6.014       66.200        0.494       34.351       75.994       34.414     1180.014     5775.130     1184.317        0.628        0.407       66.472       27.509        0.171      339.469       12.825      867.196
03/08/2014  11:36:00       33.341       73.306       -2.313       59.091       56.809       41.371     3491.751     3227.269     1711.520        0.746        0.422       80.532       35.163        0.191      339.461       12.810      867.177
03/08/2014  11:37:00       15.484       11.358       13.690       48.169       58.463       28.846     2320.266     3417.876      832.078        0.356        0.329       19.203       30.529        2.527      339.559       12.974      867.169
03/08/2014  11:38:00      -32.883       39.427       10.879       36.960       26.031       28.808     1366.033      677.600      829.912        0.281        0.144       51.340       26.527        0.267      339.724       13.253      867.144
03/08/2014  11:39:00      -40.371       49.850       -4.550       33.422       38.909       26.710     1116.999     1513.900      713.402        0.374        0.167       64.147       24.625        0.147      339.664       13.153      867.116
03/08/2014  11:40:00       -3.242        3.676       23.563       22.753       19.257       19.379      517.716      370.821      375.527        0.092        0.063        4.901       15.478        9.973      340.239       14.123      867.100
03/08/2014  11:41:00       50.472       40.425       19.125       46.988       51.851       38.593     2207.827     2688.577     1489.407        0.547        0.319       64.665       27.615        0.182      339.869       13.497      867.068
03/08/2014  11:42:00      111.369       96.167       62.266       74.843       59.728       56.612     5601.547     3567.395     3204.953        1.895        0.619      147.143       36.679        0.062      339.680       13.179      867.032
03/08/2014  11:43:00      102.766      127.959      122.541       87.337       66.518       66.868     7627.731     4424.679     4471.341        2.923        0.826      164.116       44.587        0.074      339.502       12.876      867.027
03/08/2014  11:44:00       73.335       95.106       62.446       73.611       65.102       68.786     5418.513     4238.275     4731.518        1.635        0.719      120.097       51.559        0.184      339.454       12.798      867.017
03/08/2014  11:45:00      110.854       89.513       89.507      107.145       64.023       70.277    11480.157     4098.900     4938.804        2.441        1.026      142.482       71.085        0.249      339.717       13.242      867.003
03/08/2014  11:46:00       89.271      133.401      132.649       90.151       64.778       59.329     8127.139     4196.154     3519.968        2.960        0.792      160.515       55.420        0.119      339.356       12.630      866.988
03/08/2014  11:47:00      107.246      117.975      114.606       73.258       67.595       63.371     5366.693     4569.017     4015.835        2.625        0.698      159.436       50.630        0.101      339.348       12.617      866.966
03/08/2014  11:48:00      163.578       94.185       35.809       68.518       64.552       61.092     4694.749     4166.945     3732.220        2.475        0.630      188.755       48.303        0.065      339.120       12.233      866.937
03/08/2014  11:49:00      113.472       85.010       51.068       68.702       54.543       60.024     4719.929     2974.959     3602.848        1.700        0.565      141.784       41.279        0.085      339.655       13.138      866.907
03/08/2014  11:50:00       54.276      109.372      110.291       60.120       56.274       30.235     3614.399     3166.785      914.137        1.738        0.385      122.099       19.122        0.025      339.509       12.890      866.884
03/08/2014  11:51:00        8.048       39.371       50.221       35.339       59.480       42.006     1248.830     3537.820     1764.532        0.534        0.328       40.185       35.274        0.771      339.582       13.014      866.865
03/08/2014  11:52:00       63.110       61.837       23.510       62.520       26.619       34.027     3908.710      708.546     1157.810        0.707        0.289       88.355       29.843        0.114      339.348       12.620      866.847
03/08/2014  11:53:00      -25.824       27.683      -15.456       45.697       45.507       30.251     2088.177     2070.859      915.127        0.337        0.254       37.859       22.690        0.359      339.161       12.305      866.829
03/08/2014  11:54:00        5.865       11.273        0.091       33.697       16.421       19.981     1135.464      269.637      399.228        0.098        0.090       12.708       18.071        2.022      339.667       13.157      866.798
03/08/2014  11:55:00       40.568       33.516        5.430       73.636       40.530       23.187     5422.302     1642.720      537.641        0.520        0.380       52.621       28.074        0.285      339.548       12.958      866.798
03/08/2014  11:56:00      115.330       65.260       20.443       56.311       38.512       34.123     3170.970     1483.140     1164.348        1.190        0.291      132.514       27.459        0.043      339.555       12.967      866.788
03/08/2014  11:57:00       73.139       58.032       -6.627       41.318       38.292       29.294     1707.182     1466.267      858.157        0.640        0.202       93.365       21.056        0.051      339.679       13.178      866.777
03/08/2014  11:58:00       73.825      -17.428       50.224       81.485       79.723       58.064     6639.764     6355.686     3371.470        1.232        0.818       75.854       57.793        0.580      339.970       13.669      866.790
03/08/2014  11:59:00      106.370     -109.333       -9.263       58.640       87.384       55.927     3438.685     7636.044     3127.851        1.878        0.710      152.539       46.068        0.091      339.634       13.100      866.782
03/08/2014  12:00:00       96.560      -59.639       16.236       53.255       36.150       38.009     2836.050     1306.812     1444.658        0.936        0.279      113.493       31.991        0.079      339.511       12.896      866.785
03/08/2014  12:01:00       -2.067      -99.902      -13.983       38.613       49.314       31.968     1490.926     2431.894     1021.935        0.756        0.247       99.923       14.833        0.022      339.434       12.763      866.776
03/08/2014  12:02:00       17.906        0.726       20.862       24.622       53.494       39.182      606.226     2861.579     1535.213        0.288        0.250       17.920       33.046        3.400      339.815       13.407      866.737
03/08/2014  12:03:00       14.930       61.984       81.661       61.492       42.777       35.635     3781.246     1829.878     1269.878        0.881        0.344       63.757       37.419        0.344      340.070       13.839      866.708
03/08/2014  12:04:00       81.788      107.995      -11.664       65.016       40.409       36.871     4227.082     1632.884     1359.483        1.285        0.361      135.471       25.311        0.035      339.547       12.955      866.686
03/08/2014  12:05:00       20.142      109.448       -4.477       32.355       48.058       40.760     1046.834     2309.569     1661.381        0.871        0.251      111.286       34.892        0.098      339.573       12.998      866.656
03/08/2014  12:06:00      -24.663      108.855        1.451       31.320       65.126       32.427      980.954     4241.371     1051.536        0.937        0.314      111.614       34.805        0.097      339.822       13.419      866.633
03/08/2014  12:07:00      -34.559       24.342        8.104       32.740       50.635       21.079     1071.919     2563.871      444.325        0.297        0.204       42.271       20.491        0.235      339.952       13.638      866.632
03/08/2014  12:08:00      -65.036      -23.712        1.371       51.210       45.657       26.091     2622.420     2084.538      680.747        0.509        0.269       69.223       35.203        0.259      339.754       13.304      866.633
03/08/2014  12:09:00       26.432      -15.191       14.518       36.720       33.790       27.378     1348.342     1141.769      749.578        0.219        0.162       30.486       21.659        0.505      340.372       14.346      866.620
03/08/2014  12:10:00       -2.740       11.197       36.561       52.064       48.946       31.129     2710.676     2395.742      969.020        0.377        0.304       11.527       18.765        2.650      340.398       14.392      866.620
03/08/2014  12:11:00       14.092       13.848       17.004       50.735       37.282       31.640     2574.082     1389.957     1001.094        0.282        0.248       19.758       19.996        1.024      340.243       14.130      866.613
03/08/2014  12:12:00      119.837       70.285       14.684       91.655       56.966       46.602     8400.572     3245.140     2171.759        1.666        0.691      138.928       29.389        0.045      339.991       13.703      866.580
03/08/2014  12:13:00       91.967       54.413        8.174       55.350       43.702       40.673     3063.610     1909.886     1654.269        0.906        0.331      106.858       18.529        0.030      339.974       13.675      866.563
03/08/2014  12:14:00      192.164       96.156        2.404       54.066       46.460       41.421     2923.166     2158.514     1715.706        2.649        0.340      214.880       21.652        0.010      339.637       13.104      866.532
03/08/2014  12:15:00      106.110       59.820       39.680       79.977       48.437       56.896     6396.333     2346.135     3237.118        1.419        0.599      121.811       53.623        0.194      339.746       13.291      866.510
03/08/2014  12:16:00       36.223       68.734       15.338       52.083       58.960       35.313     2712.593     3476.256     1246.989        0.685        0.372       77.695       30.510        0.154      339.910       13.569      866.498
03/08/2014  12:17:00       69.337      120.876       -1.960       71.475       67.657       46.799     5108.611     4577.477     2190.188        1.565        0.594      139.350       37.839        0.074      339.805       13.389      866.473
03/08/2014  12:18:00       32.366       58.442        8.187       32.414       50.147       35.650     1050.692     2514.746     1270.956        0.468        0.242       66.806       22.848        0.117      340.098       13.884      866.457
03/08/2014  12:19:00       82.043       61.515      -13.998       66.691       41.997       33.363     4447.719     1763.727     1113.123        0.902        0.366      102.543       24.810        0.059      340.010       13.736      866.415
03/08/2014  12:20:00      187.618       85.439       24.985       69.174       57.664       49.895     4785.067     3325.104     2489.470        2.686        0.530      206.156       16.083        0.006      339.979       13.682      866.367
03/08/2014  12:21:00      111.353      105.069       42.141       84.024       58.375       48.789     7060.066     3407.636     2380.359        1.903        0.642      153.098       39.682        0.067      340.104       13.893      866.308
03/08/2014  12:22:00      103.977       83.412       48.754       73.531       69.453       62.794     5406.749     4823.714     3943.132        1.716        0.709      133.299       58.698        0.194      339.940       13.616      866.242
03/08/2014  12:23:00       60.711       62.176       16.016       47.441       57.990       50.985     2250.672     3362.860     2599.423        0.801        0.411       86.900       12.526        0.021      340.036       13.781      866.187
03/08/2014  12:24:00       85.412       54.907       26.565       68.930       61.356       44.163     4751.284     3764.569     1950.371        1.074        0.523      101.538       18.924        0.035      340.088       13.867      866.137
03/08/2014  12:25:00      128.689       75.108        3.723       67.476       62.739       43.926     4553.042     3936.244     1929.464        1.632        0.521      149.004       31.884        0.046      340.185       14.029      866.079
03/08/2014  12:26:00      121.354       84.216       47.556       81.219       51.264       53.241     6596.569     2627.982     2834.557        1.807        0.603      147.713       33.980        0.053      340.320       14.257      866.065
03/08/2014  12:27:00       92.567       52.975       11.966       43.378       35.555       34.757     1881.694     1264.157     1208.027        0.794        0.218      106.654       14.982        0.020      339.872       13.502      866.069
03/08/2014  12:28:00      106.816       67.875       18.275       41.840       45.699       41.238     1750.560     2088.369     1700.544        1.094        0.277      126.557       19.410        0.024      339.842       13.454      866.053
03/08/2014  12:29:00        1.506       12.365       26.319       42.988       29.845       42.657     1847.934      890.701     1819.658        0.270        0.228       12.457       38.530        9.568      340.223       14.094      866.042
03/08/2014  12:30:00      -22.634       18.629       -2.712       29.461       24.223       24.871      867.946      586.742      618.565        0.147        0.104       29.315       18.562        0.401      340.425       14.437      866.037
03/08/2014  12:31:00      -58.097        7.198      -12.252       22.415       26.340       22.467      502.450      693.776      504.744        0.264        0.085       58.541       14.890        0.065      339.997       13.715      866.012
03/08/2014  12:32:00       34.906       32.358       19.385       56.084       36.457       24.085     3145.365     1329.117      580.066        0.385        0.253       47.597       25.128        0.279      340.681       14.869      865.981
03/08/2014  12:33:00       90.085       41.364       18.933       70.069       47.590       45.526     4909.602     2264.788     2072.636        0.971        0.462       99.128       16.893        0.029      340.347       14.306      865.951
03/08/2014  12:34:00       74.635       88.831        2.216       68.037       44.696       48.364     4629.022     1997.776     2339.089        1.121        0.448      116.023       33.922        0.085      340.427       14.439      865.902
03/08/2014  12:35:00       48.014       37.121       34.364       67.199       51.641       63.229     4515.736     2666.772     3997.889        0.802        0.559       60.691       50.602        0.695      340.741       14.971      865.872
03/08/2014  12:36:00       59.834       65.622      104.462       77.375       64.213       56.841     5986.833     4123.326     3230.904        1.607        0.667       88.805       50.851        0.328      340.606       14.743      865.853
03/08/2014  12:37:00      117.954       95.154       18.125       83.373       54.724       49.660     6951.071     2994.716     2466.080        1.785        0.621      151.550       22.147        0.021      340.144       13.960      865.848
03/08/2014  12:38:00       52.981       65.100        1.759       90.937       70.759       44.890     8269.494     5006.844     2015.132        1.117        0.765       83.934       37.175        0.196      340.379       14.358      865.856
03/08/2014  12:39:00        7.095       33.822        0.673       30.567       36.470       22.858      934.337     1330.044      522.483        0.199        0.139       34.558       18.274        0.280      340.593       14.721      865.872
03/08/2014  12:40:00      -30.254       35.736      -10.010       29.098       25.018       24.652      846.686      625.891      607.712        0.219        0.104       46.823       19.898        0.181      340.518       14.594      865.882
03/08/2014  12:41:00      -33.768       21.552        3.986       39.090       25.045       26.362     1528.060      627.251      694.973        0.223        0.143       40.060       23.515        0.345      340.852       15.159      865.898
03/08/2014  12:42:00      -17.398       27.124       15.784       44.897       28.042       24.974     2015.718      786.373      623.717        0.236        0.171       32.224       22.492        0.487      341.117       15.608      865.901
03/08/2014  12:43:00      -98.291      -13.745        0.561       50.199       35.373       25.588     2519.929     1251.263      654.728        0.714        0.221       99.248       27.198        0.075      340.416       14.422      865.904
03/08/2014  12:44:00       60.207       37.079       38.841       42.153       30.035       26.525     1776.888      902.107      703.592        0.494        0.169       70.709       16.472        0.054      340.846       15.149      865.882
03/08/2014  12:45:00      168.152       90.930       21.973       60.897       48.327       31.439     3708.387     2335.539      988.382        2.203        0.352      191.163        4.247        0.000      340.157       13.981      865.870
03/08/2014  12:46:00       93.932       70.176       10.703       58.882       58.983       38.970     3467.098     3478.993     1518.638        1.116        0.423      117.252       23.156        0.039      340.161       13.990      865.864
03/08/2014  12:47:00       27.850       58.895       53.229       52.943       71.326       55.968     2802.990     5087.412     3132.393        0.905        0.551       65.148       49.068        0.567      340.791       15.055      865.844
03/08/2014  12:48:00       50.509       37.199       68.630       42.816       95.714       46.627     1833.233     9161.201     2174.039        1.090        0.658       62.729       55.590        0.785      340.468       14.511      865.833
03/08/2014  12:49:00       42.296       17.084       17.412       45.343       47.829       38.902     2055.957     2287.588     1513.348        0.412        0.293       45.616       31.085        0.464      340.601       14.733      865.833
03/08/2014  12:50:00       29.121       50.587       11.342       55.219       46.042       33.993     3049.163     2119.899     1155.554        0.493        0.316       58.370       32.846        0.317      340.674       14.857      865.825
03/08/2014  12:51:00       10.479       -8.426        9.077       36.034       40.463       34.225     1298.431     1637.263     1171.346        0.218        0.205       13.447       28.871        4.610      340.813       15.093      865.808
03/08/2014  12:52:00      -16.538       25.682       43.604       34.594       35.632       20.921     1196.757     1269.626      437.668        0.287        0.145       30.546       21.746        0.507      340.796       15.064      865.800
03/08/2014  12:53:00      -30.683        9.260       14.959       29.058       25.748       23.926      844.379      662.963      572.441        0.166        0.104       32.050       22.034        0.473      340.948       15.321      865.788
03/08/2014  12:54:00      -77.349       31.310       -0.043       17.256       20.450       16.142      297.760      418.190      260.574        0.397        0.049       83.446        7.184        0.007      340.684       14.876      865.784
03/08/2014  12:55:00        1.867        9.605       16.679       29.745       16.535       14.291      884.744      273.401      204.237        0.087        0.068        9.785        8.074        0.681      341.089       15.561      865.780
03/08/2014  12:56:00       14.602       51.236       45.450       26.044       36.563       52.442      678.288     1336.868     2750.116        0.483        0.238       53.276       35.505        0.444      341.007       15.422      865.772
03/08/2014  12:57:00       71.169       46.590       43.863       50.320       28.848       25.608     2532.054      832.226      655.775        0.659        0.201       85.062       21.994        0.067      340.497       14.558      865.778
03/08/2014  12:58:00       19.778       19.973       46.422       39.530       65.604       30.161     1562.632     4303.934      909.687        0.486        0.339       28.109       32.709        1.354      340.879       15.204      865.770
03/08/2014  12:59:00       35.563      -14.908       30.324       35.092       65.224       32.032     1231.432     4254.175     1026.054        0.446        0.326       38.562       38.031        0.973      341.064       15.517      865.750
03/08/2014  13:00:00       92.345       82.123       50.215       60.383       42.999       61.780     3646.085     1848.922     3816.773        1.355        0.466      123.579       44.240        0.128      340.649       14.814      865.732
03/08/2014  13:01:00       33.842       44.055       23.861       42.254       47.824       28.327     1785.397     2287.105      802.432        0.426        0.244       55.553       15.770        0.081      340.862       15.176      865.710
03/08/2014  13:02:00       70.380      -39.545       24.495       48.969       93.041       59.440     2397.970     8656.545     3533.154        1.085        0.729       80.729       65.883        0.666      340.707       14.914      865.676
03/08/2014  13:03:00       45.485      -93.737       16.300       55.293      107.967       35.873     3057.367    11656.978     1286.904        1.356        0.800      104.190       37.812        0.132      340.943       15.312      865.639
03/08/2014  13:04:00       28.535      -29.593        6.062       28.866       65.331       28.379      833.271     4268.112      805.370        0.382        0.295       41.110       34.646        0.710      341.049       15.492      865.632
03/08/2014  13:05:00       14.381      -98.188       10.355       32.631       74.591       42.251     1064.795     5563.885     1785.127        0.918        0.421       99.235       42.703        0.185      341.084       15.551      865.609
03/08/2014  13:06:00      -75.799      -32.604        9.207       77.242       74.458       44.397     5966.366     5544.010     1971.114        1.018        0.674       82.514       39.004        0.223      341.336       15.978      865.572
03/08/2014  13:07:00       96.390      -75.701       18.682       46.496       81.623       35.349     2161.905     6662.244     1249.543        1.272        0.504      122.563       42.180        0.118      340.570       14.680      865.600
03/08/2014  13:08:00       15.458       29.612       45.532       37.657       38.393       38.479     1418.040     1474.005     1480.602        0.378        0.219       33.404       33.383        0.999      341.012       15.431      865.575
03/08/2014  13:09:00       21.816       15.018       35.921       31.373       55.307       52.072      984.239     3058.840     2711.515        0.437        0.338       26.486       50.426        3.625      340.987       15.387      865.574
03/08/2014  13:10:00       46.709       12.141       10.800       36.565       21.746       22.927     1336.965      472.885      525.660        0.239        0.117       48.261        5.241        0.012      340.885       15.213      865.558
03/08/2014  13:11:00       57.025       48.120       12.465       37.481       40.561       32.645     1404.822     1645.195     1065.675        0.492        0.206       74.615       11.113        0.022      341.055       15.501      865.539
03/08/2014  13:12:00      135.103       85.081       40.468       44.941       49.490       44.291     2019.704     2449.244     1961.665        1.678        0.322      159.661       32.841        0.042      340.732       14.953      865.541
03/08/2014  13:13:00      110.555       67.923       18.311       42.425       42.861       41.679     1799.874     1837.031     1737.169        1.127        0.269      129.753        7.894        0.004      340.773       15.024      865.526
03/08/2014  13:14:00      151.859       91.657       63.668       81.775       78.866       71.811     6687.227     6219.781     5156.875        2.679        0.903      177.375       50.752        0.082      341.155       15.669      865.492
03/08/2014  13:15:00       92.823      100.320       69.180      103.122       90.929       91.218    10634.066     8268.071     8320.705        2.534        1.361      136.675       81.341        0.354      341.302       15.919      865.480
03/08/2014  13:16:00      181.941      137.350       97.262       93.429       76.704       80.791     8728.923     5883.464     6527.243        4.128        1.057      227.964       63.427        0.077      341.083       15.546      865.463
03/08/2014  13:17:00      226.718      152.391       83.216      121.813       62.567       72.454    14838.420     3914.628     5249.643        5.277        1.200      273.175       54.580        0.040      341.138       15.638      865.444
03/08/2014  13:18:00       65.684       78.662      138.943       93.131      149.840       82.909     8673.307    22452.163     6873.983        3.390        1.900      102.480       96.713        0.891      341.286       15.890      865.449
03/08/2014  13:19:00       50.170       35.211       81.878       99.236       88.124       58.872     9847.723     7765.768     3465.919        1.577        1.054       61.293       63.692        1.080      341.096       15.572      865.474
03/08/2014  13:20:00       11.585       20.410       53.171       44.991       77.676       60.053     2024.181     6033.614     3606.370        0.752        0.583       23.469       52.586        5.021      341.410       16.103      865.474
03/08/2014  13:21:00      -33.489       -8.749       37.631       66.324       67.571       41.498     4398.826     4565.869     1722.077        0.665        0.534       34.613       41.424        1.432      341.535       16.315      865.465
03/08/2014  13:22:00       40.043       18.038       48.725       54.228       70.488       46.082     2940.722     4968.564     2123.522        0.717        0.502       43.918       39.346        0.803      341.152       15.668      865.472
03/08/2014  13:23:00       47.846       16.365        2.706       40.588       31.858       39.077     1647.401     1014.925     1527.018        0.338        0.209       50.567        7.753        0.024      340.882       15.209      865.448
03/08/2014  13:24:00       -6.117       82.739      -13.258       28.754       28.331       20.222      826.810      802.628      408.948        0.455        0.102       82.965       12.308        0.022      340.871       15.190      865.416
03/08/2014  13:25:00       35.598       57.233       -7.073       24.768       22.854       21.764      613.449      522.302      473.689        0.310        0.080       67.401       17.295        0.066      340.981       15.376      865.404
03/08/2014  13:26:00       77.263       61.305       19.952       36.714       25.669       38.782     1347.890      658.894     1504.013        0.682        0.176       98.630       22.424        0.052      341.148       15.660      865.399
03/08/2014  13:27:00      220.871       89.526       26.495       80.162       56.890       55.774     6425.940     3236.529     3110.776        3.513        0.639      238.325       41.907        0.031      341.049       15.488      865.380
03/08/2014  13:28:00       94.257     -121.221        3.571      116.221      127.622       46.932    13507.432    16287.308     2202.643        2.779        1.600      153.554       60.562        0.156      341.359       16.014      865.344
03/08/2014  13:29:00       90.538      -79.705        2.783       45.201       58.463       34.291     2043.140     3417.903     1175.860        1.060        0.332      120.623       37.267        0.095      340.936       15.299      865.345
03/08/2014  13:30:00       12.888       26.799       65.989       35.424       72.211       55.957     1254.861     5214.403     3131.241        0.742        0.480       29.737       58.887        3.922      341.601       16.427      865.329
03/08/2014  13:31:00       66.765       58.817       94.533      100.912       74.475       62.613    10183.308     5546.551     3920.378        1.825        0.983       88.977       63.494        0.509      341.508       16.270      865.325
03/08/2014  13:32:00       29.914       27.817       70.325       72.425       77.786       49.217     5245.435     6050.691     2422.272        1.016        0.686       40.848       37.136        0.826      341.809       16.780      865.320
03/08/2014  13:33:00       67.160      -33.769       60.067       59.810       82.589       56.334     3577.277     6820.879     3173.505        1.141        0.679       75.172       54.179        0.519      341.788       16.746      865.329
03/08/2014  13:34:00       47.453      -40.977       42.453       43.242       87.673       50.526     1869.865     7686.493     2552.858        0.892        0.605       62.697       57.123        0.830      341.411       16.106      865.339
03/08/2014  13:35:00       45.267      -78.800       -6.360       24.438       38.066       21.300      597.240     1449.054      453.696        0.540        0.125       90.876       17.978        0.039      340.969       15.355      865.317
03/08/2014  13:36:00       -5.927        6.305       23.772       40.208       32.909       24.570     1616.657     1083.002      603.693        0.197        0.165        8.654       18.369        4.506      341.827       16.810      865.293
03/08/2014  13:37:00       44.245      -41.014       14.011       53.071       53.262       38.549     2816.539     2836.812     1486.058        0.549        0.357       60.330       36.645        0.369      341.502       16.261      865.283
03/08/2014  13:38:00       -2.439      -20.981       17.720       40.354       37.878       38.001     1628.438     1434.758     1444.072        0.263        0.225       21.123       22.764        1.161      341.905       16.943      865.279
03/08/2014  13:39:00        7.827       14.961       56.572       32.302       55.769       39.273     1043.426     3110.221     1542.364        0.459        0.285       16.884       37.743        4.997      342.142       17.345      865.269
03/08/2014  13:40:00       71.106     -116.623      -11.676       41.847       45.717       31.971     1751.140     2090.073     1022.150        1.183        0.243      136.591       28.790        0.044      341.246       15.825      865.267
03/08/2014  13:41:00       27.389      -54.805       -8.521       28.916       35.252       20.397      836.111     1242.688      416.055        0.316        0.125       61.268       15.370        0.063      341.163       15.685      865.264
03/08/2014  13:42:00       14.185      -13.849       23.482       26.487       30.550       24.529      701.577      933.297      601.668        0.159        0.112       19.825       10.110        0.260      341.758       16.693      865.253
03/08/2014  13:43:00       48.656       10.769       59.838       47.816       82.173       60.643     2286.355     6752.477     3677.561        0.939        0.636       49.834       59.386        1.420      341.752       16.682      865.242
03/08/2014  13:44:00      113.106      147.559      100.775       68.166       53.857       49.246     4646.631     2900.586     2425.144        2.735        0.499      185.921       39.286        0.045      341.426       16.127      865.241
03/08/2014  13:45:00       61.742       73.962       70.213       85.135       53.850       56.518     7247.928     2899.863     3194.229        1.377        0.667       96.345       57.711        0.359      341.898       16.929      865.237
03/08/2014  13:46:00       84.919       33.049       70.673      103.421       78.508       67.261    10695.996     6163.532     4524.006        1.734        1.069       91.124       62.777        0.475      341.543       16.328      865.225
03/08/2014  13:47:00      150.178       52.230       26.595      102.999       75.016       58.903    10608.779     5627.409     3469.586        2.284        0.985      159.001       35.681        0.050      341.096       15.569      865.224
03/08/2014  13:48:00      146.151       87.017       18.202       74.968       58.812       53.009     5620.173     3458.853     2809.985        2.057        0.594      170.094       42.383        0.062      341.365       16.026      865.214
03/08/2014  13:49:00      169.095      104.639       27.716       98.623       87.910       60.783     9726.590     7728.119     3694.528        3.073        1.057      198.853       24.241        0.015      341.418       16.114      865.195
03/08/2014  13:50:00      204.683      124.961        8.286       58.737       68.155       53.592     3450.030     4645.105     2872.078        3.427        0.548      239.813       19.974        0.007      341.415       16.107      865.176
03/08/2014  13:51:00      100.926       56.305       19.244       71.049       55.810       39.387     5047.962     3114.748     1551.303        1.172        0.486      115.570       32.305        0.078      341.776       16.722      865.159
03/08/2014  13:52:00       42.413      -61.053       18.154       58.231      109.777       54.440     3390.805    12050.984     2963.747        1.213        0.920       74.339       53.301        0.514      342.097       17.268      865.139
03/08/2014  13:53:00       63.743       54.968       91.236       69.675       88.093       64.330     4854.571     7760.456     4138.314        1.608        0.838       84.171       62.792        0.557      341.577       16.386      865.122
03/08/2014  13:54:00      129.029       23.602       80.075       89.184      125.578       90.381     7953.785    15769.817     8168.713        2.775        1.595      131.170       94.047        0.514      341.398       16.081      865.099
03/08/2014  13:55:00       14.303       45.360       83.106       50.835       74.146       47.922     2584.244     5497.655     2296.499        0.977        0.519       47.561       47.360        0.992      341.982       17.074      865.063
03/08/2014  13:56:00       50.039       94.557      128.545       73.241       73.802       52.598     5364.234     5446.749     2766.510        2.077        0.679      106.981       44.764        0.175      341.899       16.931      865.027
03/08/2014  13:57:00      239.327      117.789       60.268      124.088       98.987       89.364    15397.746     9798.375     7985.916        5.398        1.659      266.743       59.681        0.050      341.426       16.127      865.004
03/08/2014  13:58:00      204.609      127.572       21.293       74.381       67.326       51.985     5532.478     4532.835     2702.479        3.568        0.638      241.121       28.905        0.014      341.260       15.845      864.990
03/08/2014  13:59:00      140.312      109.866       71.393       92.171       86.788       86.030     8495.461     7532.145     7401.214        3.014        1.171      178.208       66.296        0.138      341.496       16.247      864.957
03/08/2014  14:00:00      211.088      111.787       58.184      110.950       85.975       75.477    12309.882     7391.707     5696.755        4.291        1.270      238.861       42.423        0.032      341.434       16.142      864.933
03/08/2014  14:01:00      212.112      138.242       15.875       80.927       76.044       57.750     6549.249     5782.697     3335.007        4.001        0.783      253.185       20.348        0.006      341.317       15.942      864.914
03/08/2014  14:02:00      128.459       60.203       19.167      111.289       74.204       44.020    12385.324     5506.264     1937.786        2.016        0.991      141.867       44.156        0.097      341.657       16.521      864.906
03/08/2014  14:03:00       73.940       27.174       24.678       72.816       51.833       44.538     5302.114     2686.654     1983.621        0.839        0.499       78.775       36.499        0.215      341.811       16.783      864.893
03/08/2014  14:04:00      148.848       90.063       14.228       56.476       53.146       44.530     3189.550     2824.539     1982.881        1.923        0.400      173.974       23.418        0.018      341.404       16.092      864.877
03/08/2014  14:05:00      125.895      104.765       79.314       87.007       77.948       79.871     7570.135     6075.854     6379.348        2.657        1.001      163.784       65.099        0.158      341.749       16.676      864.859
03/08/2014  14:06:00      188.323      187.424      162.759      140.947      113.930       97.231    19866.129    12979.941     9453.794        6.968        2.115      265.693       74.656        0.079      341.604       16.429      864.824
03/08/2014  14:07:00      165.120       89.400       75.233      148.257       82.990       90.943    21980.064     6887.395     8270.647        3.902        1.857      187.769       95.304        0.258      341.897       16.926      864.831
03/08/2014  14:08:00      150.071        5.252       65.142      112.749       94.864       86.000    12712.359     8999.085     7395.981        2.794        1.455      150.163       91.255        0.369      341.734       16.651      864.888
03/08/2014  14:09:00      112.426      -16.799       61.177       91.706       84.330       70.583     8409.994     7111.555     4981.897        1.858        1.025      113.674       61.221        0.290      341.893       16.921      864.923
03/08/2014  14:10:00      118.186       50.462       42.374       86.945       72.634       58.916     7559.482     5275.763     3471.060        1.730        0.815      128.508       47.535        0.137      341.868       16.878      864.959
03/08/2014  14:11:00        9.449       10.839       35.086      110.754      106.366       68.197    12266.557    11313.659     4650.851        1.483        1.412       14.380       81.526       32.144      341.856       16.858      865.004
03/08/2014  14:12:00       55.331     -144.194      -28.089       70.939       56.762       42.691     5032.306     3221.937     1822.496        1.736        0.504      154.445       34.839        0.051      341.776       16.723      865.037
03/08/2014  14:13:00       94.865      -80.044       -5.311       47.142       62.074       38.943     2222.326     3853.198     1516.582        1.151        0.380      124.123       35.063        0.080      341.556       16.349      865.077
03/08/2014  14:14:00       62.503        0.138       42.617       59.442       68.901       38.775     3533.300     4747.321     1503.500        0.775        0.489       62.503       38.942        0.388      341.834       16.823      865.103
03/08/2014  14:15:00       84.401       60.644       47.527       63.300       55.161       33.398     4006.919     3042.710     1115.436        1.061        0.408      103.929       35.381        0.116      341.626       16.469      865.121
03/08/2014  14:16:00       85.332       50.455        4.904       51.735       55.497       38.855     2676.538     3079.892     1509.725        0.856        0.363       99.133       25.227        0.065      341.687       16.572      865.105
03/08/2014  14:17:00       60.564      -20.140       -3.638       58.836       58.600       31.533     3461.712     3433.981      994.321        0.599        0.395       63.825       14.400        0.051      341.959       17.034      865.086
03/08/2014  14:18:00       13.620       43.867       13.998       28.902       25.900       28.012      835.345      670.798      784.663        0.230        0.115       45.932       17.116        0.139      342.123       17.314      865.058
03/08/2014  14:19:00        0.669      -14.631       18.475       30.218       57.432       26.426      913.111     3298.453      698.343        0.273        0.245       14.646       22.742        2.411      342.245       17.517      865.027
03/08/2014  14:20:00       52.592       45.481       50.532       61.961       43.987       42.401     3839.195     1934.841     1797.827        0.748        0.379       69.530       36.017        0.268      342.112       17.294      864.998
03/08/2014  14:21:00        9.318       -1.091       56.266       35.904       88.215       49.618     1289.083     7781.962     2461.902        0.739        0.577        9.382       51.828       30.516      342.118       17.306      864.964
03/08/2014  14:22:00       44.597      -39.575       11.969       42.216      101.640       52.341     1782.184    10330.663     2739.549        0.927        0.743       59.625       59.333        0.990      342.180       17.409      864.941
03/08/2014  14:23:00       43.510       -7.750       42.377       57.755       72.898       46.902     3335.590     5314.097     2199.809        0.730        0.542       44.194       38.614        0.763      342.104       17.280      864.920
03/08/2014  14:24:00       74.239      -86.026       11.610       63.649       83.838       42.569     4051.230     7028.873     1812.093        1.297        0.645      113.631       56.236        0.245      341.918       16.965      864.907
03/08/2014  14:25:00       36.838      -32.117        4.398       49.784       40.080       30.758     2478.414     1606.393      946.056        0.372        0.252       48.872       20.219        0.171      342.098       17.270      864.885
03/08/2014  14:26:00       69.103     -100.705       -0.279       41.600       77.502       37.303     1730.563     6006.615     1391.507        1.202        0.456      122.134       44.318        0.132      341.999       17.103      864.867
03/08/2014  14:27:00       25.077       49.897       88.364       45.008       82.393       54.611     2025.764     6788.546     2982.322        1.136        0.590       55.844       60.084        1.158      342.272       17.565      864.859
03/08/2014  14:28:00      133.489      -94.957       26.602       73.214      108.454       66.379     5360.244    11762.214     4406.146        2.453        1.076      163.817       72.798        0.197      341.926       16.976      864.844
03/08/2014  14:29:00       53.784     -103.412        8.839       52.874       82.852       38.126     2795.691     6864.476     1453.565        1.239        0.556      116.562       43.282        0.138      341.850       16.849      864.854
03/08/2014  14:30:00       79.960       24.272       29.104       39.313       43.385       33.017     1545.476     1882.297     1090.126        0.617        0.226       83.562       26.111        0.098      342.085       17.249      864.856
03/08/2014  14:31:00       94.138       50.206       26.417       82.054       33.567       33.068     6732.860     1126.717     1093.481        1.051        0.448      106.689       32.273        0.092      341.888       16.913      864.845
03/08/2014  14:32:00       84.270       42.815       13.364       56.537       52.436       49.445     3196.441     2749.510     2444.842        0.875        0.420       94.523       24.047        0.065      341.885       16.908      864.822
03/08/2014  14:33:00      145.768      111.897       25.080       66.521       43.706       42.512     4425.047     1910.247     1807.300        2.127        0.407      183.764       22.058        0.014      341.813       16.783      864.789
03/08/2014  14:34:00      151.796       65.742       48.417       87.137       49.130       56.060     7592.883     2413.804     3142.731        2.143        0.657      165.421       34.951        0.045      341.843       16.834      864.755
03/08/2014  14:35:00       99.052       46.286       43.666       94.582       65.411       61.205     8945.735     4278.618     3746.105        1.541        0.849      109.333       43.151        0.156      341.801       16.765      864.722
03/08/2014  14:36:00       71.164       88.434        0.009       69.595       45.452       38.685     4843.533     2065.902     1496.515        1.064        0.420      113.512       32.359        0.081      341.912       16.954      864.687
03/08/2014  14:37:00       96.534       86.676       80.103       85.980       62.604       65.684     7392.540     3919.200     4314.332        1.943        0.781      129.737       42.005        0.105      342.056       17.197      864.658
03/08/2014  14:38:00      139.610       79.092       62.756       93.662       79.786       71.455     8772.553     6365.861     5105.815        2.496        1.012      160.457       58.400        0.132      341.788       16.740      864.638
03/08/2014  14:39:00      147.212       85.907       13.499       77.535       60.089       56.024     6011.604     3610.714     3138.686        2.099        0.638      170.444       45.300        0.071      341.840       16.830      864.615
03/08/2014  14:40:00      124.950      102.307       20.189       90.384       60.459       44.914     8169.310     3655.296     2017.312        2.016        0.692      161.491       24.214        0.022      341.838       16.827      864.592
03/08/2014  14:41:00      185.431      111.031       42.241       72.170       68.167       60.565     5208.485     4646.748     3668.072        3.101        0.676      216.130       32.690        0.023      341.989       17.081      864.554
03/08/2014  14:42:00      123.314       61.304       72.702       91.196      114.550       58.362     8316.760    13121.738     3406.120        2.454        1.242      137.712       50.820        0.136      342.126       17.314      864.534
03/08/2014  14:43:00       88.777       79.213      116.244      102.149      132.911       70.305    10434.323    17665.234     4942.794        3.035        1.652      118.979       62.562        0.276      342.252       17.529      864.518
03/08/2014  14:44:00       50.093       42.034       80.376       53.523       96.145       75.013     2864.760     9243.909     5626.977        1.423        0.887       65.393       76.769        1.378      342.038       17.168      864.516
03/08/2014  14:45:00      123.780       50.026       37.883       68.047       49.569       38.764     4630.335     2457.089     1502.635        1.392        0.430      133.507       33.238        0.062      341.984       17.077      864.499
03/08/2014  14:46:00      128.079       72.584       59.124       94.412       84.737       72.185     8913.586     7180.393     5210.744        2.323        1.065      147.216       52.060        0.125      342.018       17.131      864.458
03/08/2014  14:47:00      142.100       72.149       62.581       71.347       57.321       47.935     5090.371     3285.682     2297.775        1.999        0.534      159.367       35.881        0.051      342.175       17.398      864.449
03/08/2014  14:48:00       38.121      -28.857       30.923       48.766       80.730       42.755     2378.106     6517.382     1828.017        0.698        0.536       47.811       41.390        0.749      342.403       17.788      864.444
03/08/2014  14:49:00       26.765      -15.109       41.306       55.926       71.484       40.100     3127.735     5110.006     1608.023        0.625        0.492       30.735       47.248        2.363      342.275       17.570      864.429
03/08/2014  14:50:00       52.796       71.921       75.243       59.157       57.344       41.717     3499.506     3288.380     1740.305        1.107        0.426       89.219       37.232        0.174      342.142       17.344      864.424
03/08/2014  14:51:00      109.163       76.103        3.488       70.950       57.270       40.605     5033.872     3279.901     1648.747        1.384        0.498      133.072       32.921        0.061      341.861       16.866      864.426
03/08/2014  14:52:00       88.500       85.755       -6.747       66.964       57.582       33.452     4484.116     3315.701     1119.008        1.207        0.446      123.233       28.946        0.055      341.863       16.872      864.425
03/08/2014  14:53:00       69.399       60.071       15.883       66.008       42.460       31.781     4357.032     1802.830     1010.047        0.792        0.358       91.786       15.699        0.029      341.881       16.901      864.452
03/08/2014  14:54:00       64.941       73.069       66.468       43.622       41.679       47.739     1902.902     1737.157     2278.992        0.995        0.296       97.757       31.557        0.104      342.019       17.136      864.473
03/08/2014  14:55:00       98.872       63.774       64.443      127.348      102.610       86.535    16217.386    10528.760     7488.248        2.611        1.712      117.655       74.533        0.401      342.064       17.212      864.471
03/08/2014  14:56:00      103.619       28.118       70.986       93.180       88.987       69.193     8682.491     7918.682     4787.734        1.897        1.069      107.366       71.444        0.443      342.220       17.477      864.482
03/08/2014  14:57:00      152.104      101.767       74.439       68.494       55.862       63.801     4691.452     3120.512     4070.618        2.546        0.594      183.008       42.744        0.055      342.006       17.111      864.499
03/08/2014  14:58:00       60.185     -117.660        3.953       65.388       80.367       44.635     4275.575     6458.914     1992.280        1.510        0.636      132.160       43.760        0.110      342.265       17.552      864.516
03/08/2014  14:59:00       52.037       12.341       50.338       67.646       52.912       47.381     4575.935     2799.688     2244.996        0.751        0.481       53.480       30.257        0.320      342.200       17.444      864.507
03/08/2014  15:00:00       68.580       -5.442       54.462       65.626       79.943       61.160     4306.816     6390.834     3740.530        1.107        0.722       68.796       70.621        1.054      342.011       17.123      864.518
03/08/2014  15:01:00       79.671       17.932       49.404       52.877       64.500       43.541     2795.936     4160.187     1895.813        0.898        0.443       81.664       45.892        0.316      342.053       17.193      864.516
03/08/2014  15:02:00       81.476       27.274       57.278       45.677       65.730       57.210     2086.372     4320.394     3272.955        1.017        0.484       85.920       59.493        0.479      342.054       17.196      864.525
03/08/2014  15:03:00       32.292        4.645       31.318       43.066       39.845       31.577     1854.663     1587.601      997.121        0.324        0.222       32.624       32.704        1.005      342.221       17.479      864.541
03/08/2014  15:04:00      111.115       61.977       37.889       62.704       35.389       33.699     3931.802     1252.382     1135.598        1.197        0.316      127.231       22.333        0.031      341.992       17.089      864.545
03/08/2014  15:05:00       48.819      -23.020       13.729       46.057       38.701       36.772     2121.288     1497.792     1352.190        0.404        0.249       53.974       30.131        0.312      342.136       17.335      864.548
03/08/2014  15:06:00       36.929       78.882       47.441       63.238       50.024       53.936     3999.064     2502.383     2909.114        0.962        0.471       87.098       45.732        0.276      342.179       17.409      864.545
03/08/2014  15:07:00      108.025       61.501        7.113       67.050       44.796       45.284     4495.659     2006.723     2050.686        1.203        0.428      124.305       28.289        0.052      342.002       17.106      864.561
03/08/2014  15:08:00      121.936       73.173       15.212       36.062       42.835       30.392     1300.448     1834.830      923.695        1.226        0.203      142.207       14.351        0.010      341.993       17.092      864.561
03/08/2014  15:09:00       58.772       61.844        4.083       52.087       48.831       31.128     2713.049     2384.508      968.952        0.668        0.303       85.316       23.199        0.074      342.069       17.221      864.561
03/08/2014  15:10:00       26.729       36.973        5.464       37.125       26.628       21.969     1378.280      709.058      482.623        0.234        0.128       45.623       17.570        0.148      342.176       17.401      864.538
03/08/2014  15:11:00       82.279      -32.352        5.038       60.500       76.571       44.580     3660.276     5863.067     1987.386        0.967        0.576       88.411       46.541        0.277      342.293       17.600      864.531
03/08/2014  15:12:00      120.677      -96.819      -11.021       88.973       97.886       67.501     7916.217     9581.719     4556.449        2.305        1.103      154.715       67.076        0.188      342.161       17.375      864.498
03/08/2014  15:13:00      112.574     -131.991      -29.406       94.074       98.932       61.511     8849.995     9787.527     3783.571        2.669        1.121      173.478       55.497        0.102      342.124       17.312      864.502
03/08/2014  15:14:00       53.315      -71.893       20.535       50.218      100.891       57.732     2521.883    10179.021     3332.998        1.223        0.802       89.505       61.334        0.470      342.267       17.555      864.518
03/08/2014  15:15:00      111.031      -93.112        3.641       67.120      120.150       50.868     4505.062    14436.054     2587.571        2.127        1.076      144.906       70.391        0.236      342.079       17.236      864.525
03/08/2014  15:16:00       66.301      -29.457       22.420       23.539       37.571       28.513      554.089     1411.581      813.009        0.427        0.139       72.550       29.312        0.163      342.115       17.300      864.528
03/08/2014  15:17:00       22.368      -45.201       34.642       36.608       89.577       38.909     1340.130     8024.079     1513.936        0.731        0.544       50.433       51.698        1.051      342.372       17.735      864.519
03/08/2014  15:18:00       53.225      -84.371       -2.540       48.720       68.519       49.835     2373.675     4694.810     2483.481        0.975        0.478       99.756       41.314        0.172      342.464       17.890      864.511
03/08/2014  15:19:00       26.548      -71.807      -10.244       39.959       49.920       30.145     1596.697     2491.974      908.721        0.548        0.250       76.557       33.350        0.190      342.437       17.846      864.507
03/08/2014  15:20:00       51.134      -87.090       -6.542       44.007       48.957       28.149     1936.628     2396.827      792.353        0.768        0.256      100.992       33.941        0.113      342.257       17.539      864.495
03/08/2014  15:21:00       24.946        8.512       27.553       51.106       59.347       40.955     2611.802     3522.113     1677.304        0.463        0.391       26.358       40.960        2.415      342.509       17.968      864.470
03/08/2014  15:22:00      -45.476      -17.296        8.486       49.811       48.643       31.667     2481.112     2366.095     1002.801        0.414        0.293       48.654       37.142        0.583      342.803       18.468      864.458
03/08/2014  15:23:00     -132.421      -58.285      -14.130       27.891       33.816       22.090      777.929     1143.534      487.963        1.177        0.120      144.681       12.993        0.008      342.088       17.252      864.460
03/08/2014  15:24:00      -35.831      -14.696        4.709       23.663       31.481       20.538      559.931      991.046      421.818        0.175        0.099       38.728       19.871        0.263      342.477       17.915      864.474
03/08/2014  15:25:00       36.281       37.248        7.038       30.493       16.486       22.026      929.826      271.780      485.155        0.222        0.084       51.998        9.300        0.032      342.397       17.778      864.476
03/08/2014  15:26:00      112.220       68.315       14.058       71.429       56.190       44.108     5102.077     3157.357     1945.500        1.383        0.510      131.379       20.021        0.023      342.264       17.550      864.478
03/08/2014  15:27:00      127.422       81.706       21.891       51.005       37.774       35.175     2601.554     1426.880     1237.297        1.433        0.263      151.368       20.763        0.019      342.250       17.528      864.480
03/08/2014  15:28:00       61.638       56.995        4.411       37.455       27.591       26.997     1402.891      761.263      728.829        0.498        0.145       83.950       20.144        0.058      342.171       17.395      864.477
03/08/2014  15:29:00       37.470       51.142        4.080       46.264       24.217       28.841     2140.334      586.464      831.786        0.380        0.178       63.399       26.753        0.178      342.277       17.573      864.459
03/08/2014  15:30:00       94.427       62.713       13.402       26.685       25.765       24.450      712.093      663.824      597.802        0.750        0.099      113.355       13.131        0.013      342.255       17.536      864.449
03/08/2014  15:31:00       63.827      -64.019       21.891       48.343      120.119       36.950     2337.068    14428.631     1365.312        1.339        0.907       90.401       53.036        0.344      342.463       17.888      864.432
03/08/2014  15:32:00       56.635      -61.724        4.655       49.046       51.425       32.336     2405.466     2644.575     1045.587        0.657        0.305       83.770       27.258        0.106      342.608       18.136      864.413
03/08/2014  15:33:00       77.676       74.046      106.390       77.045      110.342       67.683     5935.915    12175.409     4581.004        2.276        1.135      107.314       72.488        0.456      342.590       18.104      864.375
03/08/2014  15:34:00       71.273      -25.476       40.913       52.347       95.930       52.782     2740.227     9202.594     2785.929        1.106        0.736       75.690       49.638        0.430      342.658       18.222      864.363
03/08/2014  15:35:00       17.083      -74.827       17.336       47.843       42.133       38.614     2288.912     1775.167     1491.063        0.587        0.278       76.753       18.508        0.058      342.914       18.658      864.361
03/08/2014  15:36:00       87.560       -6.038       48.680       67.412       70.329       52.567     4544.409     4946.228     2763.270        1.116        0.613       87.768       46.448        0.280      342.677       18.253      864.359
03/08/2014  15:37:00       67.004       12.534       55.153       61.534       60.780       49.937     3786.493     3694.187     2493.693        0.883        0.499       68.166       42.959        0.397      342.551       18.039      864.356
03/08/2014  15:38:00       58.415       65.677       47.002       57.019       46.654       32.548     3251.139     2176.642     1059.382        0.821        0.324       87.896       28.700        0.107      342.379       17.747      864.353
03/08/2014  15:39:00       18.768       45.125       61.291       35.061       42.614       48.147     1229.280     1815.918     2318.168        0.575        0.268       48.872       42.544        0.758      342.483       17.925      864.350
03/08/2014  15:40:00       90.129       80.067       37.126       75.722       53.450       59.942     5733.798     2856.942     3593.068        1.405        0.609      120.556       53.429        0.196      342.311       17.630      864.333
03/08/2014  15:41:00      137.779       94.841       17.331       69.666       48.554       37.512     4853.408     2357.518     1407.162        1.845        0.431      167.266       12.586        0.006      342.276       17.571      864.322
03/08/2014  15:42:00      149.507      109.168       28.068       50.679       38.411       40.383     2568.390     1475.441     1630.804        2.036        0.284      185.121       34.036        0.034      342.104       17.278      864.310
03/08/2014  15:43:00       61.508       77.698        3.031       39.291       45.978       29.276     1543.790     2113.965      857.072        0.717        0.226       99.097       29.536        0.089      342.197       17.436      864.290
03/08/2014  15:44:00       54.691       41.651       11.426       28.515       16.528       22.014      813.129      273.187      484.600        0.321        0.079       68.745        7.881        0.013      342.350       17.698      864.265
03/08/2014  15:45:00       82.954       51.201       10.213       68.054       51.702       29.016     4631.331     2673.057      841.927        0.888        0.407       97.483       11.151        0.013      342.326       17.657      864.242
03/08/2014  15:46:00       18.145       85.503       -8.763       41.144       65.847       31.336     1692.841     4335.779      981.944        0.736        0.351       87.408       31.097        0.127      342.288       17.593      864.230
03/08/2014  15:47:00       15.974      171.394      -24.634       29.134       35.948       22.974      848.782     1292.256      527.790        1.645        0.133      172.136       19.432        0.013      342.147       17.355      864.216
03/08/2014  15:48:00       43.623       54.339        0.600       29.374       58.298       28.579      862.852     3398.696      816.731        0.497        0.254       69.683       32.884        0.223      342.277       17.574      864.216
03/08/2014  15:49:00       38.632       45.015       50.355       33.872       26.103       23.891     1147.316      681.343      570.801        0.423        0.120       59.319       12.401        0.044      342.466       17.896      864.222
03/08/2014  15:50:00      -33.091       24.229       21.569       50.548       36.020       37.377     2555.109     1297.411     1397.026        0.370        0.262       41.013       21.370        0.272      342.617       18.152      864.228
03/08/2014  15:51:00      -33.176      -22.552       17.325       41.663       34.363       23.922     1735.821     1180.805      572.274        0.270        0.174       40.115       23.425        0.341      342.872       18.585      864.232
03/08/2014  15:52:00        2.168      -19.750       26.785       15.975       30.838       27.545      255.188      950.956      758.713        0.154        0.098       19.869       18.138        0.833      342.892       18.620      864.244
03/08/2014  15:53:00        4.426       48.203       85.443       28.980       52.288       36.156      839.842     2734.007     1307.225        0.726        0.244       48.405       34.994        0.523      342.496       17.947      864.249
03/08/2014  15:54:00       53.601       65.824       84.887       56.173       50.430       41.217     3155.409     2543.202     1698.808        1.090        0.370       84.887       33.676        0.157      342.397       17.777      864.274
03/08/2014  15:55:00      105.968       98.642       92.756       50.922       51.140       56.274     2593.031     2615.312     3166.740        1.897        0.419      144.774       40.490        0.078      342.299       17.611      864.295
03/08/2014  15:56:00       51.703       59.193       74.237       66.814       58.397       39.528     4464.092     3410.221     1562.458        1.056        0.472       78.594       45.231        0.331      342.344       17.689      864.310
03/08/2014  15:57:00       38.925       42.579       75.158       54.783       52.664       39.316     3001.216     2773.530     1545.750        0.815        0.366       57.690       37.796        0.429      342.501       17.955      864.315
03/08/2014  15:58:00       99.360       82.097       64.747       63.136       68.981       49.543     3986.199     4758.383     2454.538        1.600        0.560      128.889       43.513        0.114      342.555       18.045      864.327
03/08/2014  15:59:00      108.671       72.361       50.437       72.251       44.097       45.135     5220.198     1944.563     2037.165        1.439        0.460      130.558       41.559        0.101      342.385       17.757      864.331
03/08/2014  16:00:00      101.112       92.900       54.842       64.995       48.245       50.583     4224.401     2327.619     2558.596        1.548        0.456      137.310       40.269        0.086      342.425       17.825      864.325
03/08/2014  16:01:00       70.269       73.006       66.043       57.920       75.936       58.342     3354.699     5766.233     3403.731        1.357        0.626      101.329       48.646        0.230      342.639       18.188      864.323
03/08/2014  16:02:00       23.341       73.272       82.852       35.245       45.745       26.062     1242.189     2092.576      679.213        0.840        0.201       76.900       22.043        0.082      342.531       18.006      864.336
03/08/2014  16:03:00       48.025       35.373        3.326       29.622       28.917       14.327      877.449      836.207      205.271        0.274        0.096       59.646       13.485        0.051      342.441       17.853      864.343
03/08/2014  16:04:00       41.816       25.639        2.136       42.802       23.884       27.660     1831.980      570.443      765.055        0.279        0.158       49.051       11.907        0.059      342.470       17.902      864.342
03/08/2014  16:05:00       19.030       -6.724       43.959       59.146       65.580       32.932     3498.270     4300.677     1084.494        0.561        0.444       20.183       33.998        2.838      342.696       18.286      864.345
03/08/2014  16:06:00       68.146      -28.725       25.072       63.365       65.199       37.617     4015.159     4250.948     1415.036        0.789        0.484       73.953       27.409        0.137      342.622       18.161      864.349
03/08/2014  16:07:00       51.185      -25.621       22.018       48.295       70.524       46.026     2332.415     4973.649     2118.381        0.659        0.471       57.239       43.377        0.574      342.728       18.340      864.355
03/08/2014  16:08:00       79.528      -38.477       32.250       51.576       88.697       46.975     2660.121     7867.124     2206.638        1.079        0.637       88.347       50.396        0.325      342.495       17.943      864.364
03/08/2014  16:09:00       94.894      -52.969       10.056       76.533       71.882       49.821     5857.299     5167.022     2482.144        1.271        0.675      108.677       48.540        0.199      342.518       17.983      864.354
03/08/2014  16:10:00       77.683      -60.851       17.417       44.498       58.230       47.036     1980.030     3390.765     2212.398        0.881        0.379       98.679       44.091        0.200      342.477       17.915      864.350
03/08/2014  16:11:00       60.300      -21.194        0.376       49.906       48.301       38.796     2490.654     2332.984     1505.106        0.521        0.316       63.916       35.211        0.303      342.566       18.063      864.347
03/08/2014  16:12:00       47.246      -74.298        3.376       53.318       49.887       44.172     2842.814     2488.709     1951.162        0.752        0.364       88.048       35.038        0.158      342.606       18.134      864.344
03/08/2014  16:13:00       48.509      -65.665       18.721       56.665      105.814       40.621     3210.871    11196.572     1650.037        1.153        0.803       81.640       37.357        0.209      342.776       18.421      864.347
03/08/2014  16:14:00       59.990       33.543       42.600       47.962       43.963       28.057     2300.378     1932.748      787.215        0.578        0.251       68.731       21.772        0.100      342.554       18.045      864.360
03/08/2014  16:15:00       51.289       30.138       30.689       45.560       38.567       29.162     2075.715     1487.403      850.425        0.445        0.221       59.489       22.671        0.145      342.535       18.014      864.350
03/08/2014  16:16:00       47.777      -63.442        8.381       42.102       54.344       35.113     1772.545     2953.304     1232.953        0.617        0.298       79.420       37.147        0.219      342.755       18.386      864.334
03/08/2014  16:17:00       42.676      -68.592       22.879       57.489       72.934       38.842     3304.990     5319.354     1508.664        0.859        0.507       80.784       45.410        0.316      342.786       18.440      864.316
03/08/2014  16:18:00      131.365     -181.371      -31.116       46.374       37.373       32.909     2150.574     1396.731     1082.976        2.787        0.232      223.947       28.577        0.016      342.442       17.852      864.296
03/08/2014  16:19:00       93.319      -78.186      -15.060       61.349       68.931       39.277     3763.644     4751.466     1542.669        1.255        0.503      121.744       22.690        0.035      342.574       18.078      864.290
03/08/2014  16:20:00       55.174       20.701       29.769       33.233       33.138       33.464     1104.465     1098.149     1119.819        0.384        0.166       58.930       22.614        0.147      342.581       18.092      864.304
03/08/2014  16:21:00       36.768      -41.412        1.843       28.922       40.806       20.336      836.480     1665.100      413.546        0.299        0.146       55.379       22.630        0.167      342.784       18.437      864.306
03/08/2014  16:22:00       54.539     -121.935       -5.276       46.934       35.224       31.163     2202.812     1240.705      971.143        1.114        0.221      133.577       28.819        0.047      342.715       18.318      864.307
03/08/2014  16:23:00       63.177     -139.919       -7.394       64.412       62.359       38.398     4148.948     3888.677     1474.394        1.657        0.476      153.521       37.845        0.061      342.707       18.304      864.307
03/08/2014  16:24:00       52.223      -68.705       11.865       44.163       53.809       31.347     1950.380     2895.448      982.622        0.671        0.291       86.300       37.501        0.189      342.593       18.111      864.308
03/08/2014  16:25:00       50.072      -90.315       -9.593       43.160       41.460       31.392     1862.791     1718.890      985.439        0.766        0.228      103.267       30.691        0.088      342.570       18.073      864.310
03/08/2014  16:26:00       46.164      -29.111        7.950       13.075       40.454       23.488      170.960     1636.561      551.671        0.270        0.118       54.576       21.261        0.152      342.514       17.977      864.315
03/08/2014  16:27:00        8.343      -13.161       15.911       21.809       38.598       24.225      475.636     1489.839      586.839        0.152        0.128       15.583       21.224        1.855      342.706       18.303      864.313
03/08/2014  16:28:00       46.881      -64.648        6.747       43.916       52.740       33.496     1928.588     2781.465     1121.969        0.613        0.292       79.857       27.826        0.121      342.587       18.101      864.311
03/08/2014  16:29:00      -65.543      -15.451        9.459       41.322       21.628       23.214     1707.544      467.774      538.890        0.367        0.136       67.340       25.204        0.140      342.710       18.310      864.314
03/08/2014  16:30:00        1.420       -2.011       14.503       42.437       30.129       19.710     1800.876      907.748      388.468        0.166        0.155        2.462       18.167       54.456      342.698       18.291      864.318
03/08/2014  16:31:00       62.627        5.274       12.492       26.446       33.652       21.286      699.399     1132.472      453.101        0.320        0.114       62.849       13.538        0.046      342.582       18.093      864.322
03/08/2014  16:32:00       28.862       25.559       16.906       21.112       30.975       18.328      445.734      959.441      335.926        0.176        0.087       38.552       11.293        0.086      342.576       18.082      864.332
03/08/2014  16:33:00       34.025      -35.200       -4.303       27.822       39.232       22.481      774.075     1539.179      505.380        0.262        0.141       48.956       17.659        0.130      342.580       18.087      864.327
03/08/2014  16:34:00       71.786     -132.706      -16.483       55.619       60.267       32.789     3093.453     3632.108     1075.127        1.542        0.390      150.878       38.706        0.066      342.587       18.101      864.323
03/08/2014  16:35:00       57.477      -89.942      -14.609       51.725       64.655       27.309     2675.522     4180.274      745.767        0.960        0.380      106.739       33.149        0.096      342.621       18.160      864.318
03/08/2014  16:36:00      -10.728      -90.227      -13.029       37.326       45.079       30.434     1393.213     2032.073      926.239        0.639        0.218       90.863       20.552        0.051      342.688       18.274      864.312
03/08/2014  16:37:00       30.031      -56.637       -8.453       31.322       32.888       19.177      981.082     1081.620      367.766        0.331        0.122       64.106       11.603        0.033      342.575       18.080      864.323
03/08/2014  16:38:00        3.724      -13.724        8.200       18.254       34.432       19.968      333.218     1185.543      398.711        0.109        0.096       14.220       20.746        2.129      342.696       18.286      864.311
03/08/2014  16:39:00       11.338       15.190       14.239       26.330       21.124       22.417      693.271      446.232      502.517        0.110        0.082       18.955        6.091        0.103      342.545       18.029      864.313
03/08/2014  16:40:00       14.822       22.863       13.871       19.764        9.391        9.329      390.631       88.197       87.028        0.075        0.028       27.248        6.152        0.051      342.474       17.909      864.312
03/08/2014  16:41:00       -3.651        0.154       10.920       19.345       13.419        8.548      374.215      180.066       73.070        0.038        0.031        3.654        6.056        2.746      342.583       18.095      864.310
03/08/2014  16:42:00       16.689        3.999        0.471       17.362       15.503       11.308      301.454      240.353      127.881        0.048        0.033       17.161        9.628        0.315      342.520       17.988      864.312
03/08/2014  16:43:00       19.192       -0.614        3.219       17.950       12.325       11.892      322.207      151.915      141.420        0.050        0.031       19.202        9.365        0.238      342.442       17.855      864.317
03/08/2014  16:44:00       42.361       -3.208       13.631       25.767       24.527       15.921      663.959      601.573      253.475        0.175        0.076       42.482       17.073        0.162      342.432       17.838      864.330
03/08/2014  16:45:00       41.380       15.268       12.445       18.840       14.722       15.516      354.930      216.725      240.752        0.146        0.041       44.107       10.596        0.058      342.417       17.810      864.337
03/08/2014  16:46:00       68.034       36.118        8.350       36.536       19.232       20.885     1334.915      369.888      436.196        0.407        0.107       77.026       17.362        0.051      342.447       17.862      864.340
03/08/2014  16:47:00       25.835       51.402       50.142       36.459       26.227       25.584     1329.274      687.856      654.532        0.425        0.134       57.529       22.392        0.151      342.426       17.829      864.333
03/08/2014  16:48:00       46.062       48.259       43.999       32.112       30.357       32.671     1031.193      921.564     1067.370        0.470        0.151       66.713       26.777        0.161      342.410       17.801      864.323
03/08/2014  16:49:00       67.357       78.349       41.905       21.800       19.624       22.556      475.250      385.092      508.793        0.690        0.068      103.322       17.462        0.029      342.377       17.744      864.325
03/08/2014  16:50:00       47.576       35.447        5.348       20.548       18.082       21.256      422.208      326.968      451.808        0.237        0.060       59.329       12.094        0.042      342.423       17.824      864.333
03/08/2014  16:51:00       -1.250      -48.693        5.374       19.322       38.260       22.489      373.345     1463.840      505.761        0.237        0.117       48.709       15.370        0.100      342.625       18.166      864.338
03/08/2014  16:52:00      -11.531      -76.731       -5.766       23.695       27.605       19.510      561.464      762.013      380.634        0.388        0.085       77.593       16.624        0.046      342.652       18.211      864.349
03/08/2014  16:53:00        5.907      -25.227       -2.419       18.472       19.266       17.556      341.200      371.171      308.226        0.085        0.051       25.910       14.752        0.324      342.637       18.185      864.356
03/08/2014  16:54:00        2.086        3.157       14.778       18.737        8.855        9.882      351.070       78.415       97.649        0.038        0.026        3.784       12.493       10.901      342.415       17.809      864.367
03/08/2014  16:55:00      -38.508       -8.982        8.701       24.308       20.828       18.981      590.891      433.807      360.288        0.151        0.069       39.542        6.935        0.031      342.499       17.951      864.384
03/08/2014  16:56:00      -49.047      -21.367        7.151       31.557       20.063       14.727      995.841      402.537      216.887        0.226        0.081       53.499       15.484        0.084      342.472       17.907      864.395
03/08/2014  16:57:00      -17.047      -13.329        5.558       31.452       17.284       16.363      989.257      298.724      267.754        0.103        0.078       21.639        9.609        0.197      342.575       18.081      864.394
03/08/2014  16:58:00      -22.062      -20.039        8.671       37.707       21.436       18.534     1421.846      459.490      343.492        0.159        0.111       29.804       17.754        0.355      342.500       17.955      864.385
03/08/2014  16:59:00       -8.048      -16.405        0.679       13.841       17.807        9.431      191.572      317.100       88.947        0.047        0.030       18.272        8.071        0.195      342.485       17.927      864.387
03/08/2014  17:00:00       -7.361       -1.305        7.324       17.931       15.402       14.186      321.510      237.215      201.254        0.043        0.038        7.476       11.500        2.366      342.438       17.850      864.391
03/08/2014  17:01:00       -7.907      -20.119        8.657       17.082       18.125       17.793      291.807      328.516      316.594        0.074        0.047       21.617       13.141        0.370      342.481       17.923      864.385
03/08/2014  17:02:00      -21.172      -33.467       -4.473       33.279       26.367       12.591     1107.500      695.219      158.538        0.177        0.098       39.602       10.066        0.065      342.467       17.898      864.396
03/08/2014  17:03:00      -42.799      -21.202        1.063       28.248       19.522       18.962      797.957      381.111      359.557        0.191        0.077       47.762       18.092        0.143      342.448       17.864      864.410
03/08/2014  17:04:00      -71.965      -41.864       -2.991       27.521       16.905       14.590      757.391      285.781      212.882        0.410        0.063       83.256        9.177        0.012      342.418       17.812      864.423
03/08/2014  17:05:00      -18.755      -11.444        8.042       22.161       21.693       17.341      491.125      470.580      300.717        0.090        0.063       21.971       14.452        0.433      342.444       17.858      864.432
03/08/2014  17:06:00      -50.166      -40.070       -1.992       30.085       15.931       16.515      905.104      253.801      272.752        0.278        0.072       64.205       13.807        0.046      342.513       17.975      864.439
03/08/2014  17:07:00       -8.979      -24.730        3.107       25.428       16.597       14.067      646.600      275.470      197.878        0.091        0.056       26.310       13.019        0.245      342.513       17.977      864.447
03/08/2014  17:08:00       -2.743       -9.103        6.375       20.703       16.081       12.167      428.634      258.584      148.026        0.048        0.042        9.508        4.326        0.207      342.486       17.931      864.438
03/08/2014  17:09:00      -32.505      -18.299        0.053       23.838       12.133       12.183      568.245      147.208      148.415        0.113        0.043       37.302       14.431        0.150      342.403       17.787      864.434
03/08/2014  17:10:00      -37.762        0.882        2.343       12.221       14.815        8.157      149.360      219.495       66.537        0.093        0.022       37.773        7.765        0.042      342.488       17.933      864.436
03/08/2014  17:11:00      -39.120      -13.512       -2.620       10.396       11.041        9.498      108.067      121.903       90.216        0.102        0.016       41.388        5.470        0.017      342.493       17.941      864.453
03/08/2014  17:12:00      -46.571      -18.979       -1.663       12.297        9.554        8.078      151.219       91.276       65.258        0.142        0.015       50.290        7.018        0.019      342.511       17.970      864.467
03/08/2014  17:13:00      -42.846        5.172       -7.691       12.521       27.254        6.252      156.784      742.763       39.082        0.143        0.047       43.157        6.299        0.021      342.420       17.817      864.482
03/08/2014  17:14:00      -31.069       28.693       -5.498       20.384       10.712        8.362      415.511      114.740       69.919        0.121        0.030       42.292        4.814        0.013      342.390       17.764      864.495
03/08/2014  17:15:00        4.834       32.336       -8.434       12.022        8.377        7.925      144.538       70.178       62.809        0.071        0.014       32.696        5.212        0.025      342.352       17.702      864.514
03/08/2014  17:16:00       12.296       47.189       -6.314       14.599       15.412        7.269      213.124      237.522       52.837        0.146        0.025       48.765        5.598        0.013      342.345       17.688      864.526
03/08/2014  17:17:00       23.081       64.077      -11.416       11.340       11.947        7.118      128.604      142.733       50.672        0.255        0.016       68.107        3.605        0.003      342.358       17.708      864.544
03/08/2014  17:18:00       18.656       54.324       -6.664       16.982       15.741       11.845      288.384      247.791      140.310        0.201        0.034       57.438       11.009        0.037      342.301       17.614      864.557
03/08/2014  17:19:00       13.829       65.688      -13.116       17.439       23.009       11.583      304.105      529.422      134.176        0.282        0.048       67.128       10.798        0.026      342.311       17.631      864.567
03/08/2014  17:20:00        2.434      101.244      -15.498       22.413       25.922       12.233      502.352      671.929      149.644        0.591        0.066      101.273       13.472        0.018      342.225       17.485      864.576
03/08/2014  17:21:00        0.450      147.956      -25.376       16.957       20.121        9.870      287.537      404.872       97.411        1.166        0.039      147.957        9.227        0.004      342.152       17.363      864.595
03/08/2014  17:22:00       23.377      148.012      -33.300       19.428       21.408       10.040      377.454      458.313      100.795        1.225        0.047      149.847        8.184        0.003      342.101       17.275      864.606
03/08/2014  17:23:00        1.598      112.735      -21.228       15.089       17.867       11.189      227.670      319.240      125.205        0.692        0.034      112.747        8.364        0.006      342.097       17.267      864.609
03/08/2014  17:24:00       12.616      115.086      -16.467       28.394       21.574       11.195      806.201      465.457      125.339        0.754        0.070      115.775       10.947        0.009      342.094       17.261      864.612
03/08/2014  17:25:00       37.179       70.692       -4.578       36.493       43.135       24.370     1331.735     1860.636      593.906        0.509        0.189       79.873       17.829        0.050      342.021       17.139      864.619
03/08/2014  17:26:00       40.671      101.231       -9.633       39.352       61.023       32.802     1548.544     3723.751     1075.965        0.917        0.317      109.095       30.947        0.080      341.956       17.029      864.627
03/08/2014  17:27:00       50.792      126.122       -9.096       52.345       71.434       44.927     2739.990     5102.831     2018.432        1.421        0.493      135.965       41.539        0.093      341.898       16.930      864.627
03/08/2014  17:28:00       40.003       88.142        8.193       43.615       58.123       39.059     1902.255     3378.273     1525.606        0.812        0.340       96.795       32.054        0.110      341.824       16.805      864.633
03/08/2014  17:29:00       34.640       75.555       -6.117       48.478       52.527       34.041     2350.115     2759.082     1158.802        0.661        0.313       83.117       32.100        0.149      341.786       16.741      864.648
03/08/2014  17:30:00       51.874      115.859      -14.330       42.989       66.122       36.287     1848.025     4372.114     1316.739        1.193        0.377      126.942       35.802        0.080      341.826       16.808      864.665
03/08/2014  17:31:00       27.955       88.013       -4.892       49.405       51.363       32.006     2440.886     2638.195     1024.391        0.733        0.305       92.346       30.332        0.108      341.804       16.770      864.679
03/08/2014  17:32:00       30.875       81.542       -4.338       39.923       38.029       26.216     1593.859     1446.216      687.267        0.567        0.186       87.192       18.527        0.045      341.792       16.750      864.695
03/08/2014  17:33:00       24.583       63.775       -1.856       31.416       35.810       29.416      986.979     1282.359      865.283        0.390        0.157       68.349       24.720        0.131      341.774       16.720      864.704
03/08/2014  17:34:00       33.040       78.358        1.177       36.164       49.237       24.897     1307.868     2424.289      619.861        0.579        0.218       85.039       23.142        0.074      341.720       16.629      864.710
03/08/2014  17:35:00       57.951       60.938        8.928       44.998       40.582       31.518     2024.807     1646.930      993.360        0.591        0.233       84.094       20.851        0.061      341.689       16.577      864.722
03/08/2014  17:36:00       36.521       62.865        1.331       40.344       50.666       32.763     1627.626     2567.025     1073.446        0.528        0.263       72.704       34.352        0.223      341.657       16.523      864.723
03/08/2014  17:37:00       53.541       91.365       -4.786       40.115       48.942       33.811     1609.202     2395.277     1143.163        0.819        0.257      105.897       32.063        0.092      341.668       16.541      864.717
03/08/2014  17:38:00       41.821      101.065      -13.582       38.084       50.498       27.713     1450.376     2550.028      768.007        0.846        0.238      109.376       22.922        0.044      341.649       16.508      864.736
03/08/2014  17:39:00       56.882      123.229      -11.854       42.568       62.315       37.524     1812.020     3883.130     1408.060        1.283        0.355      135.724       37.873        0.078      341.624       16.466      864.730
03/08/2014  17:40:00       23.697       64.929        5.039       32.138       45.128       27.355     1032.841     2036.532      748.308        0.431        0.191       69.118       25.710        0.138      341.593       16.412      864.736
03/08/2014  17:41:00       51.932       70.942       -2.010       38.112       36.400       35.539     1452.532     1324.991     1263.008        0.589        0.202       87.919       29.998        0.116      341.606       16.434      864.743
03/08/2014  17:42:00       35.988      113.272       -7.236       44.036       53.457       33.330     1939.164     2857.671     1110.916        1.004        0.295      118.851       33.209        0.078      341.575       16.382      864.738
03/08/2014  17:43:00       23.636      126.577      -15.132       37.905       36.949       28.547     1436.785     1365.228      814.910        1.021        0.181      128.764       24.550        0.036      341.580       16.392      864.743
03/08/2014  17:44:00       13.066      144.353      -19.737       33.449       52.231       24.422     1118.830     2728.107      596.446        1.292        0.222      144.943       29.019        0.040      341.563       16.364      864.747
03/08/2014  17:45:00       19.602      137.439      -19.027       24.850       29.784       23.237      617.527      887.077      539.950        1.084        0.102      138.830       18.959        0.019      341.555       16.348      864.753
03/08/2014  17:46:00       11.894      101.885      -11.904       26.845       50.223       20.695      720.677     2522.356      428.296        0.717        0.184      102.577       23.187        0.051      341.513       16.277      864.754
03/08/2014  17:47:00       41.792       93.619        2.191       41.327       60.280       35.866     1707.959     3633.738     1286.366        0.857        0.331      102.524       36.879        0.129      341.464       16.194      864.771
03/08/2014  17:48:00       47.302       70.424        5.698       46.275       33.602       23.932     2141.379     1129.070      572.749        0.554        0.192       84.835       18.340        0.047      341.440       16.154      864.775
03/08/2014  17:49:00       37.505       70.475       -3.618       30.945       43.260       30.091      957.572     1871.437      905.441        0.506        0.187       79.834       26.012        0.106      341.452       16.173      864.788
03/08/2014  17:50:00       35.137      124.116       -7.266       36.261       56.861       35.134     1314.881     3233.130     1234.422        1.124        0.289      128.994       38.998        0.091      341.488       16.234      864.789
03/08/2014  17:51:00       28.611      154.857      -26.202       29.330       46.821       22.991      860.246     2192.197      528.578        1.453        0.179      157.478       25.452        0.026      341.497       16.249      864.801
03/08/2014  17:52:00       14.357      125.198      -17.684       44.185       42.979       25.156     1952.295     1847.189      632.836        1.031        0.222      126.018       22.036        0.031      341.454       16.177      864.805
03/08/2014  17:53:00       13.394      125.148      -23.444       24.644       46.583       17.761      607.305     2169.997      315.444        0.974        0.155      125.862       20.899        0.028      341.436       16.146      864.813
03/08/2014  17:54:00       16.558       57.677        3.696       32.637       50.969       30.759     1065.152     2597.797      946.118        0.411        0.230       60.006       31.390        0.274      341.370       16.034      864.825
03/08/2014  17:55:00        4.744      120.339      -15.200       24.343       35.572       14.820      592.586     1265.386      219.620        0.841        0.104      120.433       13.389        0.012      341.433       16.141      864.829
03/08/2014  17:56:00      -17.801      144.483      -24.342       31.076       29.615       15.996      965.701      877.039      255.877        1.194        0.105      145.575       15.194        0.011      341.442       16.157      864.835
03/08/2014  17:57:00        3.350      138.049      -21.476       35.281       30.783       18.340     1244.726      947.583      336.356        1.103        0.126      138.089       15.431        0.012      341.422       16.125      864.837
03/08/2014  17:58:00       14.698      143.886      -23.008       33.368       29.607       14.747     1113.412      876.571      217.483        1.183        0.110      144.635       13.974        0.009      341.384       16.060      864.839
03/08/2014  17:59:00      -23.635      103.255      -20.184       31.130       24.214       13.288      969.097      586.324      176.565        0.668        0.087      105.926       12.940        0.015      341.411       16.106      864.853
03/08/2014  18:00:00        6.924      140.478      -25.659       32.245       31.702       18.431     1039.721     1004.988      339.706        1.141        0.119      140.649       19.503        0.019      341.368       16.035      864.861
03/08/2014  18:01:00      -44.920       51.112       -7.273       26.466       34.278       17.406      700.434     1174.994      302.985        0.343        0.109       68.046       16.105        0.056      341.345       15.994      864.871
03/08/2014  18:02:00      -69.894       58.416      -14.526       26.748       30.413       20.278      715.453      924.978      411.184        0.528        0.103       91.092       15.852        0.030      341.326       15.961      864.891
03/08/2014  18:03:00      -71.751       43.058      -16.636       23.934       28.314       14.817      572.854      801.704      219.538        0.444        0.080       83.679       12.895        0.024      341.360       16.018      864.901
03/08/2014  18:04:00      -99.025       38.968      -13.978       26.584       35.046       23.666      706.720     1228.256      560.089        0.701        0.125      106.417       23.224        0.048      341.418       16.116      864.920
03/08/2014  18:05:00     -117.871      -14.187      -13.121       30.034       21.921       15.177      902.063      480.534      230.342        0.794        0.081      118.722       15.388        0.017      341.445       16.163      864.931
03/08/2014  18:06:00     -118.827      -31.150      -25.963       30.061       31.597       13.664      903.644      998.351      186.703        0.893        0.104      122.842        7.892        0.004      341.358       16.014      864.937
03/08/2014  18:07:00      -98.972      -24.234      -15.236       36.115       27.070       24.357     1304.311      732.810      593.261        0.662        0.132      101.896       23.822        0.055      341.288       15.897      864.952
03/08/2014  18:08:00     -116.766       -1.152      -13.228       33.128       31.129       25.009     1097.441      969.029      625.427        0.825        0.135      116.772       19.771        0.029      341.355       16.011      864.953
03/08/2014  18:09:00      -94.929      -18.317       -5.937       48.027       25.675       23.060     2306.567      659.223      531.766        0.644        0.175       96.680       25.149        0.068      341.285       15.892      864.958
03/08/2014  18:10:00     -164.516       -1.505      -20.385       31.515       31.824       19.485      993.182     1012.784      379.654        1.493        0.119      164.523       15.396        0.009      341.322       15.953      864.962
03/08/2014  18:11:00     -125.734      -23.272      -13.908       29.171       27.872       17.210      850.973      776.829      296.193        0.923        0.096      127.870        9.012        0.005      341.312       15.937      864.971
03/08/2014  18:12:00     -104.788      -12.480       -3.696       43.798       44.074       18.743     1918.307     1942.481      351.309        0.768        0.211      105.528       16.590        0.025      341.221       15.786      864.989
03/08/2014  18:13:00      -78.111        2.403       -9.041       27.798       43.521       21.996      772.708     1894.074      483.821        0.467        0.158       78.148       23.261        0.089      341.265       15.858      864.995
03/08/2014  18:14:00     -104.838       41.129      -21.814       32.776       42.100       20.664     1074.238     1772.413      426.998        0.822        0.164      112.617       16.366        0.021      341.323       15.957      865.013
03/08/2014  18:15:00      -88.575       23.445      -10.147       31.492       40.164       24.876      991.745     1613.130      618.805        0.586        0.161       91.625       14.286        0.024      341.368       16.032      865.027
03/08/2014  18:16:00      -95.627       13.169       -9.028       29.210       32.626       16.885      853.238     1064.455      285.119        0.580        0.110       96.530       10.632        0.012      341.458       16.184      865.041
03/08/2014  18:17:00     -168.691      -29.652      -20.602       31.496       25.409       21.107      991.974      645.594      445.487        1.592        0.104      171.277       17.081        0.010      341.045       15.486      865.070
03/08/2014  18:18:00     -137.998       -4.210       -7.677       36.533       53.986       20.938     1334.633     2914.498      438.408        1.190        0.234      138.062       16.623        0.014      340.989       15.392      865.084
03/08/2014  18:19:00     -151.171      -16.149      -28.494       37.699       32.194       27.807     1421.224     1036.455      773.205        1.358        0.162      152.032       22.428        0.022      340.966       15.351      865.103
03/08/2014  18:20:00      -91.043      -31.215       -3.266       25.672       39.547       27.694      659.070     1563.974      766.966        0.613        0.150       96.246       21.198        0.049      340.910       15.257      865.116
03/08/2014  18:21:00      -68.834      -50.332       -6.174       31.253       40.300       20.563      976.723     1624.067      422.838        0.517        0.151       85.272       12.977        0.023      340.956       15.336      865.137
03/08/2014  18:22:00      -51.014      -33.924        5.585       53.013       45.486       26.485     2810.407     2068.992      701.479        0.468        0.279       61.263       31.722        0.268      340.934       15.295      865.155
03/08/2014  18:23:00     -133.728      -68.707      -12.411       39.092       33.083       19.901     1528.165     1094.466      396.056        1.289        0.151      150.346       11.526        0.006      340.872       15.193      865.155
03/08/2014  18:24:00      -93.524      -32.467       -9.544       41.005       30.388       19.194     1681.391      923.446      368.422        0.643        0.149       98.999       14.875        0.023      340.848       15.153      865.175
03/08/2014  18:25:00      -72.271      -49.459        2.629       55.230       42.211       28.306     3050.353     1781.805      801.236        0.665        0.282       87.574       29.519        0.114      340.915       15.265      865.181
03/08/2014  18:26:00     -142.502      -20.363      -13.270       36.473       51.593       26.783     1330.269     2661.795      717.303        1.280        0.235      143.949       23.611        0.027      340.850       15.155      865.202
03/08/2014  18:27:00     -118.300      -10.367      -12.198       46.503       49.229       30.379     2162.572     2423.536      922.891        0.988        0.275      118.753       29.725        0.063      340.817       15.100      865.213
03/08/2014  18:28:00     -111.406      -59.617       -2.378       37.571       27.017       21.148     1411.593      729.897      447.224        0.928        0.129      126.355       19.202        0.023      340.727       14.949      865.217
03/08/2014  18:29:00      -82.433      -40.959        0.438       25.165       26.623       20.366      633.262      708.804      414.758        0.511        0.088       92.048        8.798        0.009      340.783       15.043      865.217
03/08/2014  18:30:00      -66.994      -24.763       -5.787       32.773       28.115       18.774     1074.065      790.467      352.473        0.368        0.111       71.424       11.094        0.024      340.846       15.148      865.219
03/08/2014  18:31:00      -93.096       -7.301      -11.296       28.535       26.736       21.399      814.229      714.808      457.915        0.542        0.099       93.382       11.479        0.015      340.815       15.095      865.229
03/08/2014  18:32:00      -96.555      -12.855      -13.581       48.125       19.515       22.382     2316.013      380.818      500.954        0.643        0.160       97.407       25.886        0.071      340.788       15.050      865.234
03/08/2014  18:33:00     -101.955      -16.143      -16.883       18.871       18.463       14.799      356.131      340.896      219.020        0.593        0.046      103.226       12.329        0.014      340.749       14.985      865.237
03/08/2014  18:34:00     -118.315      -42.567       -5.670       28.865       29.919       20.526      833.173      895.139      421.320        0.900        0.107      125.740        5.079        0.002      340.707       14.914      865.258
03/08/2014  18:35:00     -107.997      -32.698       -7.902       27.927       37.507       14.560      779.943     1406.742      212.001        0.760        0.120      112.838       11.800        0.011      340.805       15.079      865.261
03/08/2014  18:36:00      -47.060      -35.848       -4.367       40.792       27.503       24.493     1663.966      756.392      599.930        0.327        0.151       59.159       20.925        0.125      340.722       14.939      865.256
03/08/2014  18:37:00     -159.668      -48.287      -22.867       36.368       40.504       30.345     1322.641     1640.573      920.834        1.612        0.194      166.810       26.475        0.025      340.666       14.843      865.258
03/08/2014  18:38:00     -141.782      -35.317      -12.872       48.428       48.344       29.834     2345.288     2337.164      890.049        1.354        0.279      146.115       25.436        0.030      340.653       14.822      865.249
03/08/2014  18:39:00     -160.403      -15.496      -13.639       47.375       51.656       23.913     2244.400     2668.347      571.817        1.582        0.274      161.150       22.745        0.020      340.748       14.981      865.248
03/08/2014  18:40:00     -133.374      -38.083      -18.260       64.432       70.093       34.845     4151.534     4912.988     1214.151        1.492        0.514      138.704       28.744        0.043      340.822       15.107      865.245
03/08/2014  18:41:00     -217.496        1.610      -20.822       60.446       48.867       35.251     3653.691     2387.973     1242.636        2.751        0.364      217.502       30.426        0.020      341.049       15.487      865.233
03/08/2014  18:42:00     -164.802      -42.332       -2.895       67.223       83.972       37.849     4518.896     7051.298     1432.580        2.098        0.650      170.152       34.263        0.041      341.179       15.711      865.235
03/08/2014  18:43:00     -138.232      -34.569      -12.477       42.342       45.352       32.152     1792.876     2056.763     1033.772        1.267        0.244      142.489       25.513        0.032      341.140       15.646      865.248
03/08/2014  18:44:00      -80.776      -35.464        5.243       67.337       52.834       33.527     4534.246     2791.481     1124.037        0.813        0.422       88.218       41.221        0.218      341.063       15.516      865.257
03/08/2014  18:45:00     -121.104       -5.458       -8.247       80.696       69.017       38.863     6511.798     4763.310     1510.320        1.377        0.639      121.227       42.822        0.125      341.234       15.804      865.285
03/08/2014  18:46:00     -128.124      -13.100      -14.457       78.526       30.305       26.857     6166.323      918.412      721.280        1.230        0.390      128.792       32.581        0.064      341.207       15.758      865.293
03/08/2014  18:47:00     -122.814       10.913      -13.260       70.667       46.119       27.543     4993.770     2126.928      758.593        1.163        0.394      123.297       21.623        0.031      341.239       15.813      865.318
03/08/2014  18:48:00      -86.402       13.997       -9.890       28.559       23.239       23.363      815.601      540.064      545.823        0.483        0.095       87.529       10.856        0.015      341.233       15.804      865.342
03/08/2014  18:49:00      -17.938        0.758        2.948       38.961       32.264       25.410     1517.954     1040.935      645.693        0.177        0.160       17.954       20.752        1.336      341.168       15.693      865.347
03/08/2014  18:50:00      -62.784       32.444        8.189       52.876       31.850       31.631     2795.920     1014.405     1000.532        0.494        0.241       70.671       29.117        0.170      341.180       15.715      865.348
03/08/2014  18:51:00      -35.371       21.636        0.513       51.978       34.494       22.953     2701.744     1189.859      526.834        0.307        0.221       41.463       18.260        0.194      341.192       15.736      865.352
03/08/2014  18:52:00      -14.720      -48.457        7.620       46.835       31.595       28.073     2193.486      998.268      788.075        0.330        0.199       50.644       17.109        0.114      341.200       15.746      865.338
03/08/2014  18:53:00      -40.181      -23.886        3.414       66.034       58.474       37.820     4360.552     3419.203     1430.329        0.570        0.461       46.744       29.932        0.410      341.130       15.629      865.336
03/08/2014  18:54:00      -25.688      -10.466        7.737       53.415       24.015       17.281     2853.139      576.727      298.650        0.228        0.186       27.738       20.062        0.523      341.152       15.667      865.344
03/08/2014  18:55:00     -153.051       25.646       -7.359       90.665       73.780       36.330     8220.146     5443.551     1319.873        1.956        0.749      155.185       45.023        0.084      341.273       15.871      865.351
03/08/2014  18:56:00      -52.816      -27.723        4.462       54.273       46.866       36.045     2945.515     2196.411     1299.275        0.501        0.322       59.649       29.306        0.241      341.168       15.693      865.344
03/08/2014  18:57:00      -60.317       53.279       -3.976      103.720       96.018       48.711    10757.773     9219.405     2372.781        1.442        1.117       80.478       69.438        0.744      341.179       15.712      865.360
03/08/2014  18:58:00      -35.286       50.124      -11.210       60.106       42.062       36.020     3612.724     1769.246     1297.460        0.528        0.334       61.298       35.327        0.332      341.208       15.761      865.360
03/08/2014  18:59:00      -29.246        1.411       14.829       74.979       66.314       39.819     5621.780     4397.543     1585.539        0.634        0.580       29.280       49.794        2.892      341.180       15.714      865.353
03/08/2014  19:00:00     -193.176      -16.712       -0.948      171.993      106.110       66.106    29581.555    11259.306     4369.954        4.139        2.261      193.897       79.731        0.169      341.192       15.732      865.367
03/08/2014  19:01:00     -249.141      -46.025       -5.356      139.122      127.381       67.033    19354.866    16225.999     4493.450        5.214        2.004      253.357       64.978        0.066      341.229       15.793      865.395
03/08/2014  19:02:00     -219.867      -66.063       -0.222      184.095      100.286       63.772    33891.142    10057.363     4066.825        5.035        2.401      229.577       92.604        0.163      341.179       15.709      865.417
03/08/2014  19:03:00     -240.306      -26.514      -18.823       85.222       81.826       43.453     7262.730     6695.440     1888.166        3.732        0.792      241.764       44.623        0.034      341.257       15.841      865.414
03/08/2014  19:04:00     -126.532      -30.295       -8.835       67.157       86.197       40.556     4510.118     7429.864     1644.775        1.529        0.679      130.108       36.467        0.079      341.298       15.911      865.418
03/08/2014  19:05:00      -21.177      -16.604       14.876       64.372       55.703       29.777     4143.714     3102.868      886.648        0.454        0.407       26.910       40.526        2.268      341.258       15.847      865.439
03/08/2014  19:06:00     -121.999      -95.230       14.838      101.731       97.380       41.488    10349.229     9482.861     1721.288        2.286        1.078      154.766       37.396        0.058      341.238       15.811      865.436
03/08/2014  19:07:00     -141.106      -76.429       -4.553       87.150       59.782       43.115     7595.190     3573.863     1858.908        1.940        0.651      160.475       34.422        0.046      341.244       15.821      865.442
03/08/2014  19:08:00     -125.267      -89.779       -4.552       83.602       67.043       37.476     6989.303     4494.784     1404.486        1.833        0.644      154.117       43.556        0.080      341.225       15.788      865.462
03/08/2014  19:09:00     -128.260      -99.299       -4.439       83.021       63.569       48.880     6892.492     4041.047     2389.293        1.982        0.666      162.207       51.980        0.103      341.263       15.853      865.462
03/08/2014  19:10:00     -198.413      -96.010       12.952      106.626       79.225       51.970    11369.088     6276.557     2700.923        3.455        1.017      220.421       55.486        0.063      341.260       15.847      865.458
03/08/2014  19:11:00      -96.443     -149.140        1.293       50.561       91.236       39.257     2556.377     8324.028     1541.141        2.198        0.621      177.607       34.766        0.038      341.292       15.902      865.476
03/08/2014  19:12:00      -61.672      -96.293        3.218       43.199       39.735       26.001     1866.137     1578.871      676.064        0.860        0.206      114.350       21.147        0.034      341.285       15.890      865.480
03/08/2014  19:13:00     -137.986     -131.014        1.594       71.191       64.409       44.340     5068.187     4148.581     1965.998        2.369        0.559      190.276       36.282        0.036      341.273       15.871      865.479
03/08/2014  19:14:00       -6.161      -72.905       -4.621       57.087       38.497       32.384     3258.950     1482.034     1048.706        0.558        0.289       73.165       14.498        0.039      341.272       15.870      865.479
03/08/2014  19:15:00        8.949      -23.029       12.215       39.044       52.769       20.492     1524.462     2784.532      419.927        0.274        0.236       24.706       19.829        0.644      341.243       15.821      865.482
03/08/2014  19:16:00      -64.090     -114.947        7.691       61.481       66.185       24.944     3779.852     4380.399      622.209        1.308        0.439      131.607       21.832        0.028      341.258       15.844      865.499
03/08/2014  19:17:00      -94.025      -51.848        3.684       64.918       58.366       29.942     4214.406     3406.608      896.505        1.003        0.426      107.373       23.911        0.050      341.201       15.750      865.491
03/08/2014  19:18:00     -120.394      -71.848       -0.869       63.923       52.919       27.037     4086.175     2800.469      731.002        1.364        0.381      140.203       30.962        0.049      341.164       15.686      865.510
03/08/2014  19:19:00      -67.616      -63.370        3.607       71.179       65.246       32.750     5066.424     4257.000     1072.586        0.950        0.520       92.670       30.586        0.109      341.185       15.723      865.508
03/08/2014  19:20:00      -89.609      -38.607        3.469       56.460       67.877       36.736     3187.743     4607.323     1349.561        0.934        0.457       97.572       34.206        0.123      341.146       15.658      865.524
03/08/2014  19:21:00     -226.185     -103.637      -12.839      152.027      107.776       63.904    23112.128    11615.583     4083.695        5.043        1.941      248.798       62.796        0.064      341.105       15.584      865.518
03/08/2014  19:22:00     -199.955       31.909      -10.822       93.379       68.836       40.121     8719.585     4738.326     1609.699        2.809        0.753      202.485       40.638        0.040      341.111       15.595      865.544
03/08/2014  19:23:00     -105.254      -51.940       10.490       92.430       96.322       51.518     8543.281     9277.917     2654.058        1.718        1.024      117.372       49.927        0.181      341.092       15.565      865.564
03/08/2014  19:24:00     -161.973      -61.408       -2.012      136.071       99.697       64.439    18515.427     9939.498     4152.328        3.130        1.630      173.223       69.326        0.160      341.047       15.488      865.581
03/08/2014  19:25:00     -249.212      -72.795       -7.579      133.066      102.761       57.180    17706.476    10559.851     3269.573        4.949        1.577      259.626       59.910        0.053      341.049       15.489      865.613
03/08/2014  19:26:00     -118.599     -122.671        6.526      113.521       93.633       41.598    12886.913     8767.201     1730.359        2.627        1.169      170.628       48.639        0.081      341.030       15.458      865.602
03/08/2014  19:27:00     -234.277     -146.362       -9.854      117.889      106.109       60.522    13897.922    11259.119     3662.925        5.261        1.441      276.238       55.060        0.040      341.015       15.432      865.575
03/08/2014  19:28:00     -149.041     -155.495      -16.919       74.559       61.408       36.624     5559.029     3770.933     1341.341        2.867        0.534      215.388       35.150        0.027      341.043       15.480      865.604
03/08/2014  19:29:00     -151.339     -104.041       -2.054      105.628       66.331       45.672    11157.272     4399.766     2085.929        2.568        0.882      183.652       41.486        0.051      341.028       15.455      865.643
03/08/2014  19:30:00      -90.069     -147.666       15.319       96.525       95.784       47.586     9317.002     9174.540     2264.412        2.545        1.038      172.967       56.128        0.105      341.039       15.472      865.647
03/08/2014  19:31:00      -43.708     -104.310       21.081       68.351       82.158       37.832     4671.892     6749.905     1431.265        1.304        0.643      113.097       33.234        0.086      341.028       15.457      865.651
03/08/2014  19:32:00      -25.106     -109.921       -1.136       56.602       56.353       26.268     3203.742     3175.655      689.988        0.989        0.353      112.751       28.850        0.065      341.066       15.522      865.669
03/08/2014  19:33:00       -7.372     -104.006       25.742       86.367       82.957       66.588     7459.261     6881.820     4433.964        1.515        0.939      104.267       65.214        0.391      341.023       15.446      865.698
03/08/2014  19:34:00     -133.011     -137.845        2.250       79.543       71.746       41.558     6327.063     5147.558     1727.094        2.495        0.660      191.555       48.643        0.064      341.005       15.414      865.753
03/08/2014  19:35:00     -122.006     -156.546        1.353       70.187       85.734       46.251     4926.178     7350.367     2139.168        2.690        0.721      198.474       42.291        0.045      341.000       15.405      865.765
03/08/2014  19:36:00     -128.547     -175.656       -5.751       82.111       67.569       39.072     6742.186     4565.620     1526.622        3.012        0.642      217.668       35.906        0.027      340.998       15.402      865.762
03/08/2014  19:37:00      -88.574     -186.730        0.357       54.283       83.954       35.713     2946.652     7048.283     1275.449        2.699        0.564      206.672       40.339        0.038      341.029       15.455      865.780
03/08/2014  19:38:00      -40.836     -141.946      -22.055       43.607       58.117       39.234     1901.604     3377.590     1539.343        1.456        0.341      147.703       21.294        0.021      341.129       15.627      865.769
03/08/2014  19:39:00      -49.984      -34.449       17.651       46.711       41.502       28.094     2181.961     1722.436      789.282        0.434        0.235       60.705       20.665        0.116      341.018       15.439      865.780
03/08/2014  19:40:00      -62.141     -126.415       -6.992       41.812       52.093       25.563     1748.239     2713.671      653.448        1.250        0.256      140.862       15.314        0.012      341.087       15.556      865.796
03/08/2014  19:41:00      -65.944      -73.620       -6.111       65.452       45.857       33.812     4283.902     2102.890     1143.250        0.867        0.377       98.836       20.888        0.045      341.112       15.598      865.824
03/08/2014  19:42:00     -139.352      -93.731        5.636       66.512       50.818       35.359     4423.821     2582.440     1250.234        1.824        0.413      167.942       30.890        0.034      340.982       15.376      865.859
03/08/2014  19:43:00     -107.214      -48.763       -3.287       69.072       41.206       29.594     4770.956     1697.900      875.803        1.061        0.367      117.782       29.984        0.065      340.914       15.264      865.881
03/08/2014  19:44:00      -96.720     -150.982        0.630       87.467      107.190       48.438     7650.452    11489.630     2346.279        2.681        1.074      179.305       52.075        0.084      340.891       15.221      865.899
03/08/2014  19:45:00     -192.691     -120.992      -16.440      101.345       82.814       44.063    10270.768     6858.200     1941.523        3.555        0.954      227.528       38.827        0.029      340.901       15.237      865.882
03/08/2014  19:46:00     -147.671     -149.478       -8.826       86.532      135.958       54.112     7487.802    18484.658     2928.065        3.656        1.445      210.120       43.358        0.043      340.904       15.245      865.878
03/08/2014  19:47:00     -264.804     -187.309       -0.360      129.459      132.775       65.397    16759.757    17629.149     4276.825        7.193        1.933      324.354       55.977        0.030      340.963       15.344      865.874
03/08/2014  19:48:00     -292.159     -178.399       -3.418      121.681      102.876       58.263    14806.201    10583.422     3394.625        7.298        1.439      342.320       62.997        0.034      340.984       15.380      865.894
03/08/2014  19:49:00     -345.704     -226.225      -11.155      144.194      135.829       75.190    20791.977    18449.436     5653.487       10.785        2.245      413.145       73.596        0.032      341.010       15.422      865.886
03/08/2014  19:50:00     -376.808     -221.593      -10.294      157.464      116.136       72.214    24795.020    13487.644     5214.932       11.734        2.175      437.136       74.742        0.029      341.055       15.499      865.891
03/08/2014  19:51:00     -258.021     -163.657       -7.951      130.399       84.273       60.424    17003.892     7101.952     3651.059        6.058        1.388      305.546       54.475        0.032      341.072       15.528      865.894
03/08/2014  19:52:00     -282.990     -179.428        2.589      172.604      132.102       68.988    29791.997    17451.050     4759.404        8.213        2.600      335.079       73.754        0.048      341.033       15.462      865.886
03/08/2014  19:53:00     -253.696     -122.282       -4.571      140.087      127.870       64.356    19624.333    16350.846     4141.663        5.972        2.006      281.628       67.593        0.058      340.985       15.382      865.898
03/08/2014  19:54:00     -277.744      -88.551       -3.228      108.415      119.240       60.383    11753.820    14218.172     3646.165        5.730        1.481      291.519       55.397        0.036      340.937       15.298      865.912
03/08/2014  19:55:00     -179.987     -111.824        4.940      133.797      107.689       62.952    17901.706    11596.948     3962.926        3.919        1.673      211.896       68.827        0.106      340.859       15.167      865.949
03/08/2014  19:56:00     -217.646     -113.771       -2.032      137.659      130.196       70.006    18950.081    16950.909     4900.783        5.055        2.040      245.588       65.070        0.070      340.898       15.234      865.933
03/08/2014  19:57:00     -302.758     -113.399       -2.470      132.845      157.547       65.512    17647.845    24821.213     4291.866        7.564        2.338      323.298       64.399        0.040      341.020       15.439      865.926
03/08/2014  19:58:00     -168.491     -201.966       11.451      106.797      123.560       71.307    11405.589    15267.049     5084.704        5.053        1.588      263.020       63.774        0.059      341.010       15.422      865.944
03/08/2014  19:59:00      -72.543      -96.932       23.650      133.367      107.713       65.011    17786.812    11602.096     4226.476        2.441        1.681      121.071       78.868        0.424      340.945       15.314      865.940
03/08/2014  20:00:00     -133.154      -94.638       14.711      133.538       90.939       68.240    17832.362     8269.899     4656.735        2.882        1.538      163.359       81.025        0.246      340.955       15.331      865.960
03/08/2014  20:01:00     -394.333     -179.582      -14.255      172.847      108.060       70.965    29876.032    11676.890     5036.064       11.726        2.329      433.299       75.056        0.030      341.023       15.445      865.972
03/08/2014  20:02:00     -203.485     -187.416       -8.598      120.501      118.949       62.640    14520.416    14148.888     3923.812        5.459        1.630      276.642       64.752        0.055      341.003       15.412      865.999
03/08/2014  20:03:00     -226.156     -193.226       -6.413      107.810      113.926       54.736    11622.889    12979.021     2995.990        5.806        1.380      297.461       46.775        0.025      340.958       15.334      865.994
03/08/2014  20:04:00     -225.694     -140.056       -2.101      104.930       91.966       52.321    11010.287     8457.712     2737.479        4.638        1.110      265.619       57.183        0.046      340.936       15.297      865.971
03/08/2014  20:05:00     -255.239     -153.507       -4.990      122.691      109.920       55.974    15053.080    12082.479     3133.066        5.950        1.513      297.845       60.665        0.041      340.913       15.258      865.990
03/08/2014  20:06:00     -300.141     -157.687       -2.146      114.440       89.948       60.815    13096.458     8090.643     3698.520        6.992        1.244      339.043       53.448        0.025      340.886       15.213      866.016
03/08/2014  20:07:00     -180.191     -137.498       -4.688      122.641       91.260       69.465    15040.722     8328.305     4825.329        3.979        1.410      226.660       70.989        0.098      340.864       15.175      866.015
03/08/2014  20:08:00     -332.999     -140.926        4.465      131.442      119.713       63.080    17277.107    14331.316     3979.126        8.317        1.779      361.592       59.615        0.027      340.889       15.218      866.018
03/08/2014  20:09:00     -324.557     -178.904      -19.337      148.873       93.533       60.470    22163.261     8748.377     3656.643        8.614        1.728      370.599       64.805        0.031      340.904       15.243      866.041
03/08/2014  20:10:00     -222.794     -148.448       -9.991      105.911      119.140       59.556    11217.211    14194.247     3546.960        5.036        1.448      267.720       55.529        0.043      340.881       15.204      866.043
03/08/2014  20:11:00     -199.447     -152.100       10.358      127.749       86.896       59.981    16319.905     7550.951     3597.734        4.524        1.373      250.825       68.935        0.076      340.874       15.192      866.055
03/08/2014  20:12:00     -205.527     -160.280       -7.576      131.549       76.431       59.212    17305.079     5841.749     3506.073        4.732        1.333      260.636       68.472        0.069      340.870       15.185      866.067
03/08/2014  20:13:00     -213.380     -144.511        2.322      146.968       91.480       60.035    21599.459     8368.532     3604.173        4.999        1.679      257.710       78.248        0.092      340.886       15.213      866.076
03/08/2014  20:14:00     -219.242     -150.213       10.350      141.535       95.875       65.441    20032.288     9191.920     4282.489        5.212        1.675      265.765       77.061        0.084      340.819       15.100      866.062
03/08/2014  20:15:00     -235.387     -108.852       -8.684       98.624       90.937       42.894     9726.595     8269.483     1839.894        4.358        0.992      259.337       40.456        0.024      340.810       15.085      866.077
03/08/2014  20:16:00     -262.055     -132.658        0.776      128.666       98.880       59.623    16554.982     9777.239     3554.872        5.807        1.494      293.719       63.580        0.047      340.846       15.145      866.092
03/08/2014  20:17:00     -214.003     -160.013        6.909      117.826       98.312       65.550    13882.976     9665.181     4296.750        4.964        1.392      267.210       74.978        0.079      340.847       15.147      866.108
03/08/2014  20:18:00     -127.466     -123.359      -13.079      111.135       76.187       44.113    12350.893     5804.524     1945.959        2.586        1.005      177.384       44.230        0.062      340.838       15.131      866.114
03/08/2014  20:19:00     -114.877      -73.482       -1.271      122.078       81.404       45.430    14903.066     6626.631     2063.883        2.109        1.180      136.368       52.503        0.148      340.833       15.124      866.120
03/08/2014  20:20:00     -236.902      -62.137        1.219       91.430       66.480       42.510     8359.512     4419.571     1807.122        3.728        0.729      244.915       44.485        0.033      340.803       15.073      866.150
03/08/2014  20:21:00     -193.190     -195.636        0.497      127.666      125.118       66.628    16298.660    15654.443     4439.289        5.599        1.820      274.947       76.251        0.077      340.829       15.116      866.172
03/08/2014  20:22:00     -203.152      -62.558       -5.951      111.537       74.917       53.464    12440.394     5612.557     2858.412        3.306        1.046      212.566       54.727        0.066      340.843       15.140      866.181
03/08/2014  20:23:00     -220.811      -77.109      -15.841       93.826       78.087       46.146     8803.259     6097.657     2129.413        3.599        0.852      233.888       49.412        0.045      340.828       15.115      866.187
03/08/2014  20:24:00     -218.924      -60.858        0.900      102.374      101.794       40.967    10480.524    10362.119     1678.328        3.707        1.126      227.225       41.155        0.033      340.786       15.043      866.176
03/08/2014  20:25:00     -232.878      -74.770        6.998      128.937      116.645       61.854    16624.706    13606.013     3825.895        4.696        1.703      244.587       71.264        0.085      340.810       15.085      866.174
03/08/2014  20:26:00     -214.248      -30.599       -2.083      103.084       79.194       56.587    10626.370     6271.723     3202.124        3.347        1.005      216.422       58.571        0.073      340.810       15.086      866.191
03/08/2014  20:27:00     -205.424      -33.839       -9.760      112.065       73.490       46.870    12558.566     5400.735     2196.815        3.179        1.008      208.193       45.847        0.048      340.857       15.164      866.207
03/08/2014  20:28:00     -236.610      -72.419      -18.165      112.066       56.007       37.808    12558.681     3136.747     1429.459        3.934        0.856      247.444       45.332        0.034      340.813       15.090      866.210
03/08/2014  20:29:00     -129.953     -106.295        7.950       96.457       77.152       48.518     9303.883     5952.496     2353.968        2.293        0.881      167.888       45.730        0.074      340.776       15.027      866.223
03/08/2014  20:30:00     -162.574     -138.391       -2.326      106.846       87.631       57.585    11416.005     7679.161     3316.052        3.400        1.121      213.500       62.601        0.086      340.877       15.199      866.220
03/08/2014  20:31:00     -174.884      -23.770        0.046      106.382       82.093       51.840    11317.030     6739.236     2687.409        2.594        1.037      176.492       51.390        0.085      340.858       15.168      866.193
03/08/2014  20:32:00     -250.186     -119.638      -17.441       80.142       70.453       40.140     6422.706     4963.585     1611.208        4.510        0.650      277.320       34.486        0.015      340.792       15.053      866.210
03/08/2014  20:33:00     -297.682      -23.116      -24.596      126.095       83.638       48.803    15900.042     6995.306     2381.689        5.751        1.264      298.578       45.142        0.023      340.847       15.147      866.217
03/08/2014  20:34:00     -181.319      -89.539       -2.259       82.128       69.436       34.964     6745.029     4821.421     1222.496        2.684        0.639      202.222       43.415        0.046      340.770       15.018      866.253
03/08/2014  20:35:00     -137.364      -73.959       -9.463       94.393       66.756       34.180     8910.081     4456.402     1168.270        1.948        0.727      156.009       28.527        0.033      340.808       15.083      866.264
03/08/2014  20:36:00     -149.247     -102.871       -4.966       73.108       63.994       34.762     5344.767     4095.235     1208.400        2.176        0.532      181.266       33.455        0.034      340.798       15.066      866.280
03/08/2014  20:37:00     -167.307      -75.584        5.964       71.839       83.466       41.001     5160.870     6966.508     1681.113        2.377        0.690      183.589       36.189        0.039      340.874       15.193      866.282
03/08/2014  20:38:00     -147.772     -103.179       -5.393       79.793       48.571       39.434     6366.941     2359.121     1555.003        2.139        0.514      180.229       36.692        0.041      340.799       15.069      866.283
03/08/2014  20:39:00     -187.112     -148.959        1.318      103.285       83.929       59.918    10667.757     7043.998     3590.109        3.925        1.065      239.164       62.110        0.067      340.743       14.970      866.277
03/08/2014  20:40:00      -94.508     -136.231        5.760      112.720       76.513       57.377    12705.757     5854.262     3292.100        2.468        1.093      165.804       65.804        0.158      340.759       14.999      866.282
03/08/2014  20:41:00     -206.119     -106.380        0.536       98.155       74.620       43.054     9634.395     5568.197     1853.680        3.543        0.853      231.952       50.204        0.047      340.732       14.952      866.279
03/08/2014  20:42:00     -123.380      -48.023       -5.166       56.347       50.110       30.863     3174.959     2510.991      952.556        1.210        0.332      132.397       27.480        0.043      340.712       14.922      866.287
03/08/2014  20:43:00      -79.192      -92.274       -0.787       62.893       45.328       29.595     3955.538     2054.637      875.881        1.083        0.344      121.597       30.974        0.065      340.721       14.938      866.302
03/08/2014  20:44:00      -78.095     -142.812       -2.347       55.515       59.276       31.801     3081.877     3513.650     1011.310        1.705        0.380      162.770       31.566        0.038      340.711       14.917      866.322
03/08/2014  20:45:00     -127.980      -92.857       -8.598       54.595       45.748       25.342     2980.635     2092.901      642.215        1.539        0.286      158.118       22.889        0.021      340.683       14.872      866.335
03/08/2014  20:46:00     -139.305      -48.755        0.895       51.730       59.001       32.361     2675.984     3481.093     1047.207        1.449        0.360      147.591       31.006        0.044      340.656       14.826      866.328
03/08/2014  20:47:00      -87.854      -69.605        1.134       53.776       49.821       26.708     2891.872     2482.172      713.296        0.932        0.304      112.085       27.680        0.061      340.626       14.777      866.327
03/08/2014  20:48:00     -171.484      -54.476       -6.734       65.286       56.049       33.504     4262.251     3141.502     1122.489        2.047        0.426      179.928       31.894        0.031      340.678       14.861      866.315
03/08/2014  20:49:00     -118.347      -77.348       -6.259       81.212       42.435       29.502     6595.414     1800.702      870.366        1.465        0.463      141.382       33.756        0.057      340.615       14.757      866.315
03/08/2014  20:50:00     -114.750      -33.920       -5.243       55.478       30.798       24.951     3077.819      948.519      622.528        0.950        0.232      119.658       25.688        0.046      340.561       14.668      866.304
03/08/2014  20:51:00      -75.506      -63.627       21.570      140.687       45.519       35.905    19792.802     2071.943     1289.197        1.668        1.158       98.739       60.222        0.372      340.555       14.654      866.311
03/08/2014  20:52:00     -211.363     -101.758      -13.571       74.479       79.839       40.890     5547.187     6374.297     1672.009        3.440        0.680      234.583       43.512        0.034      340.570       14.678      866.298
03/08/2014  20:53:00     -216.549     -113.433       -4.076       86.375       56.940       44.819     7460.632     3242.204     2008.746        3.624        0.636      244.459       45.127        0.034      340.520       14.595      866.280
03/08/2014  20:54:00     -391.364     -140.619       -7.955      113.029      120.282       64.095    12775.608    14467.821     4108.156       10.217        1.568      415.860       61.745        0.022      340.559       14.659      866.296
03/08/2014  20:55:00     -315.830     -132.755      -16.791      110.517      136.428       60.598    12213.927    18612.512     3672.165        7.607        1.725      342.597       49.746        0.021      340.573       14.684      866.310
03/08/2014  20:56:00     -220.612      -94.421       -9.981      144.385       89.472       64.882    20847.083     8005.263     4209.682        4.537        1.653      239.969       70.128        0.085      340.527       14.606      866.302
03/08/2014  20:57:00     -236.715     -123.598        2.938      132.074      106.464       50.720    17443.646    11334.656     2572.562        5.133        1.568      267.040       59.430        0.050      340.508       14.574      866.324
03/08/2014  20:58:00     -225.017     -119.501       -9.536      101.075       83.442       52.533    10216.204     6962.620     2759.748        4.247        0.997      254.780       54.690        0.046      340.536       14.620      866.316
03/08/2014  20:59:00     -182.339     -138.691        2.536       87.999       86.422       51.763     7743.789     7468.847     2679.435        3.519        0.895      229.091       52.507        0.053      340.487       14.538      866.313
03/08/2014  21:00:00     -186.404     -174.921        1.919       99.527      100.477       68.781     9905.717    10095.569     4730.872        4.503        1.237      255.624       64.165        0.063      340.483       14.532      866.315
03/08/2014  21:01:00     -137.443     -119.933        2.544      118.420       65.206       45.755    14023.210     4251.841     2093.481        2.682        1.018      182.413       55.133        0.091      340.519       14.593      866.313
03/08/2014  21:02:00     -169.931     -193.402       -9.402      132.337       99.311       48.539    17512.950     9862.686     2356.079        4.804        1.487      257.451       54.663        0.045      340.608       14.743      866.297
03/08/2014  21:03:00     -195.095     -147.630      -13.912      126.843       99.440       54.683    16089.182     9888.221     2990.215        4.450        1.448      244.656       54.132        0.049      340.518       14.591      866.322
03/08/2014  21:04:00     -151.610      -81.701       -2.251       90.055       90.518       34.943     8109.878     8193.510     1220.993        2.359        0.876      172.222       27.667        0.026      340.565       14.672      866.328
03/08/2014  21:05:00     -137.226     -127.743       -7.768       67.026       74.841       34.561     4492.458     5601.196     1194.436        2.325        0.564      187.481       32.838        0.031      340.527       14.606      866.342
03/08/2014  21:06:00      -61.781      -57.606        8.589       71.984       44.866       29.009     5181.639     2012.974      841.501        0.762        0.402       84.471       28.242        0.112      340.519       14.594      866.329
03/08/2014  21:07:00      -22.978      -72.321        3.050       21.291       41.893       15.833      453.309     1755.055      250.697        0.411        0.123       75.884        7.114        0.009      340.518       14.596      866.318
03/08/2014  21:08:00      -73.841     -108.401      -10.418       37.679       57.508       17.575     1419.685     3307.173      308.885        1.117        0.252      131.161       14.343        0.012      340.506       14.573      866.322
03/08/2014  21:09:00      -70.056      -56.410        2.547       56.065       42.033       18.007     3143.316     1766.770      324.262        0.666        0.262       89.943       20.900        0.054      340.477       14.523      866.339
03/08/2014  21:10:00      -71.531      -60.669       -5.047       44.163       48.794       28.763     1950.379     2380.809      827.306        0.699        0.258       93.795       28.631        0.093      340.456       14.490      866.337
03/08/2014  21:11:00      -17.862       12.159       12.564       33.478       32.173       19.869     1120.763     1035.102      394.763        0.159        0.128       21.608       19.694        0.831      340.415       14.419      866.321
03/08/2014  21:12:00      -32.450       50.023       -9.520       21.090       30.380       10.746      444.781      922.929      115.478        0.256        0.074       59.626        5.056        0.007      340.480       14.529      866.322
03/08/2014  21:13:00      -18.717        6.876        5.126       18.506       25.803       18.511      342.461      665.819      342.663        0.089        0.068       19.940       13.806        0.479      340.514       14.589      866.323
03/08/2014  21:14:00       50.867       61.015       52.459       42.678       32.245       29.300     1821.390     1039.753      858.487        0.639        0.186       79.437       27.341        0.118      340.316       14.254      866.312
03/08/2014  21:15:00       -1.750      -27.009       15.740       47.323       46.253       27.471     2239.463     2139.295      754.629        0.306        0.257       27.065       24.899        0.846      340.392       14.382      866.343
03/08/2014  21:16:00       11.599      -40.348        2.580       41.569       48.315       32.013     1728.007     2334.317     1024.807        0.343        0.254       41.982       26.340        0.394      340.424       14.435      866.352
03/08/2014  21:17:00      -12.855      -23.552        4.131       23.939       36.740       20.688      573.069     1349.793      427.994        0.154        0.118       26.832       15.784        0.346      340.420       14.427      866.367
03/08/2014  21:18:00      -32.634      -29.719       -5.671       29.265       28.464       14.372      856.418      810.200      206.562        0.193        0.094       44.139       11.227        0.065      340.463       14.501      866.391
03/08/2014  21:19:00       -1.048      -27.565       -1.445       29.325       46.480       25.150      859.963     2160.365      632.547        0.221        0.183       27.585        9.767        0.125      340.339       14.292      866.390
03/08/2014  21:20:00      -32.364      -49.167        8.050       38.930       39.412       34.461     1515.542     1553.279     1187.563        0.389        0.213       58.863       18.684        0.101      340.409       14.409      866.393
03/08/2014  21:21:00       66.468      -92.564       -6.364       55.850       38.907       27.555     3119.248     1513.780      759.295        0.921        0.270      113.957       24.795        0.047      340.393       14.383      866.407
03/08/2014  21:22:00       29.593        1.861       45.247       51.200       79.894       39.027     2621.413     6382.978     1523.096        0.672        0.526       29.651       46.561        2.466      340.271       14.176      866.391
03/08/2014  21:23:00       46.890       60.380       93.814       59.815       68.983       59.511     3577.803     4758.663     3541.514        1.326        0.594       76.449       63.843        0.697      340.307       14.235      866.364
03/08/2014  21:24:00       18.391        8.803       46.487       39.156       61.445       38.405     1533.221     3775.444     1474.934        0.468        0.339       20.389       32.685        2.570      340.332       14.280      866.353
03/08/2014  21:25:00       32.385      -12.994       45.718       39.022       65.951       35.327     1522.688     4349.500     1248.004        0.521        0.356       34.895       34.810        0.995      340.348       14.307      866.398
03/08/2014  21:26:00        1.673      -22.265        7.055       44.671       76.752       39.565     1995.542     5890.934     1565.387        0.500        0.473       22.327       18.186        0.663      340.500       14.566      866.428
03/08/2014  21:27:00       79.717     -184.276      -22.189       98.524      103.485       71.432     9707.008    10709.095     5102.556        3.316        1.276      200.780       61.655        0.094      340.600       14.728      866.409
03/08/2014  21:28:00       22.691      -31.284       38.186       56.820      120.370       39.691     3228.517    14488.993     1575.406        1.112        0.965       38.646       52.704        1.860      340.521       14.598      866.407
03/08/2014  21:29:00       15.850        9.271       69.016       43.862       74.485       36.883     1923.910     5548.062     1360.365        0.696        0.442       18.362       40.387        4.838      340.425       14.437      866.420
03/08/2014  21:30:00       38.997     -112.015       34.459      104.391      146.698       89.559    10897.496    21520.207     8020.861        2.784        2.022      118.609       84.632        0.509      340.498       14.557      866.415
03/08/2014  21:31:00      101.156     -203.504      -43.335      150.433      180.875       96.378    22630.000    32715.921     9288.686        5.907        3.232      227.259       85.158        0.140      340.570       14.678      866.367
03/08/2014  21:32:00       40.588      -41.947       42.871       87.428      226.861      147.415     7643.653    51465.877    21731.070        4.303        4.042       58.369      164.642        7.956      340.602       14.731      866.407
03/08/2014  21:33:00       75.319      -16.701       54.362       88.589      170.102       95.522     7848.002    28934.576     9124.397        2.740        2.295       77.148      116.231        2.270      340.550       14.645      866.423
03/08/2014  21:34:00       35.667       57.283      109.035       82.360      122.628       82.819     6783.104    15037.579     6859.004        2.256        1.434       67.480       89.097        1.743      340.460       14.493      866.430
03/08/2014  21:35:00      -27.488      -11.462       18.868       85.141       64.379       43.727     7249.060     4144.684     1912.041        0.727        0.665       29.782       42.701        2.056      340.502       14.567      866.508
03/08/2014  21:36:00       38.449      -79.019      -12.588       85.224       75.934       54.769     7263.063     5765.912     2999.658        1.195        0.801       87.877       40.283        0.210      340.616       14.759      866.530
03/08/2014  21:37:00      -49.228     -124.184       10.700       65.251      140.233       45.920     4257.735    19665.187     2108.611        2.199        1.302      133.585       54.466        0.166      340.624       14.772      866.503
03/08/2014  21:38:00      -28.326      -95.820       -5.239       74.666       94.655       49.172     5574.959     8959.597     2417.872        1.348        0.848       99.919       45.118        0.204      340.595       14.722      866.519
03/08/2014  21:39:00      -24.698     -172.811      -23.376       79.073       59.890       43.491     6252.509     3586.871     1891.464        2.137        0.587      174.567       32.060        0.034      340.672       14.853      866.513
03/08/2014  21:40:00      -30.807     -192.956      -22.383       85.507      126.987       62.320     7311.500    16125.666     3883.770        3.300        1.366      195.400       52.536        0.072      340.618       14.761      866.485
03/08/2014  21:41:00      -70.665      -75.621        8.273       61.296       56.504       34.185     3757.184     3192.757     1168.587        0.945        0.406      103.499       25.851        0.062      340.612       14.753      866.479
03/08/2014  21:42:00      -97.418     -186.679        3.909       85.880      106.086       54.927     7375.441    11254.222     3016.947        3.300        1.082      210.569       50.096        0.057      340.606       14.741      866.504
03/08/2014  21:43:00     -126.996     -197.255      -10.715      103.777      136.488       42.115    10769.673    18628.934     1773.638        4.316        1.559      234.601       58.164        0.061      340.563       14.667      866.474
03/08/2014  21:44:00     -407.071     -241.786      -14.045      110.436      105.365       64.806    12196.138    11101.850     4199.832       12.593        1.375      473.463       58.177        0.015      340.444       14.468      866.490
03/08/2014  21:45:00     -279.269     -114.583      -35.308      228.878      112.829       75.083    52385.001    12730.395     5637.454        8.155        3.538      301.862       95.643        0.100      340.475       14.519      866.545
03/08/2014  21:46:00      -28.954      -67.699        3.522       85.863      129.549       54.399     7372.474    16782.864     2959.294        1.627        1.356       73.631       47.933        0.424      340.548       14.644      866.520
03/08/2014  21:47:00     -211.489     -261.404      -17.121      179.655      187.288       60.998    32275.795    35076.893     3720.780        9.220        3.554      336.244       71.693        0.045      340.528       14.607      866.534
03/08/2014  21:48:00     -142.473     -156.799       -4.738       98.870      111.795       59.254     9775.215    12498.100     3511.010        3.534        1.289      211.860       65.737        0.096      340.538       14.625      866.546
03/08/2014  21:49:00      -78.990     -212.647       -6.661       74.393       84.002       52.254     5534.374     7056.301     2730.512        3.341        0.766      226.844       31.544        0.019      340.566       14.671      866.541
03/08/2014  21:50:00     -166.886     -105.356       -3.833       95.479       87.816       46.033     9116.200     7711.579     2119.053        2.895        0.947      197.360       41.099        0.043      340.497       14.555      866.534
03/08/2014  21:51:00     -171.384     -106.489       11.142       99.117       73.936       47.626     9824.269     5466.535     2268.207        2.919        0.878      201.773       40.318        0.040      340.415       14.417      866.562
03/08/2014  21:52:00     -179.641     -149.820       -9.153       87.054       56.054       39.805     7578.486     3142.030     1584.444        3.355        0.615      233.917       43.584        0.035      340.411       14.410      866.579
03/08/2014  21:53:00     -134.597     -105.663       -7.721       80.181       82.934       36.612     6429.062     6877.996     1340.405        2.199        0.732      171.117       31.944        0.035      340.412       14.411      866.582
03/08/2014  21:54:00     -189.064     -113.998      -25.105       68.766       70.040       32.737     4728.733     4905.532     1071.742        3.004        0.535      220.773       39.014        0.031      340.447       14.470      866.583
03/08/2014  21:55:00     -142.236      -93.666      -14.362       94.047      161.979       43.755     8844.793    26237.313     1914.468        3.310        1.850      170.307       32.939        0.037      340.471       14.510      866.549
03/08/2014  21:56:00     -127.797     -285.839      -14.186       89.966      127.995       45.063     8093.907    16382.767     2030.715        6.237        1.325      313.107       36.019        0.013      340.510       14.577      866.571
03/08/2014  21:57:00     -235.622     -193.328       -1.536      185.838       99.705       57.059    34535.929     9941.026     3255.718        7.030        2.387      304.784       75.343        0.061      340.390       14.375      866.561
03/08/2014  21:58:00     -185.974     -146.864        3.421      139.422      137.179       60.007    19438.484    18817.946     3600.833        4.900        2.093      236.972       70.148        0.088      340.353       14.314      866.576
03/08/2014  21:59:00     -279.387     -193.290       -2.939      140.425      100.306       72.019    19719.210    10061.287     5186.773        7.519        1.748      339.732       79.183        0.054      340.461       14.492      866.561
03/08/2014  22:00:00     -244.968     -193.591      -14.974      122.883      117.824       65.839    15100.125    13882.419     4334.710        6.551        1.666      312.229       65.459        0.044      340.332       14.278      866.559
03/08/2014  22:01:00     -302.042     -154.108      -14.146      110.190       82.353       50.652    12141.942     6782.021     2565.642        6.833        1.074      339.085       50.681        0.022      340.293       14.210      866.558
03/08/2014  22:02:00     -136.094     -119.148       13.246      119.489       95.488       55.094    14277.647     9117.888     3035.356        2.966        1.322      180.881       53.385        0.087      340.200       14.053      866.591
03/08/2014  22:03:00     -218.465     -173.626      -10.731      100.430       72.058       54.301    10086.179     5192.316     2948.632        4.810        0.911      279.057       49.655        0.032      340.251       14.140      866.583
03/08/2014  22:04:00     -176.865     -121.055        5.830      109.244       81.502       47.463    11934.198     6642.620     2252.693        3.340        1.041      214.326       53.723        0.063      340.230       14.104      866.587
03/08/2014  22:05:00     -215.449     -146.366      -13.325      116.051       77.323       50.170    13467.739     5978.862     2517.006        4.499        1.098      260.463       51.768        0.040      340.210       14.068      866.616
03/08/2014  22:06:00     -143.389     -166.231        8.341      116.372       76.165       57.155    13542.546     5801.084     3266.640        3.543        1.131      219.529       56.716        0.067      340.174       14.011      866.617
03/08/2014  22:07:00     -137.552     -195.022        1.809      115.755       85.541       43.635    13399.332     7317.206     1903.978        3.978        1.131      238.651       44.679        0.035      340.194       14.043      866.609
03/08/2014  22:08:00      -80.373      -90.180        8.991       67.665       60.832       34.203     4578.552     3700.553     1169.835        1.206        0.472      120.799       32.932        0.074      340.160       13.987      866.594
03/08/2014  22:09:00     -185.093     -155.255       -5.301       63.265       67.659       43.800     4002.430     4577.739     1918.482        3.444        0.525      241.585       37.399        0.024      340.124       13.925      866.583
03/08/2014  22:10:00     -131.228     -147.249      -12.719       54.546       83.316       43.439     2975.280     6941.622     1886.978        2.543        0.590      197.238       38.822        0.039      340.085       13.861      866.598
03/08/2014  22:11:00      -60.507     -144.683        0.004       49.715       64.388       28.109     2471.580     4145.803      790.114        1.600        0.370      156.825       15.250        0.009      340.031       13.771      866.616
03/08/2014  22:12:00      -95.909     -128.836       -3.346       72.544       68.612       39.291     5262.698     4707.628     1543.806        1.866        0.576      160.615       36.398        0.051      339.961       13.652      866.623
03/08/2014  22:13:00     -136.529      -99.354       -7.882       77.436       61.870       35.188     5996.342     3827.874     1238.164        1.982        0.553      168.853       25.724        0.023      339.863       13.485      866.614
03/08/2014  22:14:00     -135.270     -162.478       -0.417       90.870       89.359       41.659     8257.377     7985.095     1735.460        3.133        0.899      211.417       53.797        0.065      339.847       13.458      866.604
03/08/2014  22:15:00      -88.737     -127.194        4.959       69.041       74.826       40.720     4766.699     5598.862     1658.111        1.805        0.601      155.090       40.992        0.070      339.789       13.362      866.598
03/08/2014  22:16:00     -108.171     -179.705       -2.389       70.173       76.772       40.834     4924.198     5893.885     1667.395        2.824        0.624      209.750       37.492        0.032      339.753       13.299      866.622
03/08/2014  22:17:00      -85.802     -106.541       17.418       64.426       60.139       38.046     4150.675     3616.701     1447.470        1.411        0.461      136.795       31.785        0.054      339.757       13.308      866.625
03/08/2014  22:18:00     -176.454     -148.052       -3.243       62.682       72.087       35.071     3929.033     5196.599     1229.978        3.171        0.518      230.338       33.999        0.022      339.753       13.299      866.622
03/08/2014  22:19:00     -141.932     -187.284       -5.900       76.975       83.243       37.493     5925.104     6929.381     1405.751        3.475        0.713      234.989       48.705        0.043      339.736       13.273      866.621
03/08/2014  22:20:00     -183.800     -143.002       -8.588       83.176       65.563       44.720     6918.190     4298.443     1999.884        3.376        0.661      232.878       29.986        0.017      339.777       13.339      866.622
03/08/2014  22:21:00     -239.519     -125.771       -6.246      123.088       66.239       39.486    15150.618     4387.655     1559.168        4.716        1.055      270.532       50.711        0.035      339.916       13.575      866.632
03/08/2014  22:22:00     -137.351     -126.811        0.006       90.791       64.943       45.669     8243.087     4217.565     2085.645        2.474        0.727      186.939       36.160        0.037      339.853       13.470      866.646
03/08/2014  22:23:00     -189.584     -135.169       -4.524      119.574       83.497       51.186    14297.839     6971.703     2620.017        3.906        1.194      232.836       56.794        0.059      339.788       13.358      866.646
03/08/2014  22:24:00     -130.276     -132.865        2.591       76.961       55.690       36.831     5922.960     3101.382     1356.516        2.250        0.519      186.078       27.476        0.022      339.996       13.710      866.636
03/08/2014  22:25:00     -189.220     -143.900       -0.941      103.888       90.606       46.991    10792.814     8209.367     2208.194        3.886        1.061      237.721       50.116        0.044      339.908       13.561      866.637
03/08/2014  22:26:00     -163.253      -92.677        7.836      115.306       66.899       47.778    13295.483     4475.418     2282.757        2.767        1.003      187.724       53.534        0.081      339.831       13.431      866.647
03/08/2014  22:27:00     -178.879     -166.124       -4.069       73.708       59.383       43.475     5432.935     3526.312     1890.083        3.523        0.542      244.121       32.500        0.018      339.826       13.421      866.653
03/08/2014  22:28:00     -105.651     -105.211        1.906       79.167       66.497       45.269     6267.371     4421.841     2049.254        1.748        0.637      149.103       37.043        0.062      339.803       13.384      866.656
03/08/2014  22:29:00     -174.284     -105.645       -6.771       60.856       58.637       35.751     3703.423     3438.248     1278.105        2.500        0.421      203.803       32.297        0.025      339.930       13.598      866.662
03/08/2014  22:30:00     -139.019     -120.730        6.907       79.524       64.366       40.098     6324.109     4142.968     1607.844        2.301        0.604      184.125       46.139        0.063      339.910       13.566      866.670
03/08/2014  22:31:00     -112.039     -111.362      -15.211       65.764       46.345       31.147     4324.942     2147.830      970.144        1.631        0.372      157.970       28.439        0.032      339.801       13.383      866.665
03/08/2014  22:32:00     -129.504      -51.840        7.177       77.530       47.146       29.660     6010.864     2222.765      879.694        1.431        0.456      139.494       24.455        0.031      339.741       13.282      866.636
03/08/2014  22:33:00     -159.716     -130.818       -3.799       78.511       61.118       37.794     6163.934     3735.396     1428.365        2.698        0.566      206.452       37.713        0.033      339.744       13.286      866.624
03/08/2014  22:34:00     -169.930      -73.168       -7.953       54.363       46.494       25.830     2955.293     2161.708      667.202        2.004        0.289      185.012       14.600        0.006      339.710       13.228      866.610
03/08/2014  22:35:00     -223.809     -121.438      -14.475       83.915       69.476       41.917     7041.702     4826.940     1757.005        3.933        0.681      254.633       40.748        0.026      339.740       13.277      866.608
03/08/2014  22:36:00     -139.026      -84.432        0.747       69.338       63.437       37.646     4807.762     4024.297     1417.209        1.835        0.512      162.656       38.269        0.055      339.669       13.159      866.623
03/08/2014  22:37:00     -171.544     -118.347       -2.088       63.822       59.268       43.063     4073.287     3512.649     1854.449        2.644        0.472      208.406       33.396        0.026      339.843       13.451      866.623
03/08/2014  22:38:00     -137.132     -102.603       -4.932       69.760       43.427       40.127     4866.476     1885.908     1610.212        1.886        0.418      171.267       43.955        0.066      339.784       13.353      866.623
03/08/2014  22:39:00     -119.004     -101.836      -11.685       70.593       37.362       29.101     4983.370     1395.883      846.895        1.595        0.361      156.629       32.516        0.043      339.762       13.318      866.631
03/08/2014  22:40:00     -146.488     -102.336       -3.633       69.541       75.678       37.127     4835.890     5727.113     1378.392        2.194        0.597      178.693       33.356        0.035      339.686       13.187      866.652
03/08/2014  22:41:00     -194.195     -109.631        7.480       94.055       77.916       46.719     8846.320     6070.961     2182.669        3.344        0.855      223.004       47.680        0.046      339.641       13.109      866.656
03/08/2014  22:42:00     -184.872     -100.649        1.568       96.910       73.071       53.043     9391.608     5339.364     2813.544        3.092        0.877      210.495       56.475        0.072      339.728       13.257      866.662
03/08/2014  22:43:00     -222.544     -152.340       -2.879       87.301       81.654       46.703     7621.541     6667.333     2181.194        4.460        0.824      269.691       49.577        0.034      339.764       13.318      866.658
03/08/2014  22:44:00     -132.543     -101.405        0.338       91.007       49.736       40.426     8282.299     2473.644     1634.290        2.012        0.620      166.885       38.145        0.052      339.739       13.278      866.675
03/08/2014  22:45:00     -135.049     -109.939        2.202       83.267       67.434       43.445     6933.461     4547.394     1887.440        2.185        0.668      174.141       45.837        0.069      339.740       13.279      866.689
03/08/2014  22:46:00     -107.302      -79.075        5.159       66.987       66.852       38.658     4487.209     4469.249     1494.451        1.412        0.523      133.291       37.657        0.080      339.693       13.201      866.692
03/08/2014  22:47:00     -137.261     -125.959       -3.883       61.533       55.287       32.544     3786.274     3056.681     1059.125        2.131        0.395      186.296       26.544        0.020      339.741       13.280      866.699
03/08/2014  22:48:00     -147.055      -94.624       -7.829       51.339       51.166       27.225     2635.695     2617.982      741.204        1.832        0.300      174.868       23.690        0.018      339.730       13.263      866.687
03/08/2014  22:49:00      -98.340     -101.221       -9.665       61.079       63.180       28.858     3730.622     3991.767      832.788        1.428        0.428      141.125       25.833        0.034      339.731       13.266      866.671
03/08/2014  22:50:00      -69.940      -33.679        9.402       46.335       36.976       26.456     2146.910     1367.238      699.932        0.516        0.211       77.626       24.823        0.102      339.648       13.125      866.657
03/08/2014  22:51:00      -71.278      -41.644        6.970       65.933       39.591       29.416     4347.113     1567.486      865.303        0.682        0.339       82.552       31.700        0.147      339.654       13.135      866.653
03/08/2014  22:52:00      -70.776      -79.395        3.320       59.127       57.196       29.264     3496.006     3271.329      856.365        0.947        0.381      106.361       26.112        0.060      339.725       13.254      866.657
03/08/2014  22:53:00      -69.296      -97.754      -12.590       37.462       30.393       16.542     1403.402      923.750      273.637        0.856        0.130      119.824       10.458        0.008      339.817       13.410      866.651
03/08/2014  22:54:00      -14.815      -74.945        2.058       26.681       41.474       14.041      711.900     1720.089      197.143        0.423        0.131       76.395       15.734        0.042      339.829       13.430      866.645
03/08/2014  22:55:00      -45.675      -91.378       -1.463       39.999       28.060       18.686     1599.938      787.359      349.163        0.659        0.137      102.157       18.614        0.033      339.842       13.453      866.630
03/08/2014  22:56:00      -65.468     -105.582       -4.203       31.623       40.615       23.784      999.983     1649.594      565.686        0.933        0.161      124.232       14.100        0.013      339.784       13.355      866.620
03/08/2014  22:57:00     -100.247     -100.390       -7.300       58.678       45.368       24.792     3443.159     2058.248      614.662        1.315        0.306      141.872       29.620        0.044      339.802       13.386      866.604
03/08/2014  22:58:00      -31.936     -116.014        7.476       35.804       43.189       18.647     1281.947     1865.332      347.693        0.901        0.175      120.329       11.008        0.008      339.887       13.529      866.580
03/08/2014  22:59:00      -59.429      -82.666       -8.439       59.547       42.266       22.452     3545.901     1786.412      504.086        0.814        0.292      101.811       27.801        0.075      339.765       13.325      866.564
03/08/2014  23:00:00       -7.754      -11.637       -2.546       11.622       23.787       11.323      135.062      565.841      128.220        0.052        0.041       13.984       10.561        0.570      339.637       13.107      866.547
03/08/2014  23:01:00      -52.887       10.550        9.088       17.814       19.790       20.731      317.342      391.643      429.794        0.206        0.057       53.929       13.873        0.066      339.670       13.162      866.536
03/08/2014  23:02:00      -12.930      -10.803        5.019       26.793       13.610       11.101      717.882      185.233      123.239        0.067        0.051       16.849        9.789        0.338      339.703       13.219      866.543
03/08/2014  23:03:00      -30.001      -62.155        4.900       24.221       47.362       25.334      586.644     2243.201      641.835        0.413        0.174       69.016       19.712        0.082      339.808       13.396      866.559
03/08/2014  23:04:00      -47.749      -90.978       -8.575       50.673       34.660       20.355     2567.727     1201.338      414.322        0.741        0.209      102.747       17.377        0.029      339.868       13.496      866.580
03/08/2014  23:05:00      -47.362      -45.237       -1.763       37.360       23.577       16.151     1395.776      555.894      260.869        0.325        0.111       65.495       16.029        0.060      339.756       13.309      866.595
03/08/2014  23:06:00      -46.324      -63.789        3.480       35.869       32.860       21.414     1286.586     1079.810      458.552        0.453        0.141       78.835       21.529        0.075      339.754       13.304      866.600
03/08/2014  23:07:00      -48.800      -57.499        6.447       32.813       22.600       17.811     1076.705      510.756      317.238        0.382        0.095       75.416       14.364        0.036      339.852       13.469      866.603
03/08/2014  23:08:00      -15.872      -69.816       -4.717       25.586       45.518       17.933      654.650     2071.929      321.605        0.410        0.152       71.597       21.519        0.090      339.914       13.574      866.600
03/08/2014  23:09:00       -7.674      -48.136       -0.252       36.961       22.176       20.971     1366.100      491.774      439.800        0.234        0.115       48.743       12.145        0.062      339.808       13.395      866.588
03/08/2014  23:10:00      -38.944      -61.450       -0.712       36.500       23.616       13.969     1332.255      557.730      195.133        0.369        0.104       72.751       15.324        0.044      340.025       13.762      866.587
03/08/2014  23:11:00     -103.527      -30.190        0.275       25.137       27.127       15.230      631.868      735.880      231.949        0.661        0.080      107.839       10.155        0.009      339.664       13.155      866.595
03/08/2014  23:12:00      -35.510      -10.462        5.949       24.778       13.253       14.219      613.938      175.629      202.191        0.120        0.050       37.019       10.038        0.074      339.587       13.023      866.591
03/08/2014  23:13:00        0.328       -4.000       -9.058       22.315       10.440       10.982      497.971      108.985      120.599        0.041        0.036        4.013       11.868        8.744      339.620       13.078      866.578
03/08/2014  23:14:00      -49.587      -20.627       -7.112       42.815       16.949       16.083     1833.160      287.277      258.648        0.266        0.119       53.706       15.167        0.080      339.714       13.237      866.597
03/08/2014  23:15:00      -32.716      -47.950        4.150       29.510       31.992       16.844      870.822     1023.483      283.721        0.278        0.109       58.047       18.764        0.104      339.789       13.364      866.615
03/08/2014  23:16:00      -19.681      -76.071       -9.467       12.978       23.700       10.794      168.434      561.712      116.521        0.356        0.042       78.576        7.853        0.010      340.027       13.764      866.622
03/08/2014  23:17:00      -10.052      -64.179       -1.252       26.059       19.380       17.023      679.071      375.567      289.767        0.278        0.067       64.961       16.146        0.062      340.036       13.778      866.616
03/08/2014  23:18:00      -31.927       -0.624        1.620       55.474       45.325       22.828     3077.395     2054.340      521.136        0.334        0.283       31.933       28.699        0.808      340.073       13.842      866.613
03/08/2014  23:19:00     -194.729      -27.556      -16.236       69.103       46.347       30.263     4775.282     2148.064      915.843        2.339        0.392      196.669       30.792        0.025      340.155       13.979      866.612
03/08/2014  23:20:00     -124.187        3.345        5.474       55.876       47.789       32.476     3122.088     2283.787     1054.660        1.096        0.323      124.232       31.113        0.063      340.098       13.883      866.611
03/08/2014  23:21:00      -86.836      -63.820        3.349       59.784       42.162       27.013     3574.179     1777.666      729.696        0.885        0.304      107.766       27.162        0.064      339.942       13.621      866.610
03/08/2014  23:22:00      -78.730      -40.704        3.855       53.889       24.896       22.669     2904.056      619.802      513.893        0.595        0.202       88.630       25.506        0.083      340.001       13.721      866.598
03/08/2014  23:23:00      -62.311      -23.769       -0.958       66.145       25.075       21.880     4375.166      628.759      478.713        0.496        0.274       66.691       17.045        0.065      339.988       13.698      866.582
03/08/2014  23:24:00       -5.849      -57.204       -4.479       27.951       23.279       16.634      781.259      541.900      276.704        0.246        0.080       57.502       12.613        0.048      339.986       13.696      866.570
03/08/2014  23:25:00      -35.169      -85.668       -2.358       26.800       17.002       10.737      718.252      289.054      115.282        0.485        0.056       92.606        8.764        0.009      340.062       13.824      866.562
03/08/2014  23:26:00      -55.561      -66.941       -0.039       34.446       24.868       16.616     1186.531      618.432      276.096        0.482        0.104       86.995       11.652        0.018      339.949       13.633      866.564
03/08/2014  23:27:00      -36.349     -184.308        9.556       28.155       54.414       25.711      792.682     2960.937      661.063        1.990        0.221      187.858       23.143        0.015      340.247       14.132      866.571
03/08/2014  23:28:00     -155.918      -34.005        1.860       81.480       72.517       36.645     6639.033     5258.698     1342.885        1.935        0.662      159.583       33.273        0.043      340.267       14.168      866.570
03/08/2014  23:29:00     -171.298      -17.669        0.314       86.809       39.202       33.132     7535.754     1536.814     1097.759        1.991        0.509      172.207       41.090        0.057      340.064       13.824      866.584
03/08/2014  23:30:00      -94.105      -65.309       -1.106       51.515       41.179       20.862     2653.797     1695.733      435.226        0.895        0.239      114.547       18.957        0.027      339.891       13.534      866.590
03/08/2014  23:31:00      -70.860      -68.678        1.429       38.320       25.953       16.957     1468.449      673.534      287.542        0.608        0.121       98.681       17.862        0.033      339.894       13.541      866.583
03/08/2014  23:32:00      -55.250      -60.492        1.884       42.003       23.405       13.451     1764.237      547.776      180.917        0.460        0.125       81.926       13.578        0.027      339.905       13.558      866.583
03/08/2014  23:33:00      -59.954      -57.419      -11.420       28.072       19.647       12.499      788.014      385.991      156.222        0.418        0.067       83.014       10.600        0.016      339.942       13.623      866.574
03/08/2014  23:34:00        3.493      -53.067       13.472       37.280       48.732       34.904     1389.764     2374.826     1218.307        0.400        0.249       53.182       36.719        0.477      339.887       13.529      866.562
03/08/2014  23:35:00       -7.908      -14.603       24.666       20.856       36.797       33.786      434.987     1354.019     1141.495        0.191        0.147       16.607       26.263        2.501      339.639       13.111      866.547
03/08/2014  23:36:00       -7.191      -31.013        7.001       11.122       22.927       18.041      123.688      525.651      325.478        0.102        0.049       31.836        5.267        0.027      339.761       13.316      866.562
03/08/2014  23:37:00      -11.334      -10.048       15.372       42.226       33.293       24.212     1783.063     1108.455      586.225        0.197        0.174       15.147       25.813        2.904      339.657       13.141      866.566
03/08/2014  23:38:00      -21.356      -32.467       12.120       26.760       23.505       21.112      716.072      552.463      445.697        0.169        0.086       38.861       13.349        0.118      339.562       12.979      866.597
03/08/2014  23:39:00       23.993      -17.204       23.122       28.526       48.902       34.126      813.738     2391.431     1164.580        0.289        0.218       29.524       16.487        0.312      339.379       12.672      866.624
03/08/2014  23:40:00       54.844       -7.760       52.714       75.956       84.949       58.349     5769.335     7216.260     3404.581        1.112        0.820       55.390       64.892        1.373      339.047       12.112      866.645
03/08/2014  23:41:00       49.820       68.502      107.995       65.537       81.935       41.958     4295.105     6713.412     1760.487        1.580        0.638       84.703       52.515        0.384      338.857       11.794      866.647
03/08/2014  23:42:00       64.394       12.582       65.316       54.263       55.665       39.402     2944.420     3098.598     1552.537        0.808        0.380       65.611       35.415        0.291      338.769       11.647      866.653
03/08/2014  23:43:00       80.791       -3.736       42.381       54.691       53.627       35.340     2991.137     2875.817     1248.932        0.773        0.356       80.878       33.341        0.170      338.768       11.644      866.654
03/08/2014  23:44:00       38.061       20.568       51.513       48.858       44.878       24.269     2387.084     2014.018      588.966        0.476        0.250       43.263       32.229        0.555      338.740       11.595      866.666
03/08/2014  23:45:00       67.155       53.264       50.064       38.322       32.947       29.206     1468.599     1085.490      852.982        0.663        0.170       85.714       19.926        0.054      338.735       11.591      866.670
03/08/2014  23:46:00       77.878       62.969       83.948       61.146       48.458       45.059     3738.812     2348.135     2030.329        1.260        0.406      100.150       37.368        0.139      338.649       11.444      866.641
03/08/2014  23:47:00       71.763       92.137      108.916       53.763       57.536       31.138     2890.448     3310.422      969.558        1.633        0.359      116.787       36.710        0.099      338.549       11.275      866.624
03/08/2014  23:48:00       96.722       88.698       85.438       47.407       51.222       42.747     2247.455     2623.704     1827.330        1.561        0.335      131.234       30.859        0.055      338.478       11.157      866.623
03/08/2014  23:49:00       81.526       91.610       92.737       59.901       51.491       42.952     3588.143     2651.357     1844.917        1.586        0.404      122.633       41.021        0.112      338.636       11.420      866.628
03/08/2014  23:50:00      105.335       83.225       57.306       48.729       32.601       45.554     2374.546     1062.803     2075.210        1.341        0.276      134.246       35.269        0.069      338.742       11.600      866.646
03/08/2014  23:51:00       24.645        6.038       36.503       48.948       44.258       23.307     2395.954     1958.792      543.229        0.344        0.245       25.374       25.062        0.976      338.674       11.487      866.668
03/08/2014  23:52:00       -3.482        7.503       45.626       15.424       28.518       15.730      237.906      813.249      247.443        0.172        0.065        8.271       13.808        2.787      338.702       11.532      866.687
03/08/2014  23:53:00        5.134       18.374       25.527       20.250       17.033       18.196      410.051      290.136      331.090        0.102        0.052       19.077       15.150        0.631      338.607       11.374      866.703
03/08/2014  23:54:00       -8.004       -5.889       -4.050       14.216       10.752       10.794      202.084      115.600      116.500        0.027        0.022        9.937        6.063        0.372      338.617       11.389      866.718
03/08/2014  23:55:00        8.735       13.032        9.455       10.028        9.346        9.493      100.558       87.348       90.113        0.031        0.014       15.689        9.042        0.332      338.679       11.492      866.710
03/08/2014  23:56:00       60.722       38.229       20.007       29.010       14.572       13.793      841.604      212.339      190.237        0.340        0.062       71.754        6.947        0.009      338.722       11.566      866.704
03/08/2014  23:57:00       47.613       31.186       10.597       46.519       30.058       24.182     2163.976      903.481      584.784        0.350        0.183       56.917       20.769        0.133      338.567       11.307      866.715
03/08/2014  23:58:00      -50.752       15.089       -5.677       22.334       22.930       16.497      498.825      525.791      272.156        0.207        0.065       52.948       12.080        0.052      338.614       11.385      866.742
03/08/2014  23:59:00      -17.684       47.229       -6.223       26.900       26.614       10.581      723.627      708.313      111.966        0.206        0.077       50.431       11.403        0.051      338.567       11.306      866.739
